[[{"header":{"parameterUnit":"m.s-1","parameterCategory":1,"la1":30.6,"la2":28.766,"lo1":-90.7593,"lo2":-88.6598,"dy":0.0162,"dx":0.0183,"nx":116,"ny":114,"refTime":"2024-06-12T18:00:00:Z","depth":0,"parameterNumber":2,"parameterNumberName":"U-component_of_WINDS"},"data":[0.0,0.0,0.0,0.0,0.0,0.0,0.0,0.0,0.0,0.0,0.0,0.0,0.0,0.0,0.0,0.0,0.0,0.0,0.0,0.0,0.0,0.0,0.0,0.0,0.0,0.0,0.0,0.0,0.0,0.0,0.0,0.0,0.0,0.0,0.0,0.0,0.0,0.0,0.0,0.0,0.0,0.0,0.0,0.0,0.0,0.0,0.0,0.0,0.0,0.0,0.0,0.0,0.0,0.0,0.0,0.0,0.0,0.0,0.0,0.0,0.0,0.0,0.0,0.0,0.0,0.0,0.0,0.0,0.0,0.0,0.0,0.0,0.0,0.0,0.0,0.0,0.0,0.0,0.0,0.0,0.0,0.0,0.0,0.0,0.0,0.0,0.0,0.0,0.0,0.0,0.0,0.0,0.0,0.0,0.0,0.0,0.0,0.0,0.0,0.0,0.0,0.0,0.0,0.0,0.0,0.0,0.0,0.0,0.0,0.0,0.0,0.0,0.0,0.0,0.0,0.0,0.0,0.0,0.0,0.0,0.0,0.0,0.0,0.0,0.0,0.0,0.0,0.0,0.0,0.0,0.0,0.0,0.0,0.0,0.0,0.0,0.0,0.0,0.0,0.0,0.0,0.0,0.0,0.0,0.0,0.0,0.0,0.0,0.0,0.0,0.0,0.0,0.0,0.0,0.0,0.0,0.0,0.0,0.0,0.0,0.0,0.0,0.0,0.0,0.0,0.0,0.0,0.0,0.0,0.0,0.0,0.0,0.0,0.0,0.0,0.0,0.0,0.0,0.0,0.0,0.0,0.0,0.0,0.0,0.0,0.0,0.0,0.0,0.0,0.0,0.0,0.0,0.0,0.0,0.0,0.0,0.0,0.0,0.0,0.0,0.0,0.0,0.0,0.0,0.0,0.0,0.0,0.0,0.0,0.0,0.0,0.0,0.0,0.0,0.0,0.0,0.0,0.0,0.0,0.0,0.0,0.0,0.0,0.0,0.0,0.0,0.0,0.0,0.0,0.0,0.0,0.0,0.0,0.0,0.0,0.0,0.0,0.0,0.0,0.0,0.0,0.0,0.0,0.0,0.0,0.0,0.0,0.0,0.0,0.0,0.0,0.0,0.0,0.0,0.0,0.0,0.0,0.0,0.0,0.0,0.0,0.0,0.0,0.0,0.0,0.0,0.0,0.0,0.0,0.0,0.0,0.0,0.0,0.0,0.0,0.0,0.0,0.0,0.0,0.0,0.0,0.0,0.0,0.0,0.0,0.0,0.0,0.0,0.0,0.0,0.0,0.0,0.0,0.0,0.0,0.0,0.0,0.0,0.0,0.0,0.0,0.0,0.0,0.0,0.0,0.0,0.0,0.0,0.0,0.0,0.0,0.0,0.0,0.0,0.0,0.0,0.0,0.0,0.0,0.0,0.0,0.0,0.0,0.0,0.0,0.0,0.0,0.0,0.0,0.0,0.0,0.0,0.0,0.0,0.0,0.0,0.0,0.0,0.0,0.0,0.0,0.0,0.0,0.0,0.0,0.0,0.0,0.0,0.0,0.0,0.0,0.0,0.0,0.0,0.0,0.0,0.0,0.0,0.0,0.0,0.0,0.0,0.0,0.0,0.0,0.0,0.0,0.0,0.0,0.0,0.0,0.0,0.0,0.0,0.0,0.0,0.0,0.0,0.0,0.0,0.0,0.0,0.0,0.0,0.0,0.0,0.0,0.0,0.0,0.0,0.0,0.0,0.0,0.0,0.0,0.0,0.0,0.0,0.0,0.0,0.0,0.0,0.0,0.0,0.0,0.0,0.0,0.0,0.0,0.0,0.0,0.0,0.0,0.0,0.0,0.0,0.0,0.0,0.0,0.0,0.0,0.0,0.0,0.0,0.0,0.0,0.0,0.0,0.0,0.0,0.0,0.0,0.0,0.0,0.0,0.0,0.0,0.0,0.0,0.0,0.0,0.0,0.0,0.0,0.0,0.0,0.0,0.0,0.0,0.0,0.0,0.0,0.0,0.0,0.0,0.0,0.0,0.0,0.0,0.0,0.0,0.0,0.0,0.0,0.0,0.0,0.0,0.0,0.0,0.0,0.0,0.0,0.0,0.0,0.0,0.0,0.0,0.0,0.0,0.0,0.0,0.0,0.0,0.0,0.0,0.0,0.0,0.0,0.0,0.0,0.0,0.0,0.0,0.0,0.0,0.0,0.0,0.0,0.0,0.0,0.0,0.0,0.0,0.0,0.0,0.0,0.0,0.0,0.0,0.0,0.0,0.0,0.0,0.0,0.0,0.0,0.0,0.0,0.0,0.0,0.0,0.0,0.0,0.0,0.0,0.0,0.0,0.0,0.0,0.0,0.0,0.0,0.0,0.0,0.0,0.0,0.0,0.0,0.0,0.0,0.0,0.0,0.0,0.0,0.0,0.0,0.0,0.0,0.0,0.0,0.0,0.0,0.0,0.0,0.0,0.0,0.0,0.0,0.0,0.0,0.0,0.0,0.0,0.0,0.0,0.0,0.0,0.0,0.0,0.0,0.0,0.0,0.0,0.0,0.0,0.0,0.0,0.0,0.0,0.0,0.0,0.0,0.0,0.0,0.0,0.0,0.0,0.0,0.0,0.0,0.0,0.0,0.0,0.0,0.0,0.0,0.0,0.0,0.0,0.0,0.0,0.0,0.0,0.0,0.0,0.0,0.0,0.0,0.0,0.0,0.0,0.0,0.0,0.0,0.0,0.0,0.0,0.0,0.0,0.0,0.0,0.0,0.0,0.0,0.0,0.0,0.0,0.0,0.0,0.0,0.0,0.0,0.0,0.0,0.0,0.0,0.0,0.0,0.0,0.0,0.0,0.0,0.0,0.0,0.0,0.0,0.0,0.0,0.0,0.0,0.0,0.0,0.0,0.0,0.0,0.0,0.0,0.0,0.0,0.0,0.0,0.0,0.0,0.0,0.0,0.0,0.0,0.0,0.0,0.0,0.0,0.0,0.0,0.0,0.0,0.0,0.0,0.0,0.0,0.0,0.0,0.0,0.0,0.0,0.0,0.0,0.0,0.0,0.0,0.0,0.0,0.0,0.0,0.0,0.0,0.0,0.0,0.0,0.0,0.0,0.0,0.0,0.0,0.0,0.0,0.0,0.0,0.0,0.0,0.0,0.0,0.0,0.0,0.0,0.0,0.0,0.0,0.0,0.0,0.0,0.0,0.0,0.0,0.0,0.0,0.0,0.0,0.0,0.0,0.0,0.0,0.0,0.0,0.0,0.0,0.0,0.0,0.0,0.0,0.0,0.0,0.0,0.0,0.0,0.0,0.0,0.0,0.0,0.0,0.0,0.0,0.0,0.0,0.0,0.0,0.0,0.0,0.0,0.0,0.0,0.0,0.0,0.0,0.0,0.0,0.0,0.0,0.0,0.0,0.0,0.0,0.0,0.0,0.0,0.0,0.0,0.0,0.0,0.0,0.0,0.0,0.0,0.0,0.0,0.0,0.0,0.0,0.0,0.0,0.0,0.0,0.0,0.0,0.0,0.0,0.0,0.0,0.0,0.0,0.0,0.0,0.0,0.0,0.0,0.0,0.0,0.0,0.0,0.0,0.0,0.0,0.0,0.0,0.0,0.0,0.0,0.0,0.0,0.0,0.0,0.0,0.0,0.0,0.0,0.0,0.0,0.0,0.0,0.0,0.0,0.0,0.0,0.0,0.0,0.0,0.0,0.0,0.0,0.0,0.0,0.0,0.0,0.0,0.0,0.0,0.0,0.0,0.0,0.0,0.0,0.0,0.0,0.0,0.0,0.0,0.0,0.0,0.0,0.0,0.0,0.0,0.0,0.0,0.0,0.0,0.0,0.0,0.0,0.0,0.0,0.0,0.0,0.0,0.0,0.0,0.0,0.0,0.0,0.0,0.0,0.0,0.0,0.0,0.0,0.0,0.0,0.0,0.0,0.0,0.0,0.0,0.0,0.0,0.0,0.0,0.0,0.0,0.0,0.0,0.0,0.0,0.0,0.0,0.0,0.0,0.0,0.0,0.0,0.0,0.0,0.0,0.0,0.0,0.0,0.0,0.0,0.0,0.0,0.0,0.0,0.0,0.0,0.0,0.0,0.0,0.0,0.0,0.0,0.0,0.0,0.0,0.0,0.0,0.0,0.0,0.0,0.0,0.0,0.0,0.0,0.0,0.0,0.0,0.0,0.0,0.0,0.0,0.0,0.0,0.0,0.0,0.0,0.0,0.0,0.0,0.0,0.0,0.0,0.0,0.0,0.0,0.0,0.0,0.0,0.0,0.0,0.0,0.0,0.0,0.0,0.0,0.0,0.0,0.0,0.0,0.0,0.0,0.0,0.0,0.0,0.0,0.0,0.0,0.0,0.0,0.0,0.0,0.0,0.0,0.0,0.0,0.0,0.0,0.0,0.0,0.0,0.0,0.0,0.0,0.0,0.0,0.0,0.0,0.0,0.0,0.0,0.0,0.0,0.0,0.0,0.0,0.0,0.0,0.0,0.0,0.0,0.0,0.0,0.0,0.0,0.0,0.0,0.0,0.0,0.0,0.0,0.0,0.0,0.0,0.0,0.0,0.0,0.0,0.0,0.0,0.0,0.0,0.0,0.0,0.0,0.0,0.0,0.0,0.0,0.0,0.0,0.0,0.0,0.0,0.0,0.0,0.0,0.0,0.0,0.0,0.0,0.0,0.0,0.0,0.0,0.0,0.0,0.0,0.0,0.0,0.0,0.0,0.0,0.0,0.0,0.0,0.0,0.0,0.0,0.0,0.0,0.0,0.0,0.0,0.0,0.0,0.0,0.0,0.0,0.0,0.0,0.0,0.0,0.0,0.0,0.0,0.0,0.0,0.0,0.0,0.0,0.0,0.0,0.0,0.0,0.0,0.0,0.0,0.0,0.0,0.0,0.0,0.0,0.0,0.0,0.0,0.0,0.0,0.0,0.0,0.0,0.0,0.0,0.0,0.0,0.0,0.0,0.0,0.0,0.0,0.0,0.0,0.0,0.0,0.0,0.0,0.0,0.0,0.0,0.0,0.0,0.0,0.0,0.0,0.0,0.0,0.0,0.0,0.0,0.0,0.0,0.0,0.0,0.0,0.0,0.0,0.0,0.0,0.0,0.0,0.0,0.0,0.0,0.0,0.0,0.0,0.0,0.0,0.0,0.0,0.0,0.0,0.0,0.0,0.0,0.0,0.0,0.0,0.0,0.0,0.0,0.0,0.0,0.0,0.0,0.0,0.0,0.0,0.0,0.0,0.0,0.0,0.0,0.0,0.0,0.0,0.0,0.0,0.0,0.0,0.0,0.0,0.0,0.0,0.0,0.0,0.0,0.0,0.0,0.0,0.0,0.0,0.0,0.0,0.0,0.0,0.0,0.0,0.0,0.0,0.0,0.0,0.0,0.0,0.0,0.0,0.0,0.0,0.0,0.0,0.0,0.0,0.0,0.0,0.0,0.0,0.0,0.0,0.0,0.0,0.0,0.0,0.0,0.0,0.0,0.0,0.0,0.0,0.0,0.0,0.0,0.0,0.0,0.0,0.0,0.0,0.0,0.0,0.0,0.0,0.0,0.0,0.0,0.0,0.0,0.0,0.0,0.0,0.0,0.0,0.0,0.0,0.0,0.0,0.0,0.0,0.0,0.0,0.0,0.0,0.0,0.0,0.0,0.0,0.0,0.0,0.0,0.0,0.0,0.0,0.0,0.0,0.0,0.0,0.0,0.0,0.0,0.0,0.0,0.0,0.0,0.0,0.0,0.0,0.0,0.0,0.0,0.0,0.0,0.0,0.0,0.0,0.0,0.0,0.0,0.0,0.0,0.0,0.0,0.0,0.0,0.0,0.0,0.0,0.0,0.0,0.0,0.0,0.0,0.0,0.0,0.0,0.0,0.0,0.0,0.0,0.0,0.0,0.0,0.0,0.0,0.0,0.0,0.0,0.0,0.0,0.0,0.0,0.0,0.0,0.0,0.0,0.0,0.0,0.0,0.0,0.0,0.0,0.0,0.0,0.0,0.0,0.0,0.0,0.0,0.0,0.0,0.0,0.0,0.0,0.0,0.0,0.0,0.0,0.0,0.0,0.0,0.0,0.0,0.0,0.0,0.0,0.0,0.0,0.0,-2.6286,0.0,0.0,0.0,0.0,0.0,0.0,0.0,0.0,0.0,0.0,0.0,0.0,0.0,0.0,0.0,0.0,0.0,0.0,0.0,0.0,0.0,0.0,0.0,0.0,-1.4946,-1.5451,-1.6569,-1.6673,-1.6803,-1.7068,0.0,0.0,0.0,0.0,0.0,-1.6479,-1.6552,-1.6816,-1.7246,-1.7749,-1.8473,-1.9369,-1.89,-1.7828,-1.6257,0.0,0.0,0.0,0.0,0.0,0.0,0.0,0.0,0.0,0.0,0.0,0.0,0.0,0.0,0.0,0.0,0.0,0.0,0.0,0.0,0.0,0.0,0.0,0.0,0.0,0.0,0.0,0.0,0.0,0.0,0.0,0.0,0.0,0.0,0.0,0.0,0.0,0.0,0.0,0.0,0.0,0.0,0.0,0.0,0.0,0.0,0.0,0.0,0.0,0.0,0.0,0.0,0.0,0.0,0.0,0.0,0.0,0.0,0.0,0.0,0.0,0.0,0.0,0.0,0.0,0.0,0.0,0.0,0.0,0.0,0.0,-2.8279,0.0,0.0,0.0,0.0,0.0,0.0,0.0,0.0,0.0,0.0,0.0,0.0,0.0,0.0,0.0,0.0,0.0,0.0,0.0,0.0,0.0,-1.3604,-1.5242,-1.554,-1.614,-1.7376,-1.7376,-1.737,-1.7559,-1.7781,0.0,0.0,0.0,-1.7814,-1.774,-1.7526,-1.7941,-1.9054,-1.9981,-2.142,-2.331,-2.3057,-2.1635,-1.9177,-1.762,0.0,0.0,0.0,0.0,0.0,0.0,0.0,0.0,0.0,0.0,0.0,0.0,0.0,0.0,0.0,0.0,0.0,0.0,0.0,0.0,0.0,0.0,0.0,0.0,0.0,0.0,0.0,0.0,0.0,0.0,0.0,0.0,0.0,0.0,0.0,0.0,0.0,0.0,0.0,0.0,0.0,0.0,0.0,0.0,0.0,0.0,0.0,0.0,0.0,0.0,0.0,0.0,0.0,0.0,0.0,0.0,0.0,0.0,0.0,0.0,0.0,0.0,0.0,-3.6885,-3.7527,-3.8378,-3.7583,-3.7811,-3.8483,-3.4335,-3.3165,-3.403,-3.0643,0.0,0.0,0.0,0.0,0.0,0.0,0.0,0.0,0.0,0.0,0.0,0.0,0.0,0.0,0.0,0.0,0.0,0.0,0.0,-1.4141,-1.5343,-1.597,-1.6883,-1.8464,-1.8044,-1.8106,-1.9037,-1.8671,0.0,0.0,-1.8731,-1.8731,-1.8387,-1.9564,-2.0361,-2.0776,-2.2891,-2.4967,-2.6897,-2.5711,-2.5563,-2.6104,-2.2815,-2.1406,-2.1411,0.0,0.0,0.0,0.0,0.0,0.0,0.0,0.0,0.0,0.0,0.0,0.0,0.0,0.0,0.0,0.0,0.0,0.0,0.0,0.0,0.0,0.0,0.0,0.0,0.0,0.0,0.0,0.0,0.0,0.0,0.0,0.0,0.0,0.0,0.0,0.0,0.0,0.0,0.0,0.0,0.0,-2.495,-2.6359,0.0,0.0,0.0,0.0,0.0,0.0,0.0,0.0,0.0,0.0,0.0,0.0,0.0,-3.7262,-3.929,-4.0606,-4.1203,-4.1065,-4.32,-4.3453,-4.199,-4.1891,-4.1882,-4.1896,-4.0686,0.0,-3.5997,-3.4077,0.0,0.0,0.0,0.0,0.0,0.0,0.0,0.0,0.0,0.0,0.0,0.0,0.0,0.0,0.0,0.0,0.0,0.0,0.0,0.0,0.0,-1.7451,-1.8466,-2.0122,-2.0354,-2.0258,-1.9964,-1.9949,-1.9611,-1.8884,-1.9232,-1.9538,-1.972,-2.0743,-2.239,-2.4756,-2.6887,-2.8577,-2.9774,-2.9179,-2.9209,-2.9717,-2.8125,-2.5879,-2.3172,-2.131,0.0,0.0,0.0,0.0,0.0,0.0,0.0,0.0,0.0,0.0,0.0,0.0,0.0,0.0,0.0,0.0,0.0,0.0,0.0,0.0,0.0,0.0,0.0,0.0,0.0,0.0,0.0,0.0,0.0,0.0,0.0,0.0,0.0,0.0,0.0,0.0,0.0,0.0,0.0,-2.5356,-2.782,-2.9134,-2.9398,-2.9337,0.0,0.0,0.0,0.0,0.0,0.0,0.0,0.0,0.0,-3.9692,-4.0761,-4.2149,-4.3899,-4.4874,-4.5647,-4.6284,-4.6966,-4.6821,-4.5946,-4.5544,-4.5081,-4.465,-4.4369,-4.2985,-4.0709,-3.8117,-3.5916,-3.4022,0.0,0.0,0.0,0.0,-3.1548,-3.2359,0.0,0.0,0.0,0.0,0.0,0.0,0.0,0.0,0.0,0.0,0.0,0.0,-1.7975,-1.9017,-2.0292,-2.2147,-2.2615,-2.2495,-2.1787,-2.1428,-2.0802,-1.9825,-1.9723,-2.0019,-2.0688,-2.2173,-2.4717,-2.8334,-3.0133,-3.145,-3.2258,-3.2079,-3.2079,-3.2258,-3.2079,-2.9731,-2.581,-2.4083,-2.2473,0.0,0.0,0.0,0.0,0.0,0.0,0.0,0.0,0.0,0.0,0.0,0.0,0.0,0.0,0.0,0.0,0.0,0.0,0.0,0.0,0.0,0.0,0.0,0.0,0.0,0.0,0.0,0.0,0.0,0.0,0.0,0.0,0.0,0.0,0.0,0.0,0.0,0.0,-2.8384,-3.083,-3.1959,-3.3138,-3.3472,0.0,0.0,0.0,0.0,0.0,0.0,-3.8739,-4.0611,-4.2339,-4.3833,-4.5187,-4.6449,-4.765,-4.8142,-4.8912,-4.9928,-4.9382,-4.8982,-4.8741,-4.8207,-4.7441,-4.6543,-4.6425,-4.5745,-4.4414,-4.129,-3.9222,-3.7786,-3.5775,-3.4897,-3.4776,-3.4968,-3.5443,-3.6096,0.0,0.0,0.0,0.0,0.0,0.0,0.0,0.0,0.0,0.0,0.0,-1.6745,-1.8645,-2.0292,-2.2226,-2.462,-2.4265,-2.4317,-2.5282,-2.3029,-2.1645,-2.1585,-2.0378,-2.0019,-2.0688,-2.4418,-2.7649,-3.0342,-3.1749,-3.3066,-3.4354,-3.3694,-3.3724,-3.4324,-3.3664,-3.2557,-3.1004,-2.9062,-2.7096,-2.4997,0.0,0.0,0.0,0.0,0.0,0.0,0.0,0.0,0.0,0.0,0.0,0.0,0.0,0.0,0.0,0.0,0.0,0.0,0.0,0.0,0.0,0.0,0.0,0.0,0.0,0.0,0.0,0.0,0.0,0.0,0.0,0.0,0.0,0.0,0.0,0.0,0.0,0.0,0.0,-3.4912,-3.6747,0.0,0.0,0.0,0.0,-3.8689,-4.0274,-4.1725,-4.2928,-4.4458,-4.5957,-4.7311,-4.8696,-4.9774,-5.0482,-5.0513,-5.0574,-5.0636,-5.0593,-5.0245,-4.9553,-4.9508,-4.8711,-4.7347,-4.6823,-4.6146,-4.5167,-4.291,-4.0922,-3.9146,-3.751,-3.6533,-3.6088,-3.6645,-3.7246,-3.7848,0.0,0.0,0.0,0.0,0.0,-1.3446,-1.3691,-1.4045,-1.4612,-1.5461,-1.6932,-1.8657,-2.0677,-2.2953,-2.4971,-2.653,-2.6852,-2.6753,-2.6273,-2.4148,-2.3131,-2.3528,-2.2323,-2.2921,-2.5734,-2.7979,-3.0193,-3.2437,-3.3335,-3.4233,-3.513,-3.4891,-3.4921,-3.513,-3.4891,-3.4292,-3.3305,-3.133,-2.9328,-2.7355,-2.5585,-2.34,0.0,0.0,0.0,0.0,0.0,0.0,0.0,0.0,0.0,0.0,0.0,0.0,0.0,0.0,0.0,0.0,0.0,0.0,0.0,0.0,0.0,0.0,0.0,0.0,0.0,0.0,0.0,0.0,0.0,0.0,0.0,0.0,0.0,0.0,0.0,0.0,0.0,-3.8916,-4.0646,0.0,-4.0439,-4.0777,-4.1479,-4.2548,-4.4011,-4.5364,-4.6637,-4.8071,-4.9097,-4.9589,-5.0082,-5.0667,-5.1344,-5.1344,-5.1559,-5.199,-5.2421,-5.2245,-5.1528,-5.1528,-5.0875,-4.9727,-4.8338,-4.7299,-4.6333,-4.4501,-4.3363,-4.2635,-4.1319,-4.0658,-4.0399,-3.9931,-3.9913,-4.0122,0.0,0.0,0.0,0.0,-1.2771,-1.3632,-1.3775,-1.4262,-1.5034,-1.6272,-1.7997,-2.0133,-2.2723,-2.511,-2.7073,-2.8457,-2.8786,-2.8547,-2.7675,-2.5525,-2.4477,-2.4903,-2.4358,-2.5578,-2.8876,-3.0402,-3.2048,-3.3814,-3.4502,-3.507,-3.5519,-3.5519,-3.5519,-3.5519,-3.5519,-3.525,-3.4741,-3.3425,-3.157,-2.9475,-2.8128,-2.6447,-2.447,0.0,0.0,0.0,0.0,0.0,0.0,0.0,0.0,0.0,0.0,0.0,0.0,0.0,0.0,0.0,0.0,0.0,0.0,0.0,0.0,0.0,0.0,0.0,0.0,0.0,0.0,0.0,0.0,0.0,0.0,0.0,0.0,0.0,0.0,0.0,-4.0043,-4.1454,-4.3383,-4.4233,-4.3371,-4.411,-4.5003,-4.5865,-4.7188,-4.8358,-4.9281,-5.0636,-5.1374,-5.1374,-5.1805,-5.2267,-5.2729,-5.2729,-5.2944,-5.3406,-5.3745,-5.3682,-5.3183,-5.3183,-5.2612,-5.1591,-5.0275,-4.8852,-4.7359,-4.6154,-4.523,-4.4512,-4.3353,-4.2933,-4.2856,-4.2131,-4.1768,-4.1559,0.0,0.0,0.0,-1.177,-1.2848,-1.3632,-1.3775,-1.4289,-1.5228,-1.691,-1.8599,-2.1054,-2.4639,-2.6614,-2.8423,-3.0342,-2.9953,-2.9621,-2.9621,-2.7081,-2.5644,-2.5704,-2.6393,-2.7735,-2.9711,-3.1599,-3.3215,-3.4533,-3.519,-3.5519,-3.5519,-3.5519,-3.5549,-3.5579,-3.5549,-3.5519,-3.5519,-3.5519,-3.4023,-3.1511,-3.0223,-2.9295,-2.8308,0.0,0.0,0.0,0.0,0.0,0.0,0.0,0.0,0.0,0.0,0.0,0.0,0.0,0.0,0.0,0.0,0.0,0.0,0.0,0.0,0.0,0.0,0.0,0.0,0.0,0.0,0.0,0.0,0.0,0.0,0.0,0.0,0.0,-3.5965,-3.9664,-4.2414,-4.2469,-4.4949,-4.6172,-4.4918,-4.7127,-4.8696,-4.8696,-4.9959,-5.0759,-5.0759,-5.2052,-5.276,-5.276,-5.4006,-5.4683,-5.4683,-5.4683,-5.4683,-5.4683,-5.4449,-5.4324,-5.4324,-5.4324,-5.3784,-5.2812,-5.2427,-5.0738,-4.8221,-4.7616,-4.6357,-4.4698,-4.3493,-4.3049,-4.3049,-4.3023,-4.2657,-4.2159,0.0,0.0,-1.1081,-1.1967,-1.2928,-1.3632,-1.3775,-1.4629,-1.5816,-1.7348,-1.9948,-2.2608,-2.5141,-2.7599,-2.9442,-3.0432,-2.9953,-2.9621,-2.9621,-2.7081,-2.6243,-2.7709,-2.9774,-3.1599,-3.3126,-3.3695,-3.4352,-3.522,-3.54,-3.5759,-3.6207,-3.6207,-3.6447,-3.6866,-3.6417,-3.6207,-3.6178,-3.5699,-3.507,-3.4292,-3.2946,-3.145,-2.9774,0.0,0.0,0.0,0.0,0.0,0.0,0.0,0.0,0.0,0.0,0.0,0.0,0.0,0.0,0.0,0.0,0.0,0.0,0.0,0.0,0.0,0.0,0.0,0.0,0.0,0.0,0.0,0.0,0.0,0.0,0.0,0.0,-4.0314,-4.0314,-4.2755,-4.4933,-4.6032,-4.7732,-4.8696,-4.8327,-4.9404,-5.0112,-5.0112,-5.1374,-5.2144,-5.2144,-5.3437,-5.4129,-5.4129,-5.4498,-5.4683,-5.4683,-5.4683,-5.4683,-5.4683,-5.5097,-5.5217,-5.5027,-5.5027,-5.4673,-5.3991,-5.1751,-5.072,-5.0475,-4.7812,-4.6727,-4.6491,-4.4441,-4.3624,-4.3598,-4.318,-4.2918,-4.2709,0.0,-1.03,-1.1327,-1.2038,-1.2947,-1.3632,-1.3775,-1.4786,-1.6121,-1.788,-2.0606,-2.3317,-2.5729,-2.7919,-2.9415,-3.0073,-2.9774,-2.9382,-2.8813,-2.756,-2.7739,-2.9744,-3.1809,-3.3425,-3.4474,-3.5073,-3.5552,-3.5908,-3.6178,-3.6507,-3.6866,-3.6866,-3.7075,-3.7404,-3.7015,-3.6866,-3.6836,-3.6178,-3.5908,-3.5818,-3.4771,-3.3634,-3.2407,-3.0494,-2.9505,-2.8906,-2.7709,-2.7171,-2.6956,-2.6572,0.0,0.0,0.0,0.0,0.0,0.0,0.0,0.0,0.0,0.0,0.0,0.0,0.0,0.0,0.0,0.0,0.0,0.0,0.0,0.0,0.0,0.0,0.0,0.0,-4.0764,-4.3425,-4.4391,-4.5795,-4.72,-4.8358,-4.9435,-5.0112,-5.0112,-5.0974,-5.1528,-5.1528,-5.279,-5.356,-5.356,-5.4545,-5.513,-5.513,-5.5438,-5.5544,-5.5402,-5.5402,-5.5354,-5.5258,-5.5529,-5.5567,-5.542,-5.542,-5.5224,-5.473,-5.3149,-5.1982,-5.1132,-4.9117,-4.7809,0.0,0.0,0.0,0.0,0.0,-4.3389,-4.331,0.0,-1.0522,-1.159,-1.2094,-1.2931,-1.3564,-1.3758,-1.4768,-1.6254,-1.8359,-2.0841,-2.3409,-2.6128,-2.7714,-2.8846,-2.9442,-2.9562,-2.9142,-2.8004,-2.8547,-2.9747,-3.163,-3.2946,-3.3933,-3.4713,-3.5911,-3.6507,-3.6596,-3.7135,-3.7434,-3.7524,-3.7524,-3.7554,-3.7644,-3.7554,-3.7524,-3.7494,-3.6866,-3.6596,-3.6537,-3.5878,-3.5579,-3.525,-3.2766,-3.2198,-3.2497,-3.0672,-2.9322,-2.8364,-2.8274,0.0,0.0,0.0,0.0,0.0,0.0,0.0,0.0,0.0,0.0,0.0,0.0,0.0,0.0,0.0,0.0,0.0,0.0,0.0,0.0,0.0,0.0,0.0,0.0,-4.3313,-4.5746,-4.7813,-4.8588,-4.9116,-4.9701,-5.0389,-5.082,-5.0913,-5.2082,-5.2852,-5.2944,-5.4114,-5.4806,-5.4806,0.0,0.0,0.0,0.0,-5.6818,-5.6635,-5.6635,-5.6488,-5.6191,-5.5942,-5.5842,-5.5792,-5.5732,-5.5551,-5.5299,-5.536,-5.3745,-5.1073,-5.0941,-4.9282,-4.6724,-4.5927,-4.5242,-4.4748,-4.4173,-4.3964,-4.3885,0.0,-1.0736,-1.1308,-1.254,-1.2874,-1.3138,-1.3708,-1.4732,-1.6064,-1.7883,-2.0618,-2.3125,-2.4995,-2.7242,-2.8637,-2.8786,-2.9292,-2.9711,-2.9924,0.0,-3.157,-3.3066,-3.3873,-3.4893,-3.6088,-3.6357,-3.6716,-3.7225,-3.7345,-3.7674,-3.8212,-3.8212,-3.8512,-3.902,-3.8452,-3.8212,-3.8153,-3.7494,-3.7225,-3.7165,-3.6537,-3.5968,-3.54,-3.4322,-3.3993,-3.3963,-3.3066,-3.2946,-3.3096,-3.2527,-3.148,-3.0225,-2.9567,0.0,0.0,0.0,0.0,0.0,0.0,0.0,0.0,0.0,0.0,0.0,0.0,0.0,0.0,0.0,0.0,0.0,0.0,0.0,0.0,-4.3219,-4.5541,-4.7468,-4.8632,-4.9957,-5.0608,-5.0253,-5.0936,-5.1713,-5.2267,-5.3067,-5.3745,-5.4252,-5.5068,-5.5499,-5.5499,-5.6176,-5.684,-5.7346,-5.7549,-5.774,-5.8043,-5.8043,-5.7841,-5.7506,0.0,0.0,-5.7097,-5.6636,-5.6293,-5.5957,-5.4458,-5.346,-5.2843,-5.1884,-5.0353,-4.8429,-4.6391,-4.5558,-4.532,-4.4774,-4.4565,-4.4487,-1.0729,-1.101,-1.1454,-1.2401,-1.2703,-1.3099,-1.4012,-1.486,-1.6102,-1.804,-2.0193,-2.2101,-2.3635,-2.5283,-2.6209,-2.6099,-2.7021,-2.8427,0.0,-3.1122,-3.2228,-3.3903,-3.4622,-3.5459,-3.6477,-3.6776,-3.7255,-3.7913,-3.8242,-3.8571,-3.8901,-3.8901,-3.908,-3.9373,-3.905,-3.8901,-3.8871,-3.8182,-3.7913,-3.7853,-3.7195,-3.6567,-3.5938,-3.525,-3.4981,-3.4951,-3.4622,-3.4502,-3.4444,-3.4114,-3.3335,-3.2407,-3.1719,-3.0372,-2.8667,0.0,0.0,0.0,0.0,0.0,0.0,0.0,0.0,0.0,0.0,0.0,0.0,0.0,0.0,-3.7973,0.0,0.0,-4.3908,-4.5668,-4.7362,-4.8771,-4.97,-5.0425,-5.0952,-5.1002,-5.1994,-5.2852,-5.3191,-5.4114,-5.4853,-5.5191,-5.5838,-5.6392,-5.67,-5.7118,-5.7641,-5.8288,-5.827,-5.8324,-5.841,-5.841,-5.8156,-5.7747,-5.7747,-5.7592,-5.7303,-5.6972,-5.6801,-5.6585,-5.533,-5.4433,-5.3743,-5.1677,-4.999,-4.8509,-4.7039,-4.6077,-4.5529,-4.5297,-4.4929,-4.4696,-1.0828,-1.1174,-1.1564,-1.209,-1.2526,-1.3214,-1.4336,-1.5064,-1.6196,-1.8087,-1.9596,-2.0963,-2.209,-2.3127,-2.3795,-2.3955,-2.5226,0.0,0.0,-3.1421,-3.2736,-3.4592,-3.534,-3.5998,-3.6656,-3.7285,-3.7913,-3.8571,-3.914,-3.9373,-3.9373,-3.9373,-3.9373,-3.9373,-3.9373,-3.9373,-3.9343,-3.8811,-3.8571,-3.8542,-3.7853,-3.7225,-3.6596,-3.5938,-3.5609,-3.5519,-3.5519,-3.507,-3.4533,-3.4653,-3.4233,-3.3604,-3.3215,-3.2617,-3.1629,-2.9235,-2.8727,0.0,0.0,0.0,0.0,0.0,0.0,0.0,0.0,0.0,-3.6028,-3.8931,-4.0187,-4.1376,-4.3469,-4.4975,-4.6304,-4.7705,-4.8819,-4.9734,-5.0472,-5.0744,-5.1107,-5.1765,-5.2885,-5.3684,-5.3853,-5.5007,-5.5807,-5.6084,-5.6686,-5.7303,-5.798,-5.7962,-5.827,-5.8947,-5.8927,-5.8837,-5.8706,-5.8655,-5.8347,-5.788,-5.788,-5.7775,-5.7483,-5.7363,-5.7304,-5.7244,-5.6258,-5.5433,-5.4526,-5.1488,-4.9702,-4.8789,-4.8109,-4.7035,-4.595,-4.582,-4.5401,-4.485,0.0,-1.0949,-1.1231,-1.2054,-1.2593,-1.3259,-1.4351,-1.5325,-1.6287,-1.7218,-1.8827,-2.0075,-2.0507,-2.2083,-2.3701,-2.5239,-2.6602,0.0,-3.1212,-3.2587,-3.3903,-3.534,-3.6028,-3.6656,-3.7285,-3.7943,-3.8631,-3.932,-3.9343,-3.9373,-3.9373,-3.9373,-3.9373,-3.9373,-3.9373,-3.9373,-3.9373,-3.9313,-3.932,-3.926,-3.8571,-3.7883,-3.7225,-3.6596,-3.5998,-3.5519,-3.5519,-3.507,-3.4593,-3.519,-3.4921,-3.4503,-3.5011,-3.4711,-3.3844,-3.2377,0.0,-3.0223,-2.9924,-3.0462,-3.178,-3.4831,-3.534,-3.6447,0.0,0.0,-4.1841,-4.3329,-4.4676,-4.5592,-4.5891,-4.707,-4.8251,-4.897,-4.9643,-5.0198,-5.0532,-5.1303,-5.1972,-5.2184,-5.2902,-5.3699,-5.4498,-5.5253,-5.6207,-5.7487,-5.7672,-5.8011,-5.8639,-5.867,-5.8978,-5.9655,-5.9481,-5.95,-5.9826,-5.9531,-5.9212,-5.8943,-5.8943,-5.8943,-5.886,-5.8291,-5.8022,-5.7879,-5.5566,-5.5142,-5.5768,-5.2769,-5.1401,-5.1182,-5.0072,-4.8622,-4.7017,-4.6578,-4.6029,-4.5477,0.0,-1.091,-1.108,-1.1689,-1.2415,-1.3331,-1.4619,-1.5472,-1.6303,-1.7368,-1.8206,-1.8838,-1.9215,-2.0128,-2.1448,-2.3178,-2.5226,-2.756,-3.0223,-3.2347,-3.4113,-3.5459,-3.6118,-3.6776,-3.7404,-3.8063,-3.8721,-3.9373,-3.9373,-3.9373,-3.9373,-3.9373,-3.9373,-3.9373,-3.9373,-3.9373,-3.9373,-3.9373,-3.9373,-3.9409,-3.911,-3.8362,-3.7375,-3.7135,-3.6148,-3.4921,-3.4921,-3.4743,0.0,0.0,-3.4412,-3.4563,-3.4831,-3.4442,-3.3814,-3.3245,-3.2946,0.0,-3.4203,-3.531,-3.6413,0.0,-3.914,-4.0726,-4.314,-4.3629,-4.3868,-4.5214,-4.6531,-4.7459,-4.7459,-4.8536,-4.9523,0.0,-5.0391,-5.0903,-5.1134,-5.1514,-5.1774,-5.1711,-5.2536,-5.3544,-5.4621,-5.5173,-5.6028,-5.7407,-5.735,-5.7809,-5.9113,-5.894,-5.9246,-6.0105,-5.9875,-5.9818,-6.0016,-5.988,-5.9667,-5.9315,-5.9315,-5.9261,-5.9099,-5.883,-5.8501,-5.8028,-5.6591,-5.5653,-5.4978,-5.2662,-5.1292,-5.0518,-4.9388,-4.8479,-4.7754,-4.7179,-4.663,-4.6081,0.0,-1.091,-1.1065,-1.1608,-1.2486,-1.3509,-1.4673,-1.5593,-1.6468,-1.7374,-1.7565,-1.7771,-1.8242,-1.875,-1.9758,-2.1396,-2.3843,-2.6482,-2.9172,-3.1779,-3.3814,-3.516,-3.6028,-3.6776,-3.7404,-3.8063,-3.8721,-3.9373,-3.9373,-3.9373,-3.9373,-3.9373,-3.9373,-3.9373,-3.9373,-3.9373,-3.9373,-3.9373,-3.9373,-3.9373,-3.92,-3.8452,-3.7375,-3.7015,-3.5759,-3.4234,-3.4234,-3.3963,0.0,0.0,-3.3125,-3.3664,-3.3664,-3.3574,-3.3574,-3.3933,-3.4622,-3.5609,-3.7015,0.0,0.0,-4.033,-4.2222,-4.3958,-4.4097,-4.4676,-4.5424,-4.6381,-4.7369,-4.8057,-4.8267,-4.9224,-5.0092,-5.0405,-5.1096,-5.164,-5.175,-5.1786,-5.1667,-5.1409,-5.2124,-5.3085,-5.4221,-5.4908,-5.5975,-5.7484,-5.7475,-5.8105,-5.9582,-5.9436,-5.9597,-6.0272,-6.0039,-5.988,-5.988,-5.9773,-5.9613,-5.9369,-5.9369,-5.9261,-5.9099,-5.9099,-5.886,-5.8351,-5.7663,-5.6555,-5.5001,-5.3564,-5.1952,-5.0294,-4.9502,-4.8784,-4.8146,-4.7728,-4.7205,-4.6656,0.0,0.0,-1.1169,-1.2023,-1.3006,-1.3873,-1.4435,-1.5732,-1.6735,-1.6884,-1.6931,-1.7141,-1.7693,-1.8539,-1.9643,-2.1003,-2.3274,-2.577,-2.8457,-3.1091,-3.3125,-3.4474,-3.5821,-3.6776,-3.7404,-3.8063,-3.8721,-3.9373,-3.9373,-3.9373,-3.9373,-3.9373,-3.9373,-3.9373,-3.9373,-3.9373,-3.9373,-3.9373,-3.9373,-3.9313,-3.8691,-3.8033,-3.7285,-3.6028,-3.4711,-3.3514,-3.3514,0.0,0.0,0.0,-3.1032,-3.16,-3.16,-3.2467,0.0,-3.507,-3.6327,0.0,0.0,0.0,-4.0816,-4.2692,-4.4227,-4.5394,-4.6082,-4.6741,-4.7219,-4.7279,-4.7309,-4.7519,-4.8177,-4.888,-4.9703,-5.099,-5.1974,-5.2442,-5.2234,-5.2274,-5.2124,-5.1635,-5.1666,-5.2133,0.0,-5.4568,-5.6237,-5.8206,-5.8612,-5.9246,-6.0337,-6.0346,-6.0272,-6.0016,-5.972,-5.9529,-5.9529,-5.9261,-5.9099,-5.9099,-5.9099,-5.9099,-5.9099,-5.9099,-5.9099,-5.9039,-5.8381,-5.764,-5.6952,-5.6324,-5.4311,-5.162,-5.162,-5.021,-4.8172,-4.8172,-4.7806,-4.7252,0.0,0.0,0.0,-1.2152,-1.3316,-1.4222,-1.4413,-1.5666,-1.6607,-1.6761,-1.6846,0.0,0.0,0.0,0.0,0.0,-2.2293,-2.4621,-2.7111,-3.0135,-3.2407,-3.3754,-3.5549,-3.6596,-3.6806,-3.7404,-3.7853,-3.8093,-3.8512,-3.8751,-3.8751,-3.92,-3.9373,-3.9373,-3.9373,-3.9373,-3.9379,-3.8931,-3.899,-3.9284,-3.8182,-3.7614,-3.7315,-3.6477,-3.4771,-3.2736,0.0,0.0,0.0,-2.9475,-2.9684,-3.0402,-3.1241,0.0,0.0,-3.3634,-3.6028,-3.8272,-3.914,0.0,-4.3269,-4.4347,-4.5633,-4.6681,-4.692,-4.716,-4.7309,-4.7309,-4.7309,-4.7489,-4.8177,-4.8476,-4.9134,-5.0591,-5.1435,-5.2148,-5.2835,-5.3249,-5.316,-5.2414,-5.2322,0.0,0.0,0.0,0.0,-5.7203,-5.7213,-5.7868,-5.9705,-5.9636,-5.9583,-5.9636,-5.9369,-5.9207,-5.9207,-5.9153,-5.9099,-5.9099,-5.9099,-5.9099,-5.9099,-5.9099,-5.9099,-5.9069,-5.8411,-5.7992,-5.7587,-5.4914,-5.3257,-5.2126,-5.0148,-4.8899,-4.8172,-4.8172,-4.8068,-4.7832,0.0,0.0,0.0,0.0,0.0,0.0,0.0,0.0,0.0,0.0,0.0,0.0,0.0,0.0,0.0,0.0,0.0,0.0,-2.5693,0.0,-3.1004,-3.2377,-3.3903,-3.4951,-3.54,-3.5579,-3.5998,-3.6716,-3.7135,-3.7584,-3.8033,-3.8482,-3.8691,-3.8691,-3.8691,-3.8691,-3.8661,-3.8242,-3.8302,-3.8566,-3.7255,-3.6596,-3.6237,-3.513,-3.3365,0.0,0.0,0.0,0.0,-2.7739,-2.8278,0.0,0.0,0.0,-3.2946,-3.4442,-3.6896,-3.9499,-4.1324,-4.303,-4.4586,-4.5723,-4.6651,-4.7309,-4.7309,-4.7309,-4.7249,-4.701,-4.677,-4.6651,-4.683,-4.686,-4.7502,-4.9479,-5.0592,-5.1725,-5.3078,-5.3672,-5.3689,-5.2977,-5.2758,-5.2876,0.0,0.0,0.0,-5.6617,-5.6838,-5.7549,-5.9108,-5.9195,-5.9261,-5.9369,-5.9207,-5.9099,-5.9099,-5.9099,-5.9099,-5.9099,-5.9099,-5.9099,-5.9099,-5.9099,-5.9099,-5.9069,-5.865,-5.8053,-5.7326,-5.5387,-5.3605,-5.1848,-5.0417,-4.9143,-4.8172,-4.8172,-4.8172,-4.812,0.0,0.0,0.0,0.0,0.0,0.0,0.0,0.0,0.0,0.0,0.0,0.0,0.0,0.0,0.0,0.0,0.0,0.0,0.0,0.0,0.0,-3.0285,-3.1062,-3.2019,-3.3305,-3.2766,-3.3395,-3.531,-3.537,-3.6028,-3.7195,-3.7285,-3.7315,-3.7315,-3.7315,-3.7315,-3.7315,-3.7285,-3.7255,-3.7135,-3.5878,-3.4951,-3.4204,-3.2228,0.0,0.0,0.0,0.0,0.0,0.0,0.0,0.0,0.0,0.0,0.0,-3.7345,-3.896,-4.1145,-4.3688,-4.4436,-4.4975,-4.689,-4.7369,-4.7339,-4.7309,-4.7249,-4.701,-4.6352,-4.5633,-4.4915,0.0,0.0,-4.5125,-4.7802,-4.9599,-5.1285,-5.3002,-5.37,-5.3875,0.0,0.0,0.0,0.0,0.0,0.0,-5.6485,0.0,-5.8152,-5.8595,-5.9145,-5.9369,-5.9099,-5.9099,-5.9099,-5.9099,-5.9099,-5.9099,-5.9099,-5.9099,-5.9099,-5.9099,-5.9099,-5.9099,-5.9099,-5.9099,-5.806,-5.6511,-5.7522,-5.5149,-5.105,-5.2128,-5.0728,-4.8172,-4.8172,-4.8172,-4.8172,0.0,0.0,0.0,0.0,0.0,0.0,0.0,0.0,0.0,0.0,0.0,0.0,0.0,0.0,0.0,0.0,0.0,0.0,0.0,0.0,0.0,0.0,0.0,-3.0941,-3.127,-3.157,-3.2019,-3.2527,-3.3514,-3.4173,-3.4532,-3.5519,-3.5998,-3.5998,-3.5998,-3.5998,-3.5968,-3.5429,-3.522,-3.51,0.0,-3.3185,-3.2916,0.0,0.0,0.0,0.0,0.0,0.0,0.0,0.0,0.0,0.0,-3.5729,-3.8691,0.0,0.0,-4.3569,-4.4736,-4.6142,-4.7399,-4.7908,-4.8027,-4.7908,-4.7429,-4.6531,-4.5633,-4.4975,-4.3509,-4.2312,0.0,0.0,0.0,-4.6768,-4.9656,0.0,-5.3572,-5.5005,0.0,-5.5277,0.0,-5.5461,-5.5842,-5.5722,0.0,0.0,-5.6946,-5.754,-5.8877,-5.9117,-5.9153,-5.9099,-5.9099,-5.9099,-5.9099,-5.9099,-5.9099,-5.9099,-5.9099,-5.9099,-5.9099,-5.9099,-5.9099,-5.9099,-5.9099,-5.8847,-5.8228,-5.6239,-5.446,-5.2768,-5.081,-4.9255,-4.8172,-4.8172,-4.8172,-4.8172,0.0,0.0,0.0,0.0,0.0,0.0,0.0,0.0,0.0,0.0,0.0,0.0,0.0,0.0,0.0,0.0,0.0,0.0,0.0,0.0,0.0,0.0,-2.7642,-2.8435,-2.8786,-2.9175,-2.9505,0.0,0.0,0.0,-3.2198,-3.3275,-3.3723,-3.3723,-3.3723,-3.3723,-3.3693,-3.3335,0.0,0.0,0.0,0.0,0.0,0.0,0.0,0.0,0.0,0.0,0.0,0.0,0.0,-3.5552,-3.6357,-3.8512,-4.0816,-4.1414,0.0,-4.5394,-4.6352,-4.7638,-4.87,-4.8356,-4.8297,-4.7878,-4.6352,-4.5394,-4.4347,-4.2521,-4.1294,0.0,-3.9409,0.0,0.0,0.0,0.0,0.0,-5.3368,-5.526,-5.6444,0.0,-5.6552,0.0,-5.6895,-5.6844,-5.7011,0.0,-5.7423,-5.7671,-5.862,-5.8949,-5.9099,-5.9099,-5.9099,-5.9099,-5.9099,-5.9099,-5.9099,-5.9099,-5.9099,-5.9099,-5.9099,-5.9099,-5.9099,-5.9099,-5.9099,-5.8798,-5.8191,-5.7006,-5.5168,-5.3093,-5.1649,-5.0094,-4.8538,-4.8277,-4.8172,-4.8172,0.0,0.0,0.0,0.0,0.0,0.0,0.0,0.0,0.0,0.0,0.0,0.0,0.0,0.0,0.0,0.0,0.0,0.0,0.0,0.0,0.0,0.0,-2.5171,-2.5592,-2.6284,-2.6422,-2.6722,0.0,0.0,0.0,0.0,0.0,0.0,0.0,0.0,0.0,0.0,0.0,0.0,0.0,0.0,0.0,0.0,0.0,0.0,0.0,0.0,0.0,0.0,0.0,-3.6387,-3.7464,-3.9349,-4.1294,-4.3159,-4.4347,-4.5603,-4.686,-4.8177,-4.8955,-4.9224,-4.8566,-4.8356,-4.7578,-4.4915,-4.4047,-4.291,-3.9798,0.0,-3.8242,-3.6537,-3.8337,-4.0583,-4.2261,0.0,-5.0018,-5.2833,-5.496,-5.6406,-5.7034,-5.7244,-5.7468,-5.7707,-5.7707,-5.7948,-5.852,-5.8428,-5.8351,-5.8261,-5.889,-5.9249,-5.9249,-5.9159,-5.9099,-5.9099,-5.9099,-5.9099,-5.9099,-5.9099,-5.9099,-5.9099,-5.9099,-5.9099,-5.9099,-5.9099,-5.844,-5.7496,-5.844,-5.6559,-5.3151,-5.3438,-5.1853,-4.9245,-4.8544,-4.825,-4.8172,0.0,0.0,0.0,0.0,0.0,0.0,0.0,0.0,0.0,0.0,-1.7077,-1.65,0.0,0.0,0.0,0.0,0.0,0.0,0.0,0.0,0.0,0.0,-2.4007,-2.466,-2.471,0.0,0.0,0.0,0.0,0.0,0.0,0.0,0.0,0.0,0.0,0.0,0.0,0.0,0.0,0.0,0.0,0.0,0.0,0.0,0.0,0.0,0.0,0.0,0.0,0.0,-3.8631,-4.0786,-4.2252,-4.4047,-4.5783,-4.6561,-4.7339,-4.8237,-4.9508,-4.9927,-4.9912,-4.9254,-4.8686,-4.7578,-4.4915,-4.2641,0.0,0.0,-3.6477,-3.5252,-3.4923,-3.6703,-3.9324,-4.2611,0.0,0.0,0.0,0.0,-5.6406,0.0,0.0,0.0,0.0,0.0,0.0,0.0,-5.9483,-5.9518,-5.8949,-5.9548,-5.9907,-5.9907,-5.9398,-5.9099,-5.9099,-5.9099,-5.9099,-5.9099,-5.9099,-5.9099,-5.9099,-5.9099,-5.9099,-5.9099,-5.9099,0.0,-5.8689,-5.786,-5.6839,-5.5534,-5.3536,-5.1918,-5.0478,-4.9344,-4.8616,-4.8172,0.0,0.0,0.0,0.0,0.0,0.0,0.0,0.0,-1.7098,-1.8336,-1.861,-1.8455,-1.7854,-1.7551,0.0,0.0,0.0,0.0,0.0,0.0,0.0,0.0,0.0,0.0,0.0,0.0,0.0,0.0,0.0,0.0,0.0,0.0,0.0,0.0,0.0,0.0,0.0,0.0,0.0,0.0,0.0,0.0,0.0,0.0,0.0,0.0,0.0,0.0,0.0,0.0,-3.7823,-4.1294,-4.3629,-4.5514,-4.689,-4.7219,-4.8027,-4.8925,-4.9553,-5.0242,-5.0511,-4.9569,-4.8506,-4.689,-4.3539,0.0,0.0,0.0,-3.4622,-3.3754,-3.3066,0.0,0.0,0.0,0.0,0.0,0.0,0.0,0.0,0.0,0.0,0.0,0.0,0.0,0.0,0.0,-6.0236,-6.0326,-5.9668,-6.0266,-6.0446,-6.0086,-5.9787,-5.9458,-5.9099,-5.9099,-5.9099,-5.9099,-5.9099,-5.9099,-5.9099,-5.9099,-5.9099,-5.9099,-5.9099,-5.9099,-5.9045,-5.844,-5.7295,-5.5738,-5.4165,-5.228,-5.0292,-4.9403,-4.8695,-4.8172,0.0,0.0,0.0,0.0,0.0,0.0,0.0,-1.633,-1.7419,-1.9122,-2.0074,-2.0378,-1.9759,-1.8631,-1.8028,0.0,0.0,0.0,0.0,0.0,0.0,0.0,0.0,0.0,0.0,0.0,0.0,0.0,0.0,0.0,0.0,0.0,0.0,0.0,0.0,0.0,0.0,0.0,0.0,0.0,0.0,0.0,0.0,0.0,0.0,0.0,0.0,0.0,0.0,0.0,-3.6237,-3.9888,-4.306,-4.5244,-4.6711,-4.701,-4.8027,-4.9179,-4.9404,-5.0331,-5.09,-4.9629,-4.8177,-4.6082,-4.2252,-3.9619,0.0,0.0,-3.3275,-3.2796,-3.1869,0.0,-3.6626,0.0,0.0,0.0,0.0,0.0,0.0,0.0,0.0,0.0,0.0,0.0,0.0,0.0,-6.0954,-6.1074,-6.0535,-6.0894,-6.0864,-6.0326,-6.0146,-5.9757,-5.9129,-5.9099,-5.9099,-5.9099,-5.9099,-5.9099,-5.9099,-5.9099,-5.9099,-5.9099,-5.9099,-5.9099,-5.9099,-5.8798,-5.7526,-5.5676,-5.4648,-5.2638,-5.024,-4.952,-4.8799,-4.8172,0.0,0.0,0.0,0.0,0.0,0.0,0.0,-1.6514,-1.8098,-2.0723,-2.0643,-2.0778,-2.1884,-2.0564,-1.9409,0.0,0.0,0.0,0.0,0.0,0.0,0.0,0.0,0.0,0.0,0.0,0.0,0.0,0.0,0.0,0.0,0.0,0.0,0.0,0.0,0.0,0.0,0.0,0.0,0.0,0.0,0.0,0.0,0.0,0.0,0.0,0.0,0.0,0.0,0.0,0.0,-3.6417,-3.911,-4.2102,-4.4825,-4.601,0.0,0.0,-4.9777,-5.0614,-5.09,-4.9629,-4.7818,-4.5544,-4.2132,0.0,0.0,-3.3933,-3.2527,-3.1839,-3.2318,-3.2706,0.0,0.0,0.0,-4.2491,0.0,0.0,0.0,0.0,0.0,0.0,0.0,0.0,0.0,-6.0984,-6.1642,-6.1972,-6.1912,-6.1403,-6.1074,-6.1014,-6.0416,-5.9757,-5.9129,-5.9099,-5.9099,-5.9099,-5.9099,-5.9099,-5.9099,-5.9099,-5.9099,-5.9099,-5.9099,-5.9099,0.0,-5.786,-5.7272,-5.6792,-5.4477,-5.2783,-5.1485,-5.03,-4.9139,-4.8172,0.0,0.0,0.0,0.0,0.0,0.0,-1.5479,-1.6132,-1.7521,-2.0367,-2.0932,-2.1531,-2.266,-2.1619,-2.0338,0.0,0.0,0.0,0.0,0.0,0.0,0.0,0.0,0.0,0.0,0.0,0.0,0.0,0.0,0.0,0.0,0.0,0.0,0.0,0.0,0.0,0.0,0.0,0.0,0.0,0.0,0.0,0.0,0.0,0.0,0.0,0.0,0.0,0.0,0.0,0.0,0.0,-3.519,-3.7524,0.0,0.0,-4.5753,-4.686,-4.8596,-4.9553,-4.9823,-4.894,-4.689,-4.4466,-4.1953,0.0,-3.5429,-3.3814,-3.2407,-3.16,-3.1839,-3.2228,-3.3275,-3.5669,-3.651,-3.8691,-4.4028,0.0,0.0,0.0,0.0,0.0,0.0,0.0,-6.1164,-6.2211,-6.254,-6.251,-6.2121,-6.1852,-6.1343,-6.0505,-6.0236,-5.9757,-5.9129,-5.9099,-5.9099,-5.9099,-5.9099,-5.9099,-5.9099,-5.9099,-5.9099,-5.9099,-5.9099,-5.9099,0.0,-5.7719,-5.6736,-5.5964,-5.4204,-5.2299,-5.0592,-5.0052,-4.9165,-4.8172,0.0,0.0,0.0,0.0,0.0,-1.4035,-1.5297,-1.5983,-1.7283,-1.9884,-2.0968,-2.1907,-2.2985,-2.1995,-2.0765,-1.961,0.0,0.0,0.0,0.0,0.0,0.0,0.0,0.0,0.0,0.0,0.0,0.0,0.0,0.0,0.0,0.0,0.0,0.0,0.0,0.0,0.0,0.0,0.0,0.0,0.0,0.0,0.0,0.0,0.0,0.0,0.0,0.0,0.0,0.0,0.0,0.0,0.0,0.0,0.0,0.0,-4.3868,-4.5394,-4.7219,-4.8476,-4.9149,-4.8446,-4.6142,-4.3569,0.0,-3.8182,-3.4891,-3.3724,-3.2407,-3.1511,-3.1511,-3.2049,-3.2886,-3.4024,-3.4863,-3.7019,-4.1752,-4.3988,0.0,0.0,0.0,0.0,0.0,-6.0356,-6.1672,-6.2989,-6.272,-6.2301,-6.1822,-6.1613,-6.1074,-6.0116,-6.0086,-5.9757,-5.9129,-5.9099,-5.9099,-5.9099,-5.9099,-5.9099,-5.9099,-5.9099,-5.9099,-5.9099,-5.9099,-5.9099,0.0,-5.7719,-5.648,-5.5295,-5.3964,-5.2024,-4.9897,-4.9897,-4.9165,-4.8172,0.0,0.0,0.0,0.0,0.0,0.0,0.0,-1.625,-1.7823,-1.9581,-2.0635,-2.1698,-2.2955,-2.1669,-2.0691,-2.0666,0.0,0.0,0.0,0.0,0.0,0.0,0.0,0.0,0.0,0.0,-2.7084,-2.7695,-2.7695,0.0,0.0,0.0,0.0,0.0,0.0,0.0,0.0,0.0,0.0,0.0,0.0,0.0,0.0,0.0,0.0,0.0,0.0,0.0,0.0,0.0,0.0,0.0,0.0,0.0,0.0,0.0,-4.1773,-4.4616,-4.592,-4.7788,-4.9149,-4.8446,-4.5783,-4.2961,0.0,-3.7858,-3.4324,-3.3634,-3.2407,-3.1511,-3.1511,-3.2049,-3.2736,-3.3395,-3.5699,-3.8542,-4.1931,-4.5185,0.0,0.0,0.0,0.0,0.0,-5.9548,-6.1672,-6.2989,-6.1882,0.0,-6.1134,-6.0475,-6.0086,-6.0086,-6.0086,-5.9757,-5.9129,-5.9099,-5.9099,-5.9099,-5.9099,-5.9099,-5.9099,-5.9099,-5.9099,-5.9099,-5.9099,-5.9099,0.0,-5.7719,-5.648,-5.5295,-5.3964,-5.2024,-4.9897,-4.9897,-4.9165,-4.8172,0.0,0.0,0.0,0.0,0.0,0.0,0.0,-1.4942,-1.6092,-1.84,-1.899,-2.0092,-2.231,-2.1418,-2.0842,-2.1219,0.0,0.0,0.0,0.0,0.0,0.0,0.0,0.0,0.0,0.0,-2.6918,-2.8395,-2.9261,-3.0016,-3.0686,-3.022,0.0,0.0,0.0,0.0,0.0,0.0,0.0,0.0,0.0,0.0,0.0,0.0,0.0,0.0,0.0,0.0,0.0,0.0,0.0,0.0,0.0,0.0,0.0,0.0,0.0,0.0,-4.1773,-4.306,-4.3758,-4.306,-4.1773,-4.027,-3.896,-3.6507,-3.4204,-3.3066,-3.2108,-3.1511,-3.1511,-3.2049,-3.3185,-3.522,-3.6596,0.0,0.0,0.0,0.0,0.0,0.0,0.0,0.0,0.0,-6.1283,-6.1702,-6.1343,-6.0894,-6.0446,-6.0206,-5.9877,-5.9428,-5.9428,-5.9308,-5.9099,-5.9099,-5.9099,-5.9099,-5.9099,-5.9099,-5.9099,-5.9099,-5.9099,-5.9099,-5.9099,-5.9099,-5.8991,-5.7719,-5.648,-5.5239,-5.3526,-5.165,-4.9845,-4.9479,-4.8852,-4.8172,0.0,0.0,0.0,0.0,0.0,0.0,0.0,-1.4699,-1.5605,-1.7365,-1.799,-1.9154,-2.144,-2.0715,-2.0514,-2.1694,0.0,0.0,0.0,0.0,0.0,0.0,0.0,0.0,0.0,-2.5573,-2.6827,-2.8695,-2.972,-3.08,-3.1843,-3.1496,-3.0829,-2.9958,0.0,0.0,0.0,0.0,0.0,0.0,0.0,0.0,0.0,0.0,0.0,0.0,0.0,0.0,0.0,0.0,0.0,0.0,0.0,0.0,0.0,0.0,-3.3185,0.0,0.0,-4.0307,-4.0965,-4.0816,-3.9709,-3.8452,-3.7584,-3.5489,-3.3514,-3.2677,-3.1959,-3.1511,-3.1511,-3.2228,-3.3425,-3.51,-3.6507,0.0,0.0,0.0,0.0,0.0,0.0,0.0,0.0,-5.9817,-6.0565,-6.1074,-6.0655,-6.0266,-6.0086,-5.9847,-5.9518,-5.9129,-5.9099,-5.9099,-5.9099,-5.9099,-5.9099,-5.9099,-5.9099,-5.9099,-5.9099,-5.9099,-5.9099,-5.9099,-5.9099,-5.9099,0.0,-5.8276,-5.6934,-5.5297,-5.4086,-5.2095,-4.9845,-4.9505,-4.8878,-4.8172,0.0,0.0,0.0,0.0,0.0,0.0,0.0,0.0,0.0,-1.6547,-1.7524,-1.8807,-2.0415,-1.9685,-1.9885,-2.202,0.0,0.0,0.0,0.0,0.0,0.0,0.0,0.0,-2.4824,-2.5605,-2.6891,-2.8717,-2.946,-3.077,-3.2626,-3.2568,-3.1903,-3.0743,-3.0656,0.0,0.0,0.0,0.0,0.0,0.0,0.0,0.0,0.0,0.0,0.0,0.0,0.0,0.0,0.0,0.0,0.0,0.0,0.0,0.0,0.0,0.0,0.0,0.0,-3.8841,0.0,-4.0606,-3.8931,-3.7135,-3.7075,-3.4711,0.0,-3.2467,-3.1929,-3.154,-3.169,-3.2706,-3.3604,-3.3933,-3.6058,0.0,0.0,-4.4077,0.0,0.0,-5.482,0.0,-5.7184,-5.8381,-5.9638,-6.0864,-5.9817,-5.9368,-5.9997,-5.9428,-5.9099,-5.9099,-5.9099,-5.9099,-5.9099,-5.9099,-5.9099,-5.9099,-5.9099,-5.9099,-5.9099,-5.9099,-5.9099,0.0,-5.9099,-5.9099,-5.9099,-5.9099,-5.7666,-5.5383,-5.5299,-5.3052,-4.9871,-4.9793,-4.9087,-4.8172,0.0,0.0,0.0,0.0,0.0,0.0,0.0,0.0,0.0,0.0,-1.7524,-1.8505,-1.9309,-1.9535,-2.0012,0.0,0.0,0.0,0.0,0.0,0.0,0.0,0.0,0.0,-2.3518,-2.5596,-2.7363,-2.8774,-3.0825,-3.2571,-3.3964,-3.347,-3.2832,-3.2019,-3.1003,-3.0132,0.0,0.0,0.0,0.0,0.0,0.0,0.0,0.0,0.0,0.0,0.0,-2.9711,0.0,0.0,0.0,0.0,0.0,0.0,0.0,0.0,-2.9056,-2.9744,-3.1809,0.0,-3.504,-3.4681,-3.4502,-3.4292,0.0,-3.3066,-3.2348,-3.1839,0.0,-3.1959,-3.3514,-3.3634,-3.4651,-3.8212,0.0,0.0,-4.3988,0.0,0.0,-5.5568,-5.7423,-5.8471,-5.862,-5.8919,-5.9249,-5.9548,-5.9279,-5.9189,-5.9338,-5.9189,-5.9099,-5.9099,-5.9099,-5.9099,-5.9099,-5.9099,-5.9099,-5.9099,-5.9099,-5.9099,-5.9099,-5.9099,-5.9099,-5.9099,-5.9099,-5.9099,-5.9099,-5.9099,-5.7666,-5.5299,-5.4429,-5.2373,-4.9793,-4.8904,-4.8407,-4.8172,0.0,0.0,0.0,0.0,0.0,0.0,0.0,0.0,0.0,0.0,0.0,0.0,0.0,0.0,0.0,0.0,0.0,0.0,0.0,0.0,0.0,0.0,0.0,-2.2272,-2.3095,-2.4996,-2.6927,-2.8803,-3.0644,-3.2569,-3.4399,-3.408,-3.3412,-3.2423,-3.1148,-3.0423,0.0,0.0,0.0,0.0,0.0,0.0,0.0,0.0,0.0,0.0,-2.8442,-2.8823,0.0,-2.9502,-2.9983,-3.0342,0.0,0.0,0.0,0.0,-2.8338,-2.8816,-2.9804,-3.1749,-3.3484,-3.3425,-3.3694,-3.3844,-3.3484,0.0,0.0,0.0,0.0,0.0,0.0,0.0,0.0,0.0,-4.0367,0.0,0.0,0.0,-5.4491,-5.6825,-5.8291,-5.9099,0.0,-5.9099,-5.9099,-5.9099,-5.9099,-5.9099,-5.9099,-5.9099,-5.9099,-5.9099,-5.9099,-5.9099,-5.9099,-5.9099,-5.9099,-5.9099,-5.9099,-5.9099,-5.9099,-5.9099,-5.9099,-5.9099,-5.9099,-5.9099,-5.9099,-5.9099,-5.7666,-5.5327,-5.4739,-5.2619,-4.9819,-4.9191,-4.8643,-4.8172,0.0,0.0,0.0,0.0,0.0,0.0,0.0,0.0,0.0,0.0,0.0,0.0,0.0,0.0,0.0,0.0,0.0,0.0,0.0,0.0,0.0,0.0,0.0,-2.2619,-2.3346,-2.4472,-2.6308,-2.8908,-3.0178,-3.198,-3.4283,-3.4457,-3.3819,-3.2454,-3.1264,-3.0685,0.0,0.0,0.0,0.0,0.0,0.0,0.0,0.0,0.0,0.0,0.0,0.0,0.0,-2.9142,-2.9834,-3.0372,-2.9562,0.0,0.0,0.0,0.0,0.0,-2.9475,-3.1629,-3.3724,-3.4114,-3.4354,-3.4474,-3.4384,0.0,0.0,0.0,0.0,0.0,0.0,-3.51,0.0,0.0,0.0,0.0,-4.909,-5.2396,-5.5029,-5.6885,-5.8291,0.0,-5.9099,-5.9099,-5.9099,-5.9099,-5.9099,-5.9099,-5.9099,-5.9099,-5.9099,-5.9099,-5.9099,-5.9099,-5.9099,-5.9099,-5.9099,-5.9099,-5.9099,-5.9099,-5.9099,-5.9099,-5.9099,-5.9099,-5.9099,-5.8991,-5.8798,-5.9045,-5.7526,-5.5091,-5.5129,-5.297,-4.9871,-4.9688,-4.9008,-4.8172,0.0,0.0,0.0,0.0,0.0,0.0,0.0,0.0,0.0,0.0,0.0,0.0,0.0,0.0,0.0,0.0,0.0,0.0,0.0,0.0,0.0,-2.2322,-2.2322,-2.2995,-2.4499,-2.5272,-2.6892,-2.9378,-3.1238,-3.2639,-3.3678,-3.4753,-3.4254,-3.2452,-3.17,-3.109,-3.0598,0.0,0.0,0.0,0.0,0.0,0.0,0.0,0.0,0.0,0.0,0.0,0.0,-2.8064,-2.9056,-3.0193,-2.8453,0.0,0.0,0.0,0.0,0.0,-2.9894,-3.2287,-3.4114,-3.3066,-3.3664,-3.4354,-3.3784,0.0,0.0,0.0,0.0,0.0,0.0,-3.6985,-3.8392,0.0,0.0,-4.8297,0.0,0.0,-5.5568,-5.6944,0.0,-5.9099,-5.9099,-5.9099,-5.9099,-5.9099,-5.9099,-5.9099,-5.9099,-5.9099,-5.9099,-5.9099,-5.9099,-5.9099,-5.9099,-5.9099,-5.9099,-5.9099,-5.9099,-5.9099,-5.9099,-5.9099,-5.9099,-5.9099,-5.9099,-5.8495,-5.7552,-5.8689,-5.6991,-5.3822,-5.3915,-5.2291,-4.9766,-4.8799,-4.8329,-4.8172,0.0,0.0,0.0,0.0,0.0,0.0,0.0,0.0,0.0,0.0,0.0,0.0,0.0,0.0,0.0,0.0,0.0,0.0,0.0,0.0,0.0,-2.2719,-2.3321,-2.3998,-2.4775,-2.5714,-2.7374,-2.9802,-3.1506,-3.2814,-3.3842,-3.3821,-3.3354,-3.2452,-3.1467,-3.0858,-3.0598,-3.0598,0.0,0.0,0.0,0.0,0.0,0.0,0.0,0.0,0.0,0.0,0.0,0.0,-2.8966,-2.9774,-2.8543,0.0,0.0,0.0,0.0,0.0,-2.9564,-3.1659,-3.3514,-3.4023,-3.5639,-3.6956,-3.6297,0.0,0.0,0.0,0.0,0.0,0.0,0.0,-4.1384,-4.5364,0.0,-5.0541,-5.2456,-5.4461,-5.6077,0.0,0.0,-5.9099,-5.9099,-5.9099,-5.9099,-5.9099,-5.9099,-5.9099,-5.9099,-5.9099,-5.9099,-5.9099,-5.9099,-5.9099,-5.9099,-5.9099,-5.9099,-5.9099,-5.9099,-5.9099,-5.9099,-5.9099,-5.9099,-5.9099,-5.9099,-5.8743,-5.8246,-5.8494,-5.6778,-5.4037,-5.3724,-5.1878,-4.9348,-4.8486,-4.8172,-4.8172,0.0,0.0,0.0,0.0,0.0,0.0,0.0,0.0,0.0,0.0,0.0,0.0,0.0,0.0,0.0,0.0,0.0,0.0,0.0,0.0,-2.2669,-2.3095,-2.4299,-2.5151,-2.5553,-2.6414,-2.8103,-3.056,-3.1753,-3.2983,-3.4265,-3.325,-3.2658,-3.2454,-3.1322,-3.0743,-3.0598,-3.0598,-3.0598,0.0,0.0,0.0,0.0,0.0,0.0,0.0,0.0,0.0,0.0,0.0,0.0,0.0,0.0,0.0,0.0,-2.8364,-2.7974,-2.8154,-2.9624,-3.136,-3.3185,-3.504,0.0,-3.8751,-3.8841,-3.8212,0.0,0.0,0.0,0.0,0.0,-4.1294,0.0,-4.8177,-5.0391,-5.2097,-5.3264,-5.4999,-5.6406,-5.7034,-5.8141,-5.8949,-5.9099,-5.9099,-5.9099,-5.9099,-5.9099,-5.9099,-5.9099,-5.9099,-5.9099,-5.9099,-5.9099,-5.9099,-5.9099,-5.9099,-5.9099,-5.9099,-5.9099,-5.9099,-5.9099,-5.9099,-5.9099,-5.9099,-5.8798,-5.8525,-5.8191,-5.7542,-5.5814,-5.3591,-5.3241,-5.1483,-4.9008,-4.8407,-4.8172,-4.8172,0.0,0.0,0.0,0.0,0.0,0.0,0.0,0.0,0.0,0.0,0.0,0.0,0.0,0.0,0.0,0.0,0.0,0.0,0.0,0.0,-2.307,-2.3095,-2.4682,-2.6264,-2.7846,-2.7946,-2.9295,-3.1947,-3.2429,-3.345,-3.4918,-3.3916,-3.3093,-3.2452,-3.1727,-3.1119,-3.0598,-3.0598,-3.0598,-3.0598,0.0,0.0,0.0,0.0,0.0,0.0,0.0,0.0,0.0,0.0,0.0,0.0,0.0,0.0,-2.9592,-2.9502,-2.8996,-2.8936,-3.0853,-3.2377,-3.3754,-3.516,-3.6118,0.0,-3.9709,-3.926,0.0,-4.0666,0.0,0.0,0.0,-4.4706,-4.7638,-4.9717,-5.1768,-5.3294,-5.4042,0.0,-5.6406,-5.7034,-5.7752,-5.8441,-5.9039,-5.9099,-5.9099,-5.9099,-5.9099,-5.9099,-5.9099,-5.9099,-5.9099,-5.9099,-5.9099,-5.9099,-5.9099,-5.9099,-5.9099,-5.9099,-5.9099,-5.9099,-5.9099,-5.9099,-5.9099,-5.9045,-5.786,-5.6708,-5.5646,-5.4996,-5.3296,-5.1136,-5.1669,-5.0751,-4.9008,-4.8407,-4.8172,-4.8172,0.0,0.0,0.0,0.0,0.0,0.0,0.0,0.0,0.0,0.0,0.0,0.0,0.0,0.0,0.0,0.0,0.0,0.0,0.0,-2.202,-2.292,-2.3653,-2.4908,-2.6214,-2.757,-2.8624,-3.0228,-3.2493,-3.3582,-3.4539,-3.5224,-3.3628,-3.2745,-3.2452,-3.1409,-3.1003,-3.1148,-3.0772,-3.083,-3.1119,-3.0772,0.0,0.0,0.0,0.0,0.0,0.0,0.0,0.0,0.0,-2.8543,-2.9116,-2.8543,-2.9202,-3.0013,-2.9205,-2.8786,-2.8846,-3.0013,-3.2168,-3.4322,-3.528,-3.7225,0.0,0.0,-4.1564,-4.2402,-4.3569,-4.4496,0.0,0.0,0.0,-4.8566,-5.0495,-5.2157,-5.3563,-5.467,-5.5598,-5.6256,-5.6496,-5.7094,-5.7752,-5.8441,-5.8501,-5.865,-5.9069,-5.9099,-5.9099,-5.9099,-5.9099,-5.9099,-5.9099,-5.9099,-5.9099,-5.9099,-5.9099,-5.9099,-5.9099,-5.9099,-5.9099,-5.9099,-5.9099,-5.9099,-5.9045,-5.7749,-5.676,-5.5935,-5.446,-5.292,-5.1335,-5.0478,-4.9719,-4.9008,-4.8407,-4.8172,-4.8172,0.0,0.0,0.0,0.0,0.0,0.0,0.0,0.0,0.0,0.0,0.0,0.0,0.0,0.0,0.0,0.0,0.0,0.0,-2.0943,-2.1794,-2.2824,-2.3954,-2.4883,-2.5963,-2.7316,-2.8761,-3.0535,-3.2561,-3.427,-3.5096,-3.495,-3.3516,-3.2832,-3.2774,-3.1671,-3.1322,-3.1466,-3.1061,-3.1003,-3.1177,-3.0772,-2.9958,0.0,0.0,0.0,0.0,0.0,0.0,0.0,0.0,-2.8393,-2.8933,-2.8603,-2.9295,-3.0073,-2.9415,-2.9355,-2.9564,-2.9804,-3.2018,-3.4474,-3.5549,0.0,0.0,-4.2222,-4.3509,-4.4676,-4.5963,-4.698,0.0,-4.7878,0.0,0.0,0.0,-5.2456,-5.3653,-5.4999,-5.5568,-5.5927,-5.6188,-5.6526,-5.7064,-5.7723,-5.7812,-5.7992,-5.8441,-5.8471,-5.856,-5.877,-5.88,-5.889,-5.9099,-5.9099,-5.9099,-5.9099,-5.9099,-5.9009,-5.88,-5.88,-5.8919,-5.9099,-5.9099,-5.9099,-5.8991,-5.7181,-5.6161,-5.5589,-5.3131,-5.168,-5.0778,-4.9364,-4.8904,-4.9008,-4.8407,-4.8172,-4.8172,0.0,0.0,0.0,0.0,0.0,0.0,0.0,0.0,0.0,0.0,0.0,0.0,0.0,0.0,0.0,0.0,0.0,0.0,-2.1443,-2.1995,-2.2799,-2.3929,-2.4531,-2.5637,-2.7445,-2.8409,-2.9977,-3.2182,-3.432,-3.4944,-3.4068,-3.3686,-3.3503,-3.3445,-3.2803,-3.2135,-3.1495,-3.1495,-3.1148,-3.0627,-3.0598,-3.019,0.0,0.0,0.0,0.0,0.0,0.0,0.0,0.0,-2.8128,-2.7944,-2.9864,-3.0073,-2.9714,-3.0313,-3.0972,-3.1361,-3.0702,-3.1988,-3.3993,0.0,0.0,0.0,-4.4407,-4.4796,-4.5095,-4.7758,-4.8297,-4.8506,-4.9209,-4.9329,0.0,-5.1887,-5.2755,-5.3653,-5.4999,-5.5179,-5.5448,-5.6077,-5.6218,-5.6406,-5.7034,-5.7094,-5.7094,-5.7094,-5.7094,-5.7393,-5.8082,-5.8112,-5.8411,-5.9069,-5.9069,-5.9069,-5.9069,-5.9069,-5.877,-5.8112,-5.8112,-5.8471,-5.9069,-5.9069,-5.9069,-5.8931,-5.5849,-5.4485,-5.4201,-5.0607,-4.9087,-4.9035,-4.8433,-4.8564,-4.9008,-4.8407,-4.8172,-4.8172,0.0,0.0,0.0,0.0,0.0,0.0,0.0,0.0,0.0,0.0,0.0,0.0,0.0,0.0,0.0,0.0,0.0,0.0,-2.0893,-2.1446,-2.2046,-2.2774,-2.4104,-2.5055,-2.5612,-2.8061,-3.0244,-3.2037,-3.3823,-3.409,-3.2963,-3.2847,-3.2542,-3.2106,-3.2396,-3.2135,-3.1495,-3.1495,-3.1409,-3.1206,-3.0772,-3.019,0.0,0.0,0.0,0.0,0.0,0.0,0.0,0.0,0.0,0.0,-2.8996,-2.9983,-3.0821,-3.0073,-3.0642,-3.1361,-3.0702,-3.3006,0.0,-3.6866,0.0,0.0,0.0,-4.6232,0.0,0.0,-4.9972,-4.9733,-4.9912,-5.0331,0.0,-5.2037,-5.3174,-5.4192,-5.5059,-5.5179,-5.5269,-5.5448,-5.5478,-5.5748,-5.6376,-5.6436,-5.6615,-5.7064,-5.7094,-5.7184,-5.7393,-5.7393,-5.7483,-5.7693,-5.7693,-5.7693,-5.7693,-5.7693,-5.7603,-5.7393,-5.7393,-5.7513,-5.7693,-5.7693,-5.7693,-5.7557,-5.4933,-5.3613,-5.2995,-5.0228,-4.9087,-4.9061,-4.8878,-4.893,-4.9008,-4.8407,-4.8172,-4.8172,0.0,0.0,0.0,0.0,0.0,0.0,0.0,0.0,0.0,0.0,-1.9811,-1.9811,0.0,0.0,0.0,0.0,0.0,0.0,0.0,-2.1345,-2.182,-2.2569,-2.3828,-2.4911,-2.5863,-2.9046,-3.0799,-3.0973,-3.2787,-3.3267,-3.2513,-3.2774,-3.2687,-3.2309,-3.2977,-3.2774,-3.1901,-3.1901,-3.1727,-3.1466,-3.109,-3.0713,-3.0248,0.0,0.0,0.0,0.0,0.0,0.0,0.0,0.0,0.0,-2.8188,0.0,-2.9894,-2.9654,-3.0522,-3.163,-3.2317,-3.4831,0.0,-3.9349,-4.2252,-4.5274,-4.7355,0.0,0.0,0.0,0.0,-5.0285,-5.0524,-5.0704,0.0,-5.2396,-5.3264,-5.4132,-5.5059,-5.5179,-5.5179,-5.5179,-5.5179,-5.5359,-5.5748,-5.5777,-5.5927,-5.6316,-5.6346,-5.6466,-5.6705,-5.6735,-5.6825,-5.7094,-5.7094,-5.7094,-5.7094,-5.7094,-5.6974,-5.6735,-5.6735,-5.6585,-5.6346,-5.6855,-5.6885,-5.6273,-5.3639,-5.1844,-5.0812,-4.934,-4.8721,-4.8721,-4.8721,-4.8721,-4.8669,-4.8329,-4.8172,-4.8172,0.0,0.0,0.0,0.0,0.0,0.0,0.0,0.0,0.0,0.0,-1.9811,-1.9811,0.0,0.0,0.0,0.0,0.0,0.0,0.0,0.0,-2.202,-2.307,-2.389,-2.5384,-2.7702,-3.068,-3.1378,-2.9582,-3.147,-3.2365,-3.2367,-3.3064,-3.3416,-3.3445,-3.4051,-3.3587,-3.2338,-3.2338,-3.1932,-3.1234,-3.1292,-3.1292,-3.1148,-2.9958,0.0,0.0,0.0,0.0,0.0,0.0,0.0,0.0,-2.7649,-2.7675,-2.7944,-2.9142,-3.0462,-3.2049,-3.4622,0.0,0.0,-4.2482,-4.4496,0.0,-4.9464,-5.0196,-5.0435,-5.1079,0.0,-5.0465,-5.1109,-5.0734,-5.099,-5.2785,-5.3204,-5.3713,-5.494,-5.5149,-5.5179,-5.5179,-5.5179,-5.5179,-5.5179,-5.5179,-5.5179,-5.5179,-5.5179,-5.5448,-5.6098,-5.6077,-5.6346,-5.6915,-5.6915,-5.6915,-5.6915,-5.6915,-5.6645,-5.6077,-5.6077,-5.5726,-5.5057,-5.6221,-5.6096,-5.4746,-5.2015,-4.9814,-4.8172,-4.8172,-4.8172,-4.8172,-4.8172,-4.8172,-4.8172,-4.8172,-4.8172,-4.8172,0.0,0.0,0.0,0.0,0.0,0.0,0.0,0.0,0.0,0.0,0.0,0.0,0.0,0.0,0.0,0.0,0.0,0.0,0.0,0.0,-2.2418,-2.307,-2.5492,-2.7723,-2.9665,-3.0062,-3.0475,-3.1046,-3.149,-3.1467,-3.1003,-3.2164,-3.2716,-3.2745,-3.3383,-3.2719,-3.1033,-3.1033,-3.0335,-2.9319,-2.9842,-2.9726,-2.9261,-2.9,-2.8477,0.0,0.0,0.0,0.0,0.0,0.0,0.0,-2.8059,-2.8289,-2.8427,-2.8727,-3.0076,-3.1869,-3.3484,-3.6118,0.0,0.0,-4.5903,-4.864,-4.9314,-5.0272,-5.105,-5.1199,-5.1109,-5.105,-5.1199,-5.1528,-5.1917,-5.2336,-5.3294,-5.4102,-5.4371,-5.485,-5.5179,-5.5179,-5.5179,-5.5179,-5.5179,-5.5179,-5.5179,-5.5179,-5.5179,-5.5239,-5.5388,-5.5418,-5.5448,-5.5598,-5.5598,-5.5598,-5.5598,-5.5598,-5.5538,-5.5418,-5.5418,-5.4811,-5.3808,-5.4071,-5.3045,-5.107,-5.0372,-4.9381,-4.8172,-4.8172,-4.8172,-4.8172,-4.8172,-4.8172,-4.8172,-4.8172,-4.8172,-4.8172,0.0,0.0,0.0,0.0,0.0,0.0,0.0,0.0,0.0,0.0,0.0,0.0,0.0,0.0,0.0,0.0,0.0,0.0,0.0,-2.1995,-2.2947,-2.4315,-2.7044,-2.8816,-2.9458,-2.9885,-3.0122,-3.0161,-3.0451,-3.0742,-3.1061,-3.2658,-3.3412,-3.3409,-3.3761,-3.3006,-3.1467,-3.0859,-3.022,-2.961,-2.961,-2.961,-2.9522,-2.8565,-2.7985,-2.7579,-2.6727,0.0,0.0,0.0,0.0,0.0,0.0,0.0,-2.735,-2.8308,-2.9535,-3.124,-3.4143,0.0,0.0,-4.4706,0.0,-4.8955,-4.9583,-5.0242,-5.0794,-5.1139,-5.1229,-5.1229,-5.1229,-5.1498,-5.1828,-5.2157,-5.2785,-5.3473,-5.4132,-5.4491,-5.485,-5.5149,-5.5179,-5.5179,-5.5179,-5.5179,-5.5179,-5.5179,-5.5179,-5.5179,-5.5179,-5.5179,-5.5179,-5.5179,-5.5179,-5.5179,-5.5179,-5.5179,-5.5179,-5.5179,-5.5179,-5.4304,-5.2537,-5.2,-5.1072,-4.9845,-4.9304,-4.8726,-4.8172,-4.8172,-4.8172,-4.8172,-4.8172,-4.8172,-4.8172,-4.8172,-4.8172,-4.8172,0.0,0.0,0.0,0.0,0.0,0.0,0.0,0.0,0.0,0.0,0.0,0.0,0.0,0.0,0.0,0.0,0.0,0.0,0.0,-2.2246,-2.3552,-2.5688,-2.7986,-2.9064,-2.8741,-2.9747,-2.9871,-2.9028,-2.9464,-3.0539,-3.2225,-3.3587,-3.437,-3.4574,-3.4457,-3.3587,-3.2106,-3.0946,-3.0249,-2.99,-2.9493,-2.9522,-2.9639,-2.8157,-2.7432,-2.7111,-2.6137,-2.6293,-2.6979,-2.7081,0.0,0.0,0.0,0.0,-2.592,-2.7739,-2.8727,-3.0161,-3.4322,0.0,-4.244,-4.6711,-4.8027,0.0,-4.9643,-4.9956,-5.0166,-5.078,-5.105,-5.1229,-5.1229,-5.1229,-5.1409,-5.1947,-5.2127,-5.2606,-5.3713,-5.3952,-5.4221,-5.479,-5.485,-5.488,-5.4999,-5.5029,-5.5059,-5.5179,-5.5179,-5.5179,-5.5179,-5.5179,-5.5179,-5.5179,-5.5179,-5.5179,-5.5179,-5.5179,-5.5179,-5.5209,-5.4794,-5.36,-5.162,-5.0266,-4.9589,-4.9532,-4.8611,-4.8172,-4.8172,-4.8172,-4.8172,-4.8172,-4.8172,-4.8172,-4.8172,-4.8172,-4.8172,-4.8172,0.0,0.0,0.0,0.0,0.0,0.0,0.0,0.0,0.0,0.0,-1.9811,-1.9811,-1.9811,-1.9861,0.0,0.0,0.0,0.0,-2.2146,0.0,0.0,-2.5652,-2.7149,-2.8377,-2.9264,-2.9086,-2.9406,-3.0365,-3.0017,-3.1655,-3.5112,-3.4126,-3.423,-3.5247,-3.4661,-3.3093,-3.0801,-3.0192,-2.8881,-2.7372,-2.8025,-2.7612,-2.6656,-2.6977,-2.6367,-2.535,-2.5101,-2.545,-2.5999,-2.6025,-2.648,0.0,0.0,0.0,-2.5622,-2.6578,-2.7345,-2.8364,0.0,0.0,-4.2073,0.0,-4.701,-4.8327,0.0,0.0,-4.9479,0.0,-5.0421,-5.1229,-5.1229,-5.1229,-5.1259,-5.1349,-5.1828,-5.2247,-5.2456,-5.2965,-5.3354,-5.3443,-5.3443,-5.3683,-5.4281,-5.4341,-5.4581,-5.5149,-5.5179,-5.5179,-5.5179,-5.5179,-5.5179,-5.5179,-5.5179,-5.5179,-5.5179,-5.5179,-5.5179,-5.5179,-5.315,-5.2,-5.1648,-4.9445,-4.8405,-4.8405,-4.8289,-4.8172,-4.8172,-4.8172,-4.8172,-4.8172,-4.8172,-4.8172,-4.8172,-4.8172,-4.8172,-4.8172,0.0,0.0,0.0,0.0,0.0,0.0,0.0,0.0,0.0,0.0,0.0,-1.9811,-1.9811,-1.9811,0.0,0.0,0.0,0.0,-2.1794,-2.3255,0.0,-2.5314,-2.6829,-2.7923,-2.8453,-2.7905,-2.8097,-2.9113,-2.8556,-3.0661,-3.5247,-3.4974,-3.6142,-3.8341,-3.685,-3.4981,-3.292,-3.0837,-2.9251,-2.8081,-2.7718,-2.8334,-2.9189,-2.6869,-2.678,-2.7574,-2.5355,-2.5184,-2.6034,-2.6034,-2.6524,-2.7104,-2.7181,0.0,0.0,0.0,-2.6762,0.0,-3.3036,-3.7255,-4.1175,0.0,-4.6531,-4.7369,-4.8117,0.0,-4.888,-4.9239,-4.9733,-5.0242,-5.0554,-5.0913,-5.1229,-5.1229,-5.1468,-5.1768,-5.2157,-5.2456,-5.2755,-5.3144,-5.3174,-5.3294,-5.3593,-5.3623,-5.3743,-5.4042,-5.4072,-5.4221,-5.461,-5.464,-5.482,-5.5179,-5.5179,-5.5179,-5.5179,-5.5179,-5.5179,-5.5179,-5.2832,-5.1674,-5.162,-4.9274,-4.8172,-4.8172,-4.8172,-4.8172,-4.8172,-4.8172,-4.8172,-4.8172,-4.8172,-4.8172,-4.8172,-4.8172,-4.8172,-4.8172,0.0,0.0,0.0,0.0,0.0,0.0,0.0,0.0,0.0,0.0,0.0,0.0,-1.9811,0.0,0.0,0.0,0.0,0.0,-2.127,0.0,0.0,0.0,0.0,-2.7258,-2.7463,-2.6878,-2.7015,-2.791,-2.7551,-3.0131,-3.5503,-3.6153,-3.8404,-4.1853,-3.9421,-3.7093,-3.4824,-3.2255,-3.0659,-2.9804,-2.8912,-2.9888,-3.1575,-2.8825,-2.9089,-3.0451,-2.7026,-2.641,-2.7093,-2.6444,-2.6651,-2.7178,-2.7026,-2.6273,0.0,0.0,0.0,0.0,0.0,0.0,-3.8931,-4.324,-4.4904,-4.5861,0.0,0.0,-4.7967,0.0,-4.894,-4.9164,-4.9643,-5.0375,-5.0913,-5.0913,-5.1109,-5.1379,-5.1887,-5.1947,-5.2127,-5.2636,-5.2665,-5.2755,-5.2905,-5.2935,-5.2995,-5.3174,-5.3174,-5.3414,-5.3922,-5.4132,-5.4431,-5.491,-5.5089,-5.5179,-5.5179,-5.5179,-5.5179,-5.5179,-5.2832,-5.1674,-5.162,-4.9274,-4.8172,-4.8172,-4.8172,-4.8172,-4.8172,-4.8172,-4.8172,-4.8172,-4.8172,-4.8172,-4.8172,-4.8172,-4.8172,-4.8172,0.0,0.0,0.0,0.0,0.0,0.0,0.0,0.0,0.0,0.0,0.0,0.0,-1.9811,-1.9811,-1.9811,-1.9811,0.0,0.0,0.0,0.0,0.0,0.0,0.0,0.0,-2.6823,-2.6312,-2.6652,-2.791,-2.8205,-3.1307,-3.707,-3.7688,-4.0501,-4.4934,-4.1942,-3.8538,-3.4942,-3.4273,-3.3206,-3.1959,-3.2139,-3.1871,-3.1575,-3.3893,-3.4103,-3.2823,-3.0686,-2.9947,-2.9596,-2.7063,-2.6651,-2.7089,-2.6599,-2.5966,-2.5301,0.0,0.0,0.0,0.0,-3.1869,0.0,-3.7973,0.0,0.0,0.0,0.0,-4.6578,-4.7279,-4.7908,-4.8356,-4.8386,-4.9434,-5.0255,-5.0255,-5.0764,-5.1229,-5.1259,-5.1259,-5.1289,-5.1319,-5.1319,-5.1558,-5.2187,-5.2247,-5.2516,-5.3144,-5.3174,-5.3204,-5.3234,-5.3862,-5.4221,-5.4251,-5.485,-5.5179,-5.5179,-5.5179,-5.5179,-5.5179,-5.2832,-5.1674,-5.162,-4.9274,-4.8172,-4.8172,-4.8172,-4.8172,-4.8172,-4.8172,-4.8172,-4.8172,-4.8172,-4.8172,-4.8172,-4.8172,-4.8172,-4.8172,0.0,0.0,0.0,0.0,0.0,0.0,0.0,0.0,0.0,0.0,0.0,0.0,0.0,-2.039,-2.039,-2.039,-2.0348,0.0,0.0,0.0,0.0,0.0,0.0,0.0,0.0,-2.6305,-2.652,-2.7587,-2.7272,-2.9756,-3.4825,-3.5481,-3.7605,-4.0846,-4.0456,-3.9617,-3.8245,-3.5093,-3.3451,-3.3003,-3.3125,-3.4231,-3.5783,-3.5036,-3.6052,-3.7425,-3.4044,-3.2525,0.0,-3.0983,-2.9655,-2.8302,-2.7656,-2.6444,-2.5094,-2.4164,-2.4851,0.0,0.0,0.0,0.0,-3.7464,-3.9918,-4.1893,-4.3629,-4.5173,-4.6381,-4.6621,-4.7189,-4.7668,-4.7668,-4.8716,-4.9763,-5.0136,-5.0375,-5.0704,-5.1169,-5.1229,-5.1229,-5.1229,-5.1229,-5.1319,-5.1558,-5.1558,-5.1678,-5.1917,-5.1917,-5.2097,-5.2546,-5.2785,-5.3324,-5.4192,-5.4431,-5.476,-5.5179,-5.5179,-5.4794,-5.4016,-5.2459,-5.1292,-5.0462,-4.8899,-4.8172,-4.8172,-4.8172,-4.8172,-4.8172,-4.8172,-4.8172,-4.8172,-4.8172,-4.8172,-4.8172,-4.8172,-4.8055,-4.7938,0.0,0.0,0.0,0.0,0.0,0.0,0.0,0.0,-2.0087,-2.0087,0.0,0.0,0.0,0.0,-2.0968,-2.0968,-2.1146,-2.1248,-2.1197,-2.3236,0.0,0.0,0.0,0.0,0.0,-2.6461,-2.6558,-2.7386,-2.7016,-2.8856,-3.2856,-3.3754,-3.5669,-3.8392,-3.8216,-3.8728,-3.9529,-3.6447,-3.5011,-3.4861,-3.5549,-3.6985,-3.8721,-3.8512,-3.9798,-4.1324,-3.8142,0.0,0.0,0.0,-3.2763,-3.0686,-2.9271,-2.7081,-2.4815,-2.3807,-2.4821,0.0,-2.7889,0.0,0.0,0.0,0.0,-3.923,-4.2312,0.0,-4.4915,-4.5783,-4.6501,-4.704,-4.7279,-4.8027,-4.8805,-4.9464,-4.9763,-5.0122,-5.0734,-5.0853,-5.0913,-5.1199,-5.1229,-5.1229,-5.1229,-5.1229,-5.1229,-5.1229,-5.1229,-5.1409,-5.1858,-5.2067,-5.2815,-5.4162,-5.4221,-5.4521,-5.5179,-5.4794,-5.42,-5.3361,-5.1837,-5.0685,-4.9845,-4.8726,-4.8172,-4.8172,-4.8172,-4.8172,-4.8172,-4.8172,-4.8172,-4.8172,-4.8172,-4.8114,-4.8055,-4.8055,-4.7821,-4.756,0.0,0.0,0.0,0.0,0.0,0.0,0.0,0.0,-2.0717,-2.0742,0.0,0.0,0.0,0.0,0.0,-2.1652,-2.2293,-2.2644,-2.2484,-2.4192,0.0,0.0,0.0,0.0,-2.7237,-2.6717,-2.6767,-2.7446,-2.7539,-2.8906,-3.1481,-3.2796,-3.51,-3.8093,-3.5582,-3.5881,-3.8242,-3.8212,-3.7913,-3.7644,-3.9529,-4.0008,-4.0001,-4.4485,-4.5454,-4.4227,-4.298,-4.2081,0.0,-3.7828,0.0,-3.4114,-3.136,-2.7803,-2.4545,-2.3857,-2.4657,-2.5704,0.0,0.0,0.0,0.0,0.0,0.0,-4.1003,0.0,-4.2013,-4.4676,-4.5753,-4.6441,-4.716,-4.7279,-4.7489,-4.8147,-4.8805,-4.9464,-5.0076,-5.0166,-5.0405,-5.1109,-5.1199,-5.1199,-5.1229,-5.1229,-5.1229,-5.1229,-5.1229,-5.1229,-5.1229,-5.1858,-5.2815,-5.4102,-5.4162,-5.4491,-5.5149,-5.3987,-5.3332,-5.3308,-5.1017,-4.9845,-4.9816,-4.8726,-4.8172,-4.8172,-4.8172,-4.8172,-4.8172,-4.8172,-4.8172,-4.8172,-4.8172,-4.7997,-4.7703,-4.7703,-4.7442,-4.7205,0.0,0.0,0.0,0.0,0.0,-2.1295,-2.1295,-2.1295,-2.1418,0.0,0.0,0.0,-2.3344,-2.4346,-2.4929,-2.4899,-2.5218,-2.5147,-2.4461,-2.5354,-2.5929,-2.5929,-2.7166,-2.7942,-2.8073,-2.7921,-2.7973,-2.8286,-2.7829,-2.8483,-3.0133,-3.052,-3.1898,-3.4113,-3.3395,-3.3724,-3.4831,-3.4352,-3.5968,-3.8781,-3.7913,-3.9738,-4.3,-4.3329,-4.4706,-4.6381,-4.5514,-4.4496,-4.3359,0.0,-3.9679,-3.5878,-3.1721,-2.8684,-2.6485,-2.5825,-2.7001,-2.8278,-2.7315,0.0,0.0,0.0,0.0,0.0,0.0,0.0,-3.9409,-4.256,-4.3369,-4.4107,-4.6202,-4.6591,-4.68,-4.7459,-4.8117,-4.8775,-4.9434,-4.9523,-4.9793,-5.0375,-5.0465,-5.0644,-5.1169,-5.1229,-5.1229,0.0,-5.1229,-5.1229,-5.1229,-5.1858,-5.2366,-5.2755,-5.3204,-5.3803,-5.4491,-5.3261,-5.2531,-5.2162,-5.0629,-4.9475,-4.8669,-4.8347,-4.8172,-4.8172,-4.8172,-4.8055,-4.788,-4.8114,-4.8172,-4.8198,-4.7938,-4.7762,-4.7677,-4.7442,-4.7172,-4.6959,0.0,0.0,0.0,0.0,0.0,-2.2993,-2.3321,-2.3086,-2.3318,0.0,0.0,0.0,-2.6163,-2.7556,-2.8133,-2.7571,-2.7371,-2.7046,-2.6483,-2.663,-2.6697,-2.6697,-2.7698,-2.834,-2.8472,-2.877,-2.8823,-2.8607,-2.8188,-2.8274,-2.8783,-2.9026,-2.9924,-3.127,-3.1001,-3.1719,-3.3006,-3.1809,-3.3814,-3.7883,-3.8931,-4.1025,-4.3629,-4.4837,-4.6262,-4.7698,-4.7578,-4.704,-4.6292,-4.5753,-4.2312,-3.755,-3.3752,-3.1126,-2.9307,-2.8085,-2.9182,-3.0522,-2.9146,-3.0043,0.0,0.0,0.0,0.0,-3.5519,-3.6237,-3.7135,0.0,-4.1602,-4.256,-4.4347,-4.5125,-4.5693,-4.6352,-4.704,-4.7788,-4.876,-4.8865,-4.9105,-4.9763,-4.9823,-4.9972,-5.0361,-5.0661,-5.0764,-5.0764,-5.105,-5.1229,-5.1229,-5.1588,-5.1917,-5.2187,-5.2576,-5.3084,-5.3773,-5.2391,-5.153,-5.1255,-4.9876,-4.8842,-4.8172,-4.8172,-4.8172,-4.8172,-4.8055,-4.788,-4.7703,-4.7762,-4.7762,-4.7762,-4.756,-4.7409,-4.729,-4.7112,-4.684,-4.6601,0.0,0.0,-2.406,-2.4186,-2.4677,-2.5326,-2.6018,-2.5665,-2.6005,0.0,-2.7985,-2.8366,-2.9963,-3.1119,-3.1297,-3.0154,-2.9343,-2.8741,-2.8454,-2.7871,-2.7501,-2.7442,-2.8152,-2.8591,-2.8697,-2.9355,-2.9355,-2.8697,-2.8637,-2.8248,-2.7615,-2.8188,-2.8786,-2.9352,-2.8757,-2.9864,-3.2078,-3.0552,-3.2108,-3.6028,-4.0816,-4.2761,-4.3279,-4.7412,-4.876,-4.8476,-4.912,-4.9299,-4.909,-4.7668,-4.4018,-3.9553,-3.6806,-3.4651,-3.2766,-3.076,-3.148,0.0,-3.13,-3.1928,0.0,-3.4174,-3.2736,0.0,-3.5998,-3.5609,-3.534,0.0,-3.9918,-4.1033,-4.1901,-4.303,-4.4107,-4.4766,-4.5574,-4.6591,-4.7967,-4.8177,-4.8416,-4.912,-4.9209,-4.9239,-4.9299,-4.9793,-5.0106,-5.0196,-5.0794,-5.1229,-5.1229,-5.1229,-5.1498,-5.2067,-5.2097,-5.2396,-5.3054,-5.1402,-5.0637,-5.0668,-4.9007,-4.8172,-4.8172,-4.8172,-4.8198,-4.8114,-4.7821,-4.7645,-4.7586,-4.7265,-4.7146,-4.7205,-4.7146,-4.6993,-4.6806,-4.6746,-4.6566,-4.6301,0.0,-2.3593,-2.445,-2.5387,-2.6239,-2.6833,-2.69,-2.775,-2.8516,-2.8789,-3.0582,-3.2777,-3.5153,-3.4884,-3.4571,-3.4668,-3.2874,-3.1189,-2.9981,-2.8928,-2.8132,-2.7564,-2.87,-2.9385,-2.9412,-3.0013,-3.0013,-2.9412,-2.8846,-2.8248,-2.7585,-2.7735,-2.7854,-2.7974,-2.7854,-2.8693,-3.0223,-3.142,-3.3634,-3.6417,-3.7973,-4.1384,-4.5663,-4.6561,-4.7818,-4.9149,-4.9269,-4.9299,-4.903,-4.713,-4.5454,-4.3509,-3.9828,-3.8003,-3.6746,-3.4294,-3.4593,-3.5429,-3.4053,-3.4681,-3.537,-3.4023,-3.4502,0.0,-3.3754,-3.3993,-3.4833,0.0,-3.6477,-3.7345,-3.9589,-4.0636,-4.1384,-4.2043,-4.3569,-4.5364,-4.7249,-4.7489,-4.7728,-4.8386,-4.8476,-4.8686,-4.9269,-4.9419,-4.9673,-5.0136,-5.0794,-5.1229,-5.1229,-5.1229,-5.1289,-5.1409,-5.1409,-5.1738,-5.2396,-5.072,-5.0163,-5.0668,-4.9007,-4.8172,-4.8172,-4.8172,-4.8055,-4.7821,-4.7762,-4.7409,-4.6959,-4.69,-4.6993,-4.7205,-4.6959,-4.6866,-4.6746,-4.6506,-4.6386,-4.6301,-2.4475,-2.5478,-2.6476,-2.7354,-2.8384,-2.9274,-2.9874,-3.029,-3.1277,-3.33,-3.5996,-3.7687,-3.7651,-3.7475,-3.7058,-3.6301,-3.4258,-3.2557,-3.1483,-2.9928,-2.8786,-2.8154,-2.9082,-2.9714,-3.0043,-3.0672,-3.0702,-3.0043,-2.9415,-2.8603,-2.7585,-2.7585,-2.8124,-2.9022,-2.8368,-2.9355,-3.1569,-3.1898,-3.3754,-3.6746,-3.9679,-4.306,-4.6459,-4.8147,-4.9374,-5.0242,-5.0242,-5.0032,-4.9464,-4.7489,-4.6352,0.0,-4.1923,-4.0876,-4.0337,0.0,-3.7644,-3.8063,-3.6387,-3.6417,-3.6776,-3.6118,0.0,0.0,0.0,-3.4442,-3.4472,-3.6118,-3.5938,-3.6088,-3.8063,-3.8691,-3.923,-4.0247,-4.2043,-4.3688,-4.4706,-4.6262,-4.7429,-4.7758,-4.7788,-4.7938,-4.8267,-4.864,-4.9045,-4.9703,-5.0361,-5.0674,-5.0674,-5.105,-5.1229,-5.1229,-5.1229,-5.1379,-5.1708,-5.0112,-4.9603,-5.0166,-4.8409,-4.7678,-4.7938,-4.7762,-4.7619,-4.7442,-4.729,-4.7078,-4.6806,-4.6626,-4.6601,-4.6755,-4.6601,-4.6566,-4.6566,-4.6361,-4.6301,-4.6301,-2.6204,-2.7347,-2.8466,-2.916,-3.0313,-3.1522,-3.2577,-3.2608,-3.3974,-3.8068,-4.0719,-4.1572,-3.9888,-3.9978,-3.9589,-3.8123,-3.5938,-3.4292,-3.3514,-3.1599,-3.0191,-2.9385,-2.9744,-3.0193,-3.0702,-3.1092,-3.0913,-3.0133,-2.9654,-2.8783,-2.7585,-2.7735,-2.8723,-3.0283,-2.9505,-3.0851,-3.3634,-3.2647,-3.441,-3.8182,-4.2551,-4.4825,-4.5933,-4.9344,-5.0661,-5.069,-5.1079,-5.0823,-5.0106,-4.8297,-4.7339,-4.6441,-4.3818,-4.3389,0.0,0.0,-4.0636,-4.0786,-3.902,-3.8631,-3.8721,-3.8631,0.0,-3.6297,0.0,0.0,0.0,-3.6327,-3.5938,0.0,0.0,0.0,0.0,0.0,0.0,0.0,0.0,-4.4227,0.0,-4.6352,-4.6681,-4.692,-4.692,-4.7399,-4.8087,-4.906,-4.9344,-4.9657,-5.0166,-5.0704,-5.1079,-5.1229,-5.1229,-5.1135,-5.087,-4.9603,-4.9022,-4.9267,-4.7702,-4.7186,-4.756,-4.7324,-4.7146,-4.7087,-4.69,-4.6746,-4.6686,-4.6421,-4.6301,-4.6301,-4.6301,-4.6301,-4.6301,-4.6301,-4.6301,-4.6301,-2.7103,-2.7799,-2.8697,-2.9775,-3.1269,-3.2306,-3.2269,-3.3877,-3.6305,-3.9732,-4.0935,-4.2252,-4.4287,-4.3539,-4.2991,-4.3389,-4.0546,-3.8212,-3.6926,-3.5011,-3.3365,-3.2138,-3.154,-3.1331,-3.1391,-3.0881,-3.0013,-2.8816,-2.8757,-2.8308,-2.7615,-2.8188,-2.8906,-2.9771,-3.0733,-3.2377,-3.4444,-3.4861,-3.7943,-4.2632,-4.3838,-4.3718,-4.3279,-4.713,-4.8626,-4.8865,-5.0601,-5.1169,-5.09,-4.9523,-4.903,-4.852,0.0,-4.5424,-4.5532,-4.3469,0.0,0.0,0.0,0.0,0.0,0.0,-4.0816,-4.0995,-3.5968,0.0,-3.6387,-3.4352,0.0,0.0,0.0,0.0,0.0,0.0,0.0,0.0,-3.8841,-4.0696,-4.2321,-4.289,-4.4466,-4.5514,-4.5514,-4.5603,-4.6411,-4.8267,-4.7399,-4.7744,-5.0076,-5.0255,-5.0584,-5.1199,-5.1229,-5.0728,-4.9786,-4.92,-4.8551,-4.7838,-4.7193,-4.7043,-4.7265,-4.7205,-4.7053,-4.6866,-4.6806,-4.6626,-4.6361,-4.6326,-4.6301,-4.6301,-4.6301,-4.6301,-4.6301,-4.6301,-4.6301,-4.6301,-2.8451,-2.9087,-3.0017,-3.1266,-3.2363,-3.3166,-3.3492,-3.6907,-3.9828,-4.0846,-4.321,-4.5095,-4.5813,-4.5035,-4.4586,-4.4855,-4.294,-4.0778,-3.8721,-3.7075,-3.5429,-3.3724,-3.3036,-3.2677,-3.2677,-3.16,-3.0642,-2.9714,-2.8966,-2.8248,-2.7615,-2.8278,-2.9564,-3.133,-3.2647,-3.4771,-3.7375,-3.7644,-3.9014,-4.1137,-4.2611,-4.2611,-4.244,-4.7908,-4.9972,-5.0092,-5.093,-5.1229,-5.096,-4.9254,-4.9,-4.891,-4.6591,-4.6352,0.0,-4.4945,0.0,0.0,0.0,0.0,0.0,0.0,0.0,0.0,-3.7404,-3.6507,-3.6207,0.0,0.0,0.0,0.0,0.0,0.0,0.0,-3.6806,0.0,0.0,0.0,-4.0224,0.0,0.0,0.0,-4.4077,-4.4167,-4.4825,-4.6441,-4.6052,-4.6561,-4.8446,-4.9568,-5.0315,-5.0584,-5.0378,-5.0076,-4.9611,-4.7991,-4.7294,-4.7564,-4.6373,-4.6269,-4.6959,-4.6755,-4.6601,-4.6506,-4.6506,-4.6446,-4.6301,-4.6301,-4.6301,-4.6301,-4.6301,-4.6301,-4.6301,-4.6301,-4.6301,-4.6301,-2.9846,-3.0378,-3.115,-3.2317,-3.3066,-3.3963,-3.5372,-3.8996,-4.1752,-4.2132,-4.4855,-4.692,-4.7296,-4.695,-4.686,-4.7399,-4.6262,-4.4336,-4.1743,-3.9978,-3.8302,-3.675,-3.5162,-3.4382,-3.4562,-3.2706,-3.1361,-3.0492,-2.9415,-2.8697,-2.8423,-2.8876,-3.0342,-3.2557,-3.4442,-3.6926,-3.9738,0.0,-4.1115,-4.2222,-4.3269,-4.3998,-4.4796,-4.8865,-5.075,-5.1229,-5.1229,-5.1229,-5.096,-4.9374,-4.9134,-4.9254,-4.7638,-4.7339,-4.7369,0.0,0.0,0.0,-4.4635,-4.4396,-4.4047,-4.253,-4.1025,-3.9559,-3.7973,-3.6892,-3.638,0.0,0.0,0.0,0.0,0.0,0.0,0.0,0.0,-3.6776,0.0,-3.6537,0.0,0.0,0.0,0.0,0.0,-4.2154,-4.2761,-4.4646,-4.4257,-4.4945,-4.7189,-4.8835,-4.9837,-5.0196,-4.9802,-4.9415,-4.9042,-4.6943,-4.625,-4.6928,-4.5685,-4.5631,-4.6686,-4.6421,-4.6301,-4.6301,-4.6301,-4.6301,-4.6301,-4.6301,-4.6301,-4.6301,-4.6301,-4.6301,-4.6301,-4.6301,-4.6301,-4.6326,-3.1182,-3.1451,-3.169,-3.2407,-3.3066,-3.4562,-3.7793,-3.896,-4.0636,-4.3808,-4.4885,-4.6591,-4.9717,-5.0046,-5.084,-5.2755,-5.1738,-4.9853,-4.7219,-4.4575,-4.2821,-4.2171,-3.8487,-3.6656,-3.7255,-3.4143,-3.1839,-3.0492,-2.9864,-2.9834,-3.0402,-3.0432,-3.118,-3.2617,-3.5878,-3.8452,-4.0487,-4.2363,-4.5424,-4.888,-4.7638,-4.9045,-5.1588,-4.9284,-4.9553,-5.1229,-5.1229,-5.1229,-5.1109,-5.0375,-5.0136,-5.0046,-4.9404,-4.8745,-4.8237,-4.8207,-4.7728,-4.7249,-4.7189,-4.7189,-4.6262,-4.2372,-4.1354,-4.0307,-3.6477,-3.6845,-3.7729,-3.6742,-3.7828,0.0,0.0,0.0,0.0,0.0,0.0,0.0,0.0,0.0,0.0,0.0,0.0,0.0,0.0,-3.932,-3.9918,-4.321,-4.1654,-4.2521,-4.707,-4.7967,-4.8925,-5.0166,-4.9802,-4.8993,-4.7661,-4.6476,-4.5681,-4.5196,-4.5164,-4.5514,-4.6326,-4.6301,-4.6301,-4.6301,-4.6301,-4.6301,-4.6301,-4.6301,-4.6301,-4.6301,-4.6301,-4.6301,-4.6301,-4.6301,-4.6301,-4.6376,-3.1989,-3.2497,-3.2916,-3.3125,-3.3335,-3.4771,-3.8482,-4.1115,-4.3688,-4.6561,-4.8267,-5.0301,-5.3204,-5.3503,-5.3952,-5.5059,-5.4341,-5.2725,-5.0062,-4.7818,-4.6112,-4.5035,-4.2013,-4.0314,-4.0038,-3.6836,-3.4472,-3.3156,-3.1629,-3.0943,-3.1152,-3.1152,-3.1898,-3.3305,-3.6596,-3.9409,0.0,0.0,0.0,0.0,0.0,-5.0301,-5.2755,-5.1858,-5.1678,-5.1858,-5.1858,-5.1588,-5.1199,-5.096,-5.0554,-5.0136,-4.9972,-4.9464,-4.897,-4.897,-4.882,-4.8596,-4.8596,-4.8596,-4.7848,-4.4736,-4.3,-4.1242,-3.8123,-3.7878,-3.7963,-3.6746,-3.7993,-3.8877,0.0,0.0,0.0,0.0,0.0,0.0,0.0,0.0,0.0,0.0,0.0,0.0,0.0,0.0,-3.8931,-4.1833,-4.1444,-4.2491,-4.5813,-4.7848,-4.9134,-4.9583,-4.9424,-4.8795,-4.761,-4.611,-4.5299,-4.5106,-4.4875,-4.5338,-4.6301,-4.6301,-4.6301,-4.6301,-4.6301,-4.6301,-4.6301,-4.6301,-4.6301,-4.6301,-4.6301,-4.6301,-4.6301,-4.6301,-4.6552,-4.6979,-3.3125,-3.3365,-3.3574,-3.3814,-3.4622,-3.6417,-3.9918,-4.3269,-4.6232,-4.8656,-5.09,-5.3114,-5.5299,-5.5748,-5.6137,-5.6825,-5.6466,-5.491,-5.1768,-5.0601,-4.9224,-4.7459,-4.5274,-4.3808,-4.315,-4.0164,-3.7618,-3.5519,-3.4023,-3.3005,-3.2587,-3.2318,0.0,0.0,-3.7285,-3.9978,-4.2261,-4.5603,-4.7668,0.0,0.0,-5.2037,-5.3563,-5.3803,-5.3324,-5.2546,-5.2546,-5.2127,-5.1558,-5.1558,-5.1139,-5.0554,-5.0554,-5.0152,-4.9613,-4.9613,-4.9464,-4.9284,-4.9194,-4.9148,-4.8552,-4.6007,-4.443,-4.2704,-3.9652,-3.9467,-3.949,-3.8042,-3.8907,-3.9757,0.0,0.0,0.0,0.0,0.0,0.0,0.0,-3.3274,0.0,0.0,0.0,0.0,0.0,0.0,-3.7396,-4.0127,-4.03,0.0,0.0,-4.704,-4.8492,-4.9164,-4.8567,-4.7941,-4.7304,-4.5449,-4.4664,-4.4908,-4.4676,-4.5221,-4.6301,-4.6301,-4.6301,-4.6301,-4.6301,-4.6301,-4.6301,-4.6301,-4.6301,-4.6301,-4.6301,-4.6301,-4.6301,-4.6301,-4.6778,-4.7531,-3.4563,-3.4113,-3.3993,-3.4743,-3.6836,-3.9349,-4.2081,-4.5244,-4.8087,-5.0106,-5.2755,-5.491,-5.6256,-5.6944,-5.7543,-5.8201,-5.8261,-5.6645,-5.2785,-5.3054,-5.2294,-4.9748,-4.8297,-4.7249,-4.6591,-4.3868,-4.0943,-3.7704,-3.6896,-3.5848,-3.4623,0.0,0.0,0.0,-3.7883,0.0,-4.1782,-4.6262,-4.9404,-5.1498,-5.3473,-5.4251,-5.4341,-5.497,-5.4401,-5.3264,-5.3234,-5.2815,-5.2247,-5.2247,-5.1798,-5.1259,-5.1259,-5.0764,-5.0255,-5.0255,-4.9853,-4.9329,-4.9102,-4.901,-4.8445,-4.6255,-4.5652,-4.4592,-4.1074,-4.1519,-4.2235,-4.0491,-4.0707,-4.1498,-4.2353,0.0,0.0,0.0,0.0,0.0,0.0,0.0,0.0,0.0,0.0,0.0,0.0,0.0,-3.5356,-3.8153,-3.8251,0.0,0.0,-4.5502,-4.7016,-4.8711,-4.7364,-4.6643,-4.6632,-4.4507,-4.3852,-4.4618,-4.4618,-4.5221,-4.6301,-4.6301,-4.6301,-4.6301,-4.6301,-4.6301,-4.6301,-4.6301,-4.6301,-4.6301,-4.6301,-4.6326,-4.6351,-4.6376,-4.7054,-4.8033,-3.525,-3.6686,-3.8242,-3.9409,-3.9349,-4.0217,-4.3329,-4.6202,-4.9284,-5.2725,-5.5478,-5.7812,-5.9638,-5.9997,-6.0146,-6.0326,-6.0356,-5.9488,-5.7453,-5.6555,-5.5598,-5.4511,-5.2187,-5.0631,-4.9972,-4.5933,-4.315,-4.1765,-3.8242,-3.6537,-3.6626,0.0,0.0,0.0,0.0,-3.9469,-4.2351,-4.5484,-4.9105,-5.2815,-5.4311,-5.494,-5.497,-5.5119,-5.497,-5.461,-5.4132,-5.3503,-5.2935,-5.2935,-5.2486,-5.1947,-5.1947,-5.1498,-5.096,-5.096,-5.084,-5.072,-5.0627,-5.0488,-5.0033,-4.9038,-4.7495,-4.5844,-4.4428,-4.4415,-4.4238,-4.2334,-4.3289,-4.3679,-4.1389,-4.045,0.0,0.0,0.0,0.0,0.0,0.0,0.0,-3.4891,0.0,0.0,0.0,-3.453,-3.5337,-3.7494,-3.7983,0.0,-4.3449,-4.4567,-4.5667,-4.6865,-4.7088,-4.6643,-4.5475,-4.4698,-4.4442,-4.4618,-4.4618,-4.5221,-4.6301,-4.6301,-4.6301,-4.6301,-4.6301,-4.6301,-4.6301,-4.6301,-4.6301,-4.6301,-4.6301,-4.6552,-4.6979,-4.7355,-4.7933,-4.8636,-3.7225,-3.9559,-4.1893,-4.291,-4.3449,-4.4347,-4.6202,-4.7997,-5.0361,-5.3773,-5.6496,-5.8441,-5.9279,-6.0655,-6.1433,-6.1134,-6.1104,-6.0416,-5.877,-5.8501,-5.7723,-5.6226,-5.4999,-5.3773,-5.2546,-4.9105,-4.6142,-4.3738,-4.0307,0.0,-3.6985,0.0,0.0,0.0,0.0,-3.92,-4.1841,-4.6172,-4.9853,-5.2905,-5.4521,-5.5179,0.0,-5.5179,-5.5179,-5.5149,-5.476,-5.4192,-5.3623,-5.3623,-5.2995,-5.2187,-5.2187,-5.1738,-5.1229,-5.1229,-5.1229,-5.1182,-5.1058,-5.0917,-5.0686,-5.0094,-4.9022,-4.7737,-4.6475,-4.6211,-4.583,-4.448,-4.4477,-4.4418,-4.3378,-4.1544,0.0,0.0,0.0,0.0,0.0,0.0,0.0,0.0,-3.4552,0.0,0.0,-3.4409,-3.4793,-3.5859,-3.7045,0.0,0.0,-4.3316,-4.4732,-4.5463,-4.5998,-4.5809,-4.4913,-4.4235,-4.4189,-4.4618,-4.4618,-4.5221,-4.6301,-4.6301,-4.6301,-4.6301,-4.6301,-4.6301,-4.6301,-4.6301,-4.6301,-4.6326,-4.6577,-4.7154,-4.7883,-4.8184,-4.8485,-4.8862,-3.9918,-4.2581,-4.4975,-4.5484,-4.7818,-4.9808,-5.0168,-5.072,-5.1989,-5.4521,-5.7154,-5.853,-5.7932,-6.0475,-6.2002,-6.1433,-6.1373,-6.0595,-5.877,-5.9727,-5.9279,-5.6915,-5.7154,-5.6496,-5.464,-5.2366,-4.9045,-4.4586,-4.2342,0.0,0.0,0.0,0.0,0.0,0.0,0.0,0.0,-4.7565,-5.1003,-5.2486,-5.4431,-5.5179,-5.5179,-5.5179,-5.5179,-5.5179,-5.5179,-5.482,-5.4341,-5.4341,-5.3503,-5.2456,-5.2456,-5.1947,-5.1349,-5.1349,-5.1289,-5.1152,-5.0917,-5.0822,-5.068,-5.0231,-5.0086,-4.96,-4.7829,-4.7449,-4.7228,-4.6479,-4.5157,-4.46,-4.6049,-4.2727,0.0,0.0,0.0,0.0,0.0,0.0,0.0,0.0,0.0,0.0,0.0,0.0,0.0,0.0,-3.5874,0.0,0.0,0.0,-4.3757,-4.4255,-4.4594,-4.4638,-4.4403,-4.3466,-4.3539,-4.4618,-4.4618,-4.5221,-4.6301,-4.6301,-4.6301,-4.6301,-4.6301,-4.6301,-4.6301,-4.6301,-4.6351,-4.6476,-4.7104,-4.7933,-4.8786,-4.8862,-4.8887,-4.8937,-4.2581,-4.5334,-4.7459,-4.704,-4.9583,-5.2426,-5.464,-5.5478,-5.6466,-5.8052,-6.0565,-6.2151,-6.2032,-6.254,-6.2869,-6.275,-6.272,-6.2361,-6.1463,-6.1613,-6.1283,-6.0296,-5.9279,-5.8082,-5.6615,-5.3054,-4.9494,-4.592,-4.2342,-3.9439,0.0,0.0,0.0,0.0,0.0,0.0,-4.4676,-4.8551,-5.1319,-5.3144,-5.461,-5.5179,-5.5179,-5.5179,-5.5179,-5.5179,-5.5179,-5.5119,-5.5029,-5.5029,-5.4491,-5.3862,-5.3862,-5.3025,-5.2037,-5.2037,-5.1648,-5.1182,-5.1105,-5.0852,-5.0548,-5.0453,-5.0086,-4.9679,-4.933,-4.9272,-4.8779,-4.7247,-4.7004,-4.6379,-4.4224,-4.2337,-4.0303,0.0,0.0,0.0,0.0,0.0,0.0,0.0,0.0,-3.5014,0.0,0.0,0.0,0.0,0.0,-3.666,-3.9728,-4.0645,-4.1462,-4.2442,-4.3759,-4.3883,-4.2667,-4.2846,-4.3539,-4.4618,-4.4618,-4.5221,-4.6301,-4.6301,-4.6301,-4.6301,-4.6301,-4.6301,-4.6301,-4.6301,-4.6577,-4.7079,-4.8083,-4.8611,-4.8837,-4.9289,-4.9439,-4.9464,-4.7249,-4.8716,-5.0032,-5.075,-5.3025,-5.5388,-5.7393,-5.9129,-5.9937,-5.9189,-6.0206,-6.1014,-6.1014,-6.2241,-6.3079,-6.3079,-6.3079,-6.2929,-6.263,-6.2271,-6.1942,-6.1642,-6.0326,-5.9159,-5.8171,-5.494,-5.1498,-4.7848,-4.3898,-4.0576,-3.7883,0.0,0.0,0.0,0.0,-4.1324,0.0,-4.8835,-5.1169,-5.2815,-5.4521,-5.5179,-5.5179,-5.5179,-5.5179,-5.5179,-5.5179,-5.5179,-5.5179,-5.5179,-5.476,-5.4221,-5.4221,-5.3533,-5.2695,-5.2695,-5.2486,-5.2157,-5.1828,-5.1548,-5.125,-5.0637,-5.0309,-5.0038,-4.9766,-4.9717,-4.9288,-4.7857,-4.7234,-4.595,-4.2611,-4.188,-4.0953,-3.8367,-3.7884,0.0,0.0,0.0,0.0,0.0,0.0,0.0,0.0,0.0,0.0,0.0,0.0,-3.6192,-3.8032,-3.9102,-4.021,-4.13,-4.2534,-4.2892,-4.2213,-4.2986,-4.3815,-4.4618,-4.492,-4.5497,-4.6301,-4.6301,-4.6301,-4.6301,-4.6301,-4.6301,-4.6326,-4.6627,-4.723,-4.8033,-4.856,-4.8937,-4.9238,-4.949,-4.959,-4.959,-5.1439,-5.1977,-5.2755,-5.4341,-5.6346,-5.8082,-5.9159,-6.1463,-6.2331,-6.0236,-5.9937,-5.9937,-5.9937,-6.1822,-6.3079,-6.3079,-6.3079,-6.3079,-6.3079,-6.26,-6.2301,-6.2301,-6.1164,-6.0146,-5.9338,-5.7004,-5.3743,-4.9464,-4.5933,-4.2372,-3.8781,0.0,0.0,0.0,0.0,-4.297,-4.6112,-4.9119,-5.1379,-5.2995,-5.47,-5.5388,-5.5388,-5.5388,-5.5299,-5.5179,-5.5179,-5.5179,-5.5179,-5.5179,-5.485,-5.4431,-5.4431,-5.3952,-5.3384,-5.3384,-5.3294,-5.3054,-5.2498,-5.221,-5.1876,-5.0873,-5.0493,-5.0231,-4.9522,-4.9375,-4.8951,-4.7615,-4.6361,-4.456,-4.1462,-4.1658,-4.1282,-3.8431,-3.8167,0.0,0.0,0.0,0.0,0.0,0.0,0.0,-3.3762,0.0,0.0,0.0,0.0,-3.5956,-3.662,-3.7983,-3.9269,-4.0381,-4.1492,-4.2008,-4.1861,-4.3137,-4.4091,-4.4644,-4.5221,-4.5773,-4.6301,-4.6301,-4.6301,-4.6301,-4.6301,-4.6376,-4.6527,-4.7079,-4.7883,-4.8786,-4.8912,-4.9213,-4.959,-4.959,-4.959,-4.959,-5.2965,-5.4461,-5.5777,-5.6008,-5.8112,-5.9847,-5.9967,-6.1762,-6.2989,-6.275,-6.272,-6.272,-6.272,-6.2929,-6.3079,-6.3079,-6.3079,-6.3079,-6.3079,-6.3019,-6.2989,-6.2989,-6.2301,-6.1313,-6.0027,-5.859,-5.5329,-5.0106,-4.7997,-4.4616,-4.0187,-3.9409,-3.9679,-4.0935,-4.3,-4.5454,-4.8147,-5.0242,-5.2576,-5.497,-5.5777,-5.6077,-5.6077,-5.6077,-5.5718,-5.5179,-5.5179,-5.5179,-5.5179,-5.5179,-5.5149,-5.5089,-5.5089,-5.464,-5.4132,-5.4132,-5.3683,-5.3125,-5.2821,-5.2278,-5.1706,-5.1111,-5.0525,-4.9766,-4.8424,-4.8173,-4.7564,-4.5475,-4.4019,-4.2724,-4.118,-4.1909,-4.1639,-3.8267,-3.8807,0.0,0.0,0.0,-3.62,-3.6911,0.0,0.0,0.0,-3.2458,0.0,0.0,-3.4553,-3.5658,-3.7625,-3.7992,-3.8503,-3.9459,-4.1193,-4.1621,-4.0676,-4.276,-4.4091,-4.4644,-4.5221,-4.5773,-4.6301,-4.6301,-4.6301,-4.6301,-4.6301,-4.6602,-4.7104,-4.7606,-4.8209,-4.8812,-4.9314,-4.954,-4.959,-4.959,-4.959,-4.959,-5.6735,-5.6735,-5.7244,-5.886,-5.9338,-6.0027,-6.1642,-6.257,-6.3079,-6.3079,-6.3079,-6.3079,-6.3079,-6.3079,-6.3079,-6.3079,-6.3079,-6.3079,-6.3079,-6.3079,-6.3079,-6.3079,-6.245,-6.1852,-6.1313,-5.9608,-5.6915,-5.3204,-5.0032,-4.6711,-4.3299,-4.1863,-4.2312,-4.4407,-4.5574,-4.7788,-5.075,-5.2336,-5.4072,-5.5837,-5.6466,-5.6735,-5.6735,-5.6735,-5.6555,-5.6286,-5.5927,-5.5777,-5.5718,-5.5329,-5.5179,-5.5179,-5.5179,-5.4999,-5.479,-5.479,-5.461,-5.4311,-5.3774,-5.3446,-5.294,-5.165,-5.1121,-5.0603,-4.9285,-4.8474,-4.7564,-4.5979,-4.4177,-4.2319,-4.0532,-4.0988,-4.1036,-3.9208,-3.9254,-3.938,0.0,0.0,0.0,-3.6251,0.0,-3.307,0.0,-3.2364,0.0,0.0,0.0,-3.4687,-3.6316,-3.6758,-3.7223,-3.7946,-4.0026,-4.1072,-4.1003,-4.3187,-4.4593,-4.5146,-4.5723,-4.61,-4.6301,-4.6301,-4.6301,-4.6326,-4.6652,-4.7104,-4.7631,-4.8184,-4.8761,-4.9289,-4.9515,-4.959,-4.959,-4.959,-4.959,-4.959,-5.9608,-5.8919,-5.9009,-6.1283,-6.0894,-6.0894,-6.278,-6.3079,-6.3079,-6.3079,-6.3079,-6.3079,-6.3079,-6.3079,-6.3079,-6.3079,-6.3079,-6.3079,-6.3079,-6.3079,-6.3079,-6.3079,-6.263,-6.2301,-6.2091,-6.0715,-5.88,-5.6346,-5.2965,-4.9988,-4.7279,-4.5514,-4.5873,-4.8087,-4.8955,-5.072,-5.3144,-5.4311,-5.5538,-5.6795,-5.7214,-5.7393,-5.7393,-5.7393,-5.7274,-5.7034,-5.6585,-5.6436,-5.6376,-5.5897,-5.5628,-5.5448,-5.5239,-5.5179,-5.5179,-5.5179,-5.5179,-5.5039,-5.441,-5.4142,-5.3734,-5.222,-5.1591,-5.1033,-4.98,-4.8465,-4.7019,-4.5421,-4.3677,-4.1927,-4.0255,-4.0277,-4.0249,-3.9373,-3.9345,-3.9263,0.0,-3.7789,0.0,-3.5859,-3.4048,-3.2921,-3.3029,-3.2201,0.0,0.0,0.0,-3.4542,-3.5726,-3.5831,-3.6375,-3.7511,-3.9449,-4.0852,-4.158,-4.3589,-4.492,-4.5497,-4.605,-4.6301,-4.6326,-4.6476,-4.6552,-4.6577,-4.7129,-4.7657,-4.8184,-4.8611,-4.9113,-4.959,-4.959,-4.959,-4.959,-4.959,-4.959,-4.959,-6.0835,-6.1074,-6.1493,-6.281,-6.3049,-6.3049,-6.3079,-6.3079,-6.3079,-6.3079,-6.3079,-6.3079,-6.3079,-6.3079,-6.3079,-6.3079,-6.3079,-6.3079,-6.3079,-6.3079,-6.3079,-6.3079,-6.3079,-6.275,-6.2121,-6.2061,-6.1074,-5.9069,-5.7064,-5.473,-5.2097,-5.075,-5.0794,-5.2187,-5.3533,-5.4521,-5.5209,-5.5867,-5.6915,-5.8112,-5.8058,-5.8112,-5.8112,-5.8112,-5.7693,-5.7094,-5.7094,-5.7094,-5.7094,-5.7064,-5.6675,-5.6047,-5.5388,-5.5179,-5.5179,-5.5179,-5.5179,-5.5078,-5.4458,-5.4036,-5.3612,-5.28,-5.1787,-5.0676,-4.9308,-4.7591,-4.5527,-4.2805,-4.1785,-4.1178,-4.0601,-4.0049,-3.9372,-3.8216,-3.8944,-3.927,-3.8165,-3.7538,0.0,-3.6458,-3.3922,-3.2215,-3.2215,-3.1829,0.0,0.0,-3.4979,-3.5683,-3.6642,-3.5661,-3.6245,-3.8768,-3.9923,-4.1028,-4.2187,-4.379,-4.492,-4.5497,-4.605,-4.6301,-4.6326,-4.6878,-4.7068,-4.7093,-4.7682,-4.8234,-4.8761,-4.8761,-4.9113,-4.959,-4.959,-4.959,-4.959,-4.959,-4.959,-4.959,-6.2361,-6.245,-6.26,-6.3019,-6.3079,-6.3079,-6.3079,-6.3079,-6.3079,-6.3079,-6.3079,-6.3079,-6.3079,-6.3079,-6.3079,-6.3079,-6.3079,-6.3079,-6.3079,-6.3079,-6.3079,-6.3079,-6.3079,-6.2989,-6.278,-6.2331,-6.1553,-6.0475,-5.8471,-5.6376,-5.4221,-5.3354,-5.3653,-5.494,-5.5359,-5.6166,-5.7214,-5.7423,-5.7992,-5.88,-5.88,-5.88,-5.88,-5.88,-5.865,-5.8411,-5.7962,-5.7782,-5.7723,-5.7244,-5.6974,-5.6765,-5.6555,-5.5897,-5.5179,-5.5179,-5.5179,-5.5128,-5.4976,-5.4726,-5.4256,-5.3355,-5.2741,-5.1983,-5.0479,-4.8136,-4.5527,-4.278,-4.2062,-4.1605,-4.0676,-4.0375,-4.0023,-3.927,-3.9446,-3.9446,-3.8693,0.0,-3.7136,-3.696,-3.5479,-3.443,-3.443,-3.435,0.0,0.0,-3.3888,-3.4547,-3.6209,-3.6936,-3.7458,-3.7737,-4.0275,-4.2037,-4.2766,-4.4367,-4.5497,-4.605,-4.6225,-4.6502,-4.6878,-4.6993,-4.733,-4.7682,-4.8259,-4.8611,-4.8812,-4.9163,-4.9439,-4.959,-4.959,-4.959,-4.959,-4.959,-4.959,-4.959,-6.3079,-6.3079,-6.3079,-6.3079,-6.3079,-6.3079,-6.3079,-6.3079,-6.3079,-6.3079,-6.3079,-6.3079,-6.3079,-6.3079,-6.3079,-6.3079,-6.3079,-6.3079,-6.3079,-6.3079,-6.3079,-6.3079,-6.3079,-6.3079,-6.3079,-6.266,-6.2271,-6.1852,-6.0116,-5.862,-5.7393,-5.6735,-5.7004,-5.8022,-5.8022,-5.8471,-5.9219,-5.8979,-5.9099,-5.9458,-5.9189,-5.9099,-5.9099,-5.9099,-5.9099,-5.9069,-5.865,-5.8501,-5.8411,-5.7992,-5.7693,-5.7483,-5.7483,-5.6765,-5.5867,-5.5628,-5.5568,-5.5508,-5.5167,-5.4824,-5.445,-5.373,-5.2872,-5.1575,-4.9282,-4.7313,-4.534,-4.3,-4.2363,-4.1936,-4.0978,-4.0651,-4.0325,-3.9798,-3.9697,-3.9496,-3.8994,-3.8065,-3.7412,0.0,-3.6408,-3.578,-3.5508,-3.5884,-3.5881,-3.5177,-3.5403,-3.6134,-3.7376,-3.7587,-3.7868,-3.8391,-4.1053,-4.2836,-4.3589,-4.4844,-4.5773,-4.6301,-4.6527,-4.6803,-4.7093,-4.7556,-4.7933,-4.8259,-4.8837,-4.9088,-4.9113,-4.9464,-4.959,-4.959,-4.959,-4.959,-4.959,-4.959,-4.959,-4.959,-6.3079,-6.3079,-6.3079,-6.3079,-6.3109,-6.3139,-6.3079,-6.3169,-6.3169,-6.3079,-6.3169,-6.3169,-6.3079,-6.3109,-6.3139,-6.3079,-6.3079,-6.3079,-6.3079,-6.3079,-6.3079,-6.3079,-6.3079,-6.3079,-6.3079,-6.3079,-6.3079,-6.3079,-6.1792,-6.1194,-6.1164,-6.0475,-6.0505,-6.1104,-6.1104,-6.1104,-6.1074,-6.0416,-6.0146,-6.0086,-5.9488,-5.9249,-5.9249,-5.9189,-5.9189,-5.9159,-5.9129,-5.9099,-5.9099,-5.9099,-5.871,-5.8201,-5.8201,-5.7752,-5.7094,-5.6436,-5.6226,-5.6055,-5.5143,-5.4679,-5.4311,-5.4023,-5.2349,-4.9905,-4.6451,-4.5555,-4.5096,-4.3417,-4.269,-4.2137,-4.1505,-4.0953,-4.04,-3.9848,-3.9722,-3.9496,-3.8944,-3.8391,-3.7839,-3.7262,-3.6857,-3.6332,-3.5734,-3.6709,-3.7312,-3.7186,-3.8718,-3.9647,-3.9647,-3.7764,-3.7914,-4.0551,-4.2183,-4.3564,-4.4669,-4.5246,-4.5824,-4.6376,-4.6878,-4.7118,-4.728,-4.8309,-4.8786,-4.8862,-4.9364,-4.959,-4.959,-4.959,-4.959,-4.959,-4.959,-4.959,-4.959,-4.959,-4.959,-4.959,-6.3079,-6.3079,-6.3079,-6.3079,-6.3468,-6.3617,-6.3139,-6.3917,-6.4216,-6.3199,-6.3947,-6.4186,-6.3199,-6.3498,-6.3588,-6.3109,-6.3079,-6.3079,-6.3079,-6.3079,-6.3079,-6.3079,-6.3079,-6.3079,-6.3079,-6.3079,-6.3079,-6.3079,-6.2271,-6.1852,-6.1852,-6.1194,-6.0954,-6.1104,-6.1104,-6.1104,-6.1104,-6.0954,-6.0864,-6.0864,-6.0715,-6.0655,-6.0595,-6.0057,-5.9847,-5.9787,-5.9279,-5.9099,-5.9099,-5.9099,-5.9009,-5.886,-5.886,-5.877,-5.8411,-5.7214,-5.6885,-5.6735,-5.6055,-5.5589,-5.5212,-5.437,-5.2507,-5.0128,-4.7457,-4.6499,-4.5637,-4.3941,-4.3514,-4.3112,-4.2133,-4.1505,-4.0953,-4.04,-3.9973,-3.9346,-3.8341,-3.8467,-3.8291,-3.7312,-3.7888,-3.804,-3.7487,-3.8442,-3.8567,-3.7287,-3.8341,-3.9069,-3.9069,-3.9772,-4.0651,-4.1785,-4.2961,-4.4141,-4.5271,-4.5824,-4.6401,-4.6892,-4.7079,-4.7581,-4.8385,-4.8661,-4.9012,-4.9414,-4.954,-4.959,-4.959,-4.959,-4.959,-4.959,-4.959,-4.959,-4.959,-4.959,-4.959,-4.959,-6.3079,-6.3318,-6.3498,-6.3498,-6.4036,-6.4366,-6.4006,-6.4575,-6.4784,-6.4066,-6.4575,-6.4635,-6.3617,-6.3797,-6.3737,-6.3139,-6.3079,-6.3079,-6.3079,-6.3079,-6.3079,-6.3079,-6.3079,-6.3079,-6.3079,-6.3079,-6.3079,-6.3079,-6.272,-6.254,-6.254,-6.2181,-6.2002,-6.2002,-6.2002,-6.2002,-6.2002,-6.1702,-6.1553,-6.1523,-6.1224,-6.1104,-6.1074,-6.0715,-6.0565,-6.0475,-5.9787,-5.9548,-5.9518,-5.9189,-5.9099,-5.9099,-5.9099,-5.9099,-5.8949,-5.8231,-5.7812,-5.7423,-5.6765,-5.6012,-5.4958,-5.3299,-5.1755,-5.0023,-4.7797,-4.6622,-4.5572,-4.4407,-4.3966,-4.3539,-4.274,-4.1882,-4.11,-4.0601,-4.0049,-3.9396,-3.8517,-3.8668,-3.8793,-3.8366,-3.8868,-3.932,-3.9496,-4.0099,-4.0074,-3.9145,-3.9873,-4.0427,-4.0427,-4.1706,-4.2484,-4.259,-4.3865,-4.4869,-4.5472,-4.6276,-4.6828,-4.7093,-4.7631,-4.8184,-4.8786,-4.9038,-4.9314,-4.959,-4.959,-4.959,-4.959,-4.959,-4.959,-4.959,-4.959,-4.959,-4.959,-4.959,-4.959,-4.959,-6.3228,-6.3707,-6.4156,-6.4156,-6.4725,-6.5144,-6.5054,-6.5203,-6.5263,-6.5054,-6.5203,-6.5024,-6.4246,-6.4156,-6.3887,-6.3258,-6.3139,-6.3079,-6.3079,-6.3079,-6.3079,-6.3079,-6.3079,-6.3079,-6.3079,-6.3079,-6.3079,-6.3079,-6.3079,-6.3079,-6.3079,-6.3079,-6.3079,-6.3079,-6.3079,-6.3079,-6.3049,-6.248,-6.2241,-6.2181,-6.1642,-6.1403,-6.1403,-6.1313,-6.1253,-6.1164,-6.0475,-6.0236,-6.0146,-5.9608,-5.9338,-5.9249,-5.9249,-5.9189,-5.9099,-5.9099,-5.8573,-5.7845,-5.7371,-5.6094,-5.4366,-5.1956,-5.0785,-4.9648,-4.7712,-4.6389,-4.5447,-4.4869,-4.4392,-4.3865,-4.3212,-4.2208,-4.1279,-4.0727,-4.0099,-3.9496,-3.8994,-3.907,-3.927,-3.9647,-3.9848,-4.03,-4.12,-4.1275,-4.1326,-4.1401,-4.1957,-4.2363,-4.2464,-4.3463,-4.384,-4.3363,-4.4744,-4.5573,-4.5723,-4.6652,-4.723,-4.738,-4.8335,-4.8812,-4.8912,-4.9389,-4.959,-4.959,-4.959,-4.959,-4.959,-4.959,-4.959,-4.959,-4.959,-4.959,-4.959,-4.959,-4.964,-4.9715,-6.3857,-6.4395,-6.4874,-6.4874,-6.5413,-6.5652,-6.5114,-6.5981,-6.6281,-6.5173,-6.6011,-6.6221,-6.4994,-6.4874,-6.4605,-6.3917,-6.3378,-6.3079,-6.3079,-6.3079,-6.3079,-6.3079,-6.3079,-6.3079,-6.3079,-6.3079,-6.3079,-6.3079,-6.3079,-6.3079,-6.3079,-6.3079,-6.3079,-6.3079,-6.3079,-6.3079,-6.3079,-6.2959,-6.2929,-6.2929,-6.281,-6.278,-6.272,-6.2151,-6.1942,-6.1852,-6.1194,-6.0954,-6.0954,-6.0835,-6.0416,-5.9937,-5.9937,-5.9548,-5.9099,-5.9099,-5.8242,-5.7456,-5.7845,-5.6447,-5.4507,-5.271,-5.0895,-4.9094,-4.752,-4.6622,-4.6024,-4.5472,-4.5271,-4.492,-4.3865,-4.276,-4.1856,-4.125,-4.035,-3.9496,-3.8994,-3.9672,-4.0124,-3.9747,-4.0526,-4.11,-4.1275,-4.1275,-4.153,-4.2037,-4.259,-4.3062,-4.3514,-4.4618,-4.5196,-4.5095,-4.5347,-4.5924,-4.6878,-4.6993,-4.7606,-4.851,-4.8686,-4.9012,-4.9464,-4.9565,-4.959,-4.959,-4.959,-4.959,-4.959,-4.959,-4.959,-4.959,-4.959,-4.959,-4.959,-4.959,-4.9891,-5.0293,-6.4485,-6.4994,-6.5413,-6.5533,-6.6101,-6.643,-6.6131,-6.661,-6.6759,-6.6161,-6.661,-6.664,-6.5652,-6.5562,-6.5293,-6.4605,-6.3947,-6.3558,-6.3558,-6.3258,-6.3079,-6.3079,-6.3079,-6.3079,-6.3079,-6.3079,-6.3079,-6.3079,-6.3079,-6.3079,-6.3079,-6.3079,-6.3079,-6.3079,-6.3079,-6.3079,-6.3079,-6.3079,-6.3079,-6.3079,-6.3079,-6.3079,-6.3049,-6.275,-6.263,-6.254,-6.1882,-6.1642,-6.1583,-6.1224,-6.0894,-6.0625,-6.0625,-6.0446,-6.0116,-5.9727,-5.8956,-5.7967,-5.6953,-5.6012,-5.4993,-5.3407,-5.14,-4.9501,-4.8343,-4.7389,-4.6602,-4.605,-4.5698,-4.5321,-4.4794,-4.3564,-4.261,-4.266,-4.1254,-4.0249,-4.0654,-4.0576,-4.0752,-4.1379,-4.1907,-4.2459,-4.3006,-4.3056,-4.3212,-4.3463,-4.3714,-4.4116,-4.4669,-4.5196,-4.5748,-4.6351,-4.6376,-4.6627,-4.7129,-4.7732,-4.8259,-4.8761,-4.9063,-4.9339,-4.959,-4.959,-4.959,-4.959,-4.959,-4.959,-4.959,-4.959,-4.959,-4.959,-4.959,-4.959,-4.964,-4.9916,-5.0193,-5.0469,-6.5144,-6.5652,-6.6041,-6.6221,-6.667,-6.6999,-6.6999,-6.6999,-6.6999,-6.6999,-6.6999,-6.6789,-6.6281,-6.6101,-6.5802,-6.5293,-6.4635,-6.4186,-6.4006,-6.3558,-6.3228,-6.3079,-6.3079,-6.3079,-6.3079,-6.3079,-6.3079,-6.3079,-6.3079,-6.3079,-6.3079,-6.3079,-6.3079,-6.3079,-6.3079,-6.3079,-6.3079,-6.3079,-6.3079,-6.3079,-6.3079,-6.3079,-6.3079,-6.3079,-6.3079,-6.3019,-6.251,-6.2331,-6.2241,-6.1732,-6.1463,-6.1343,-6.1343,-6.1253,-6.1014,-6.0475,-5.9598,-5.8232,-5.5934,-5.5134,-5.4682,-5.343,-5.157,-4.9776,-4.9032,-4.8029,-4.7179,-4.6778,-4.625,-4.5824,-4.5698,-4.4418,-4.3413,-4.3589,-4.2082,-4.1178,-4.2087,-4.153,-4.1605,-4.3011,-4.3288,-4.3689,-4.4543,-4.4618,-4.4618,-4.4618,-4.4744,-4.502,-4.5472,-4.5723,-4.6326,-4.728,-4.7305,-4.738,-4.7506,-4.836,-4.8837,-4.8962,-4.9389,-4.959,-4.959,-4.959,-4.959,-4.959,-4.959,-4.959,-4.9615,-4.9741,-4.9791,-4.9791,-4.9941,-4.9992,-5.0042,-5.0469,-5.0695,-5.087,-6.5922,-6.646,-6.6909,-6.6909,-6.6969,-6.6999,-6.6999,-6.6999,-6.6999,-6.6999,-6.6999,-6.6969,-6.6939,-6.637,-6.5981,-6.5951,-6.5323,-6.4695,-6.4036,-6.3947,-6.3677,-6.3109,-6.3079,-6.3079,-6.3079,-6.3079,-6.3079,-6.3079,-6.3079,-6.3079,-6.3079,-6.3079,-6.3079,-6.3079,-6.3079,-6.3079,-6.3079,-6.3079,-6.3079,-6.3079,-6.3079,-6.3079,-6.3079,-6.3079,-6.3079,-6.3079,-6.3019,-6.3019,-6.2989,-6.2959,-6.254,-6.2032,-6.2032,-6.1613,-6.1104,-6.1044,-5.9524,-5.7369,-5.5437,-5.3822,-5.2673,-5.2218,-5.0737,-4.9253,-4.8913,-4.8297,-4.7832,-4.7807,-4.738,-4.6853,-4.6351,-4.5296,-4.4192,-4.3187,-4.2539,-4.2112,-4.2213,-4.259,-4.3037,-4.3664,-4.4192,-4.4543,-4.4618,-4.4618,-4.4618,-4.4618,-4.5121,-4.5447,-4.5497,-4.6451,-4.728,-4.7832,-4.7857,-4.8109,-4.8636,-4.8736,-4.9038,-4.954,-4.9565,-4.959,-4.959,-4.959,-4.959,-4.959,-4.959,-4.959,-4.964,-5.0142,-5.0368,-5.0419,-5.0946,-5.1147,-5.1172,-5.1197,-5.1548,-5.1975,-6.655,-6.6819,-6.6999,-6.6999,-6.6999,-6.6999,-6.6999,-6.6999,-6.6999,-6.6999,-6.6999,-6.6999,-6.6999,-6.6759,-6.661,-6.661,-6.6011,-6.5533,-6.5263,-6.4874,-6.4186,-6.3109,-6.3079,-6.3079,-6.3079,-6.3079,-6.3079,-6.3079,-6.3079,-6.3079,-6.3079,-6.3079,-6.3079,-6.3079,-6.3079,-6.3079,-6.3079,-6.3079,-6.3079,-6.3079,-6.3079,-6.3079,-6.3079,-6.3079,-6.3079,-6.3079,-6.3079,-6.3079,-6.3079,-6.3079,-6.2899,-6.272,-6.272,-6.1992,-6.0706,-5.8639,-5.6837,-5.5183,-5.3717,-5.2757,-5.2174,-5.2024,-5.0761,-4.938,-4.89,-4.8611,-4.8335,-4.7983,-4.7757,-4.7556,-4.733,-4.6401,-4.5648,-4.5573,-4.4217,-4.3413,-4.4116,-4.379,-4.3815,-4.4744,-4.502,-4.5296,-4.5648,-4.5673,-4.5673,-4.5673,-4.62,-4.6502,-4.6502,-4.7556,-4.8234,-4.8435,-4.8761,-4.8887,-4.8761,-4.9113,-4.9389,-4.959,-4.959,-4.959,-4.9615,-4.9941,-5.0117,-5.0117,-5.0494,-5.0645,-5.0645,-5.087,-5.0946,-5.0971,-5.1197,-5.1272,-5.1322,-5.1674,-5.1925,-5.2151,-6.6909,-6.6999,-6.6999,-6.6999,-6.6999,-6.6999,-6.6999,-6.6999,-6.6999,-6.6999,-6.6999,-6.6999,-6.6999,-6.6999,-6.6999,-6.6999,-6.658,-6.6221,-6.6011,-6.5383,-6.4545,-6.3408,-6.3378,-6.3258,-6.3079,-6.3079,-6.3079,-6.3079,-6.3079,-6.3079,-6.3079,-6.3079,-6.3079,-6.3079,-6.3079,-6.3079,-6.3079,-6.3079,-6.3079,-6.3079,-6.3079,-6.3079,-6.3079,-6.3079,-6.3079,-6.3079,-6.3079,-6.3079,-6.3079,-6.3079,-6.3079,-6.3021,-6.2585,-6.1584,-5.9933,-5.7248,-5.5626,-5.4341,-5.293,-5.2272,-5.1888,-5.158,-5.0563,-4.949,-4.9113,-4.9038,-4.8912,-4.851,-4.8309,-4.8184,-4.8184,-4.7431,-4.6878,-4.7043,-4.5849,-4.5121,-4.5899,-4.5347,-4.5146,-4.5924,-4.5999,-4.615,-4.6527,-4.6577,-4.6627,-4.6803,-4.7154,-4.7456,-4.7631,-4.836,-4.8862,-4.9038,-4.9389,-4.9414,-4.9038,-4.9414,-4.959,-4.959,-4.9766,-4.9841,-4.9866,-5.0444,-5.0695,-5.072,-5.1096,-5.1272,-5.1297,-5.1473,-5.1548,-5.1548,-5.1724,-5.18,-5.185,-5.2226,-5.2352,-5.2427,-6.6999,-6.6999,-6.6999,-6.6999,-6.6999,-6.6999,-6.6999,-6.6999,-6.6999,-6.6999,-6.6999,-6.6999,-6.6999,-6.6999,-6.6999,-6.6999,-6.6999,-6.67,-6.6071,-6.5413,-6.4725,-6.4036,-6.4006,-6.3707,-6.3109,-6.3079,-6.3079,-6.3079,-6.3079,-6.3079,-6.3079,-6.3079,-6.3079,-6.3079,-6.3079,-6.3079,-6.3079,-6.3079,-6.3079,-6.3079,-6.3079,-6.3079,-6.3079,-6.3079,-6.3079,-6.3079,-6.3079,-6.3079,-6.3079,-6.3079,-6.3079,-6.2875,-6.1524,-6.0141,-5.8815,-5.7451,-5.6401,-5.5339,-5.3657,-5.2542,-5.1585,-5.0635,-5.0017,-4.9615,-4.9615,-4.9615,-4.9615,-4.959,-4.9163,-4.8786,-4.8786,-4.8309,-4.7732,-4.723,-4.7093,-4.7093,-4.7093,-4.7093,-4.7093,-4.7093,-4.7093,-4.7093,-4.7093,-4.7093,-4.7355,-4.7857,-4.7908,-4.8159,-4.8736,-4.8786,-4.9038,-4.9565,-4.959,-4.959,-4.9615,-4.959,-4.959,-4.9615,-5.0167,-5.0419,-5.0444,-5.1021,-5.1297,-5.1297,-5.1297,-5.1297,-5.1348,-5.1875,-5.2126,-5.2176,-5.2703,-5.2929,-5.2929,-5.2929,-5.2929,-5.2929,-6.6999,-6.6999,-6.6999,-6.6999,-6.6999,-6.6999,-6.6999,-6.6999,-6.6999,-6.6999,-6.6999,-6.6999,-6.6999,-6.6999,-6.6999,-6.6999,-6.6999,-6.6909,-6.67,-6.652,-6.6101,-6.5443,-6.4515,-6.3917,-6.3737,-6.3288,-6.3079,-6.3079,-6.3079,-6.3079,-6.3079,-6.3079,-6.3079,-6.3079,-6.3079,-6.3079,-6.3079,-6.3079,-6.3079,-6.3079,-6.3079,-6.3079,-6.3079,-6.3079,-6.3079,-6.3079,-6.3079,-6.3079,-6.3079,-6.3079,-6.3079,-6.2701,-6.0445,-5.878,-5.7451,-5.6105,-5.5115,-5.4386,-5.3875,-5.2928,-5.1859,-5.1238,-5.0896,-5.067,-5.0268,-5.0167,-5.0067,-4.9665,-4.9464,-4.9339,-4.9339,-4.8887,-4.846,-4.8309,-4.7933,-4.7682,-4.7682,-4.7682,-4.7682,-4.7682,-4.7682,-4.7682,-4.7682,-4.7682,-4.7732,-4.7908,-4.8284,-4.8761,-4.9314,-4.9339,-4.9414,-4.959,-4.959,-4.9791,-5.0167,-4.9791,-4.9791,-5.0167,-5.0343,-5.0619,-5.1046,-5.1599,-5.185,-5.1875,-5.2277,-5.2427,-5.2452,-5.2628,-5.2678,-5.2703,-5.2854,-5.2929,-5.2929,-5.2929,-5.2929,-5.2929,-6.6999,-6.6999,-6.6999,-6.6999,-6.6999,-6.6999,-6.6999,-6.6999,-6.6785,-6.626,-6.6661,-6.6785,-6.6198,-6.6661,-6.6999,-6.6999,-6.6999,-6.6999,-6.6999,-6.6999,-6.6819,-6.64,-6.5353,-6.4545,-6.4006,-6.3617,-6.3318,-6.3079,-6.3079,-6.3079,-6.3079,-6.3079,-6.3079,-6.3079,-6.3079,-6.3079,-6.3079,-6.3079,-6.3079,-6.3079,-6.3079,-6.3079,-6.3079,-6.3079,-6.3079,-6.3021,-6.2526,-6.2321,-6.2204,-6.1703,-6.1197,-6.0445,-5.8815,-5.7386,-5.617,-5.5365,-5.4671,-5.4174,-5.4064,-5.336,-5.2556,-5.2093,-5.1599,-5.1197,-5.0845,-5.077,-5.0594,-5.0042,-4.9916,-4.9841,-4.964,-4.9314,-4.9113,-4.9113,-4.8812,-4.8586,-4.8586,-4.8586,-4.8485,-4.8284,-4.8259,-4.8259,-4.8259,-4.8259,-4.8335,-4.856,-4.8912,-4.9238,-4.9565,-4.9791,-4.9916,-4.9916,-5.0142,-5.0419,-5.0745,-5.0419,-5.0419,-5.077,-5.0971,-5.1272,-5.1624,-5.2176,-5.2427,-5.2452,-5.2779,-5.2929,-5.2929,-5.2929,-5.2929,-5.2929,-5.2929,-5.2929,-5.2929,-5.2929,-5.2929,-5.2929,-6.6846,-6.6785,-6.6785,-6.6785,-6.6785,-6.6846,-6.6999,-6.6999,-6.6538,-6.529,-6.6198,-6.6446,-6.5071,-6.6136,-6.6937,-6.6785,-6.6937,-6.6999,-6.6999,-6.6999,-6.6999,-6.6999,-6.643,-6.5503,-6.4216,-6.4066,-6.3707,-6.3079,-6.3079,-6.3079,-6.3079,-6.3079,-6.3079,-6.3079,-6.3079,-6.3079,-6.3079,-6.3079,-6.3079,-6.3079,-6.3079,-6.3079,-6.3079,-6.3079,-6.3079,-6.2933,-6.1584,-6.1106,-6.0897,-5.956,-5.8214,-5.7092,-5.7092,-5.617,-5.5099,-5.5099,-5.4805,-5.4376,-5.4064,-5.3725,-5.3341,-5.2998,-5.2176,-5.1423,-5.1373,-5.1348,-5.1197,-5.0619,-5.0494,-5.0343,-4.9841,-4.9715,-4.9665,-4.9665,-4.9615,-4.959,-4.959,-4.959,-4.9414,-4.8912,-4.8837,-4.8837,-4.8837,-4.8837,-4.9063,-4.9565,-4.964,-4.9665,-4.9665,-5.0193,-5.0494,-5.0494,-5.0996,-5.1297,-5.1348,-5.1348,-5.1348,-5.1373,-5.1875,-5.2126,-5.2201,-5.2703,-5.2929,-5.2929,-5.2929,-5.2929,-5.2929,-5.2929,-5.2929,-5.2929,-5.2929,-5.2929,-5.2929,-5.2929,-5.2929,-5.2929,-6.5543,-6.5353,-6.5353,-6.5353,-6.5353,-6.5731,-6.6846,-6.6999,-6.6908,-6.66,-6.6785,-6.6446,-6.5071,-6.6136,-6.6538,-6.548,-6.6322,-6.6999,-6.6999,-6.6999,-6.6999,-6.6999,-6.6849,-6.64,-6.5592,-6.4545,-6.3707,-6.3079,-6.3079,-6.3079,-6.3079,-6.3079,-6.3079,-6.3079,-6.3079,-6.3079,-6.3079,-6.3079,-6.3079,-6.3079,-6.3079,-6.3079,-6.3079,-6.3079,-6.3079,-6.2933,-6.1584,-6.1106,-6.0897,-5.956,-5.8214,-5.7092,-5.7092,-5.617,-5.5099,-5.5099,-5.4604,-5.4132,-5.3997,-5.3521,-5.2998,-5.2929,-5.2754,-5.2452,-5.2026,-5.1925,-5.1774,-5.1197,-5.1096,-5.1046,-5.0946,-5.0544,-5.0243,-5.0243,-4.9866,-4.959,-4.959,-4.959,-4.9565,-4.9439,-4.9414,-4.9414,-4.9414,-4.9414,-4.9464,-4.959,-4.9992,-5.0243,-5.0243,-5.077,-5.1096,-5.1096,-5.1222,-5.1498,-5.1925,-5.1925,-5.1925,-5.1925,-5.2051,-5.2327,-5.2754,-5.2879,-5.2929,-5.2929,-5.2929,-5.2929,-5.2929,-5.2929,-5.2929,-5.2929,-5.2929,-5.2929,-5.2929,-5.2929,-5.2929,-5.2929,-6.4016,-6.3887,-6.4081,-6.4816,-6.4339,-6.4339,-6.5794,-6.6011,-6.5513,-6.4146,-6.5731,-6.6198,-6.4146,-6.5134,-6.5416,-6.4016,-6.456,-6.5261,-6.5948,-6.6011,-6.626,-6.6999,-6.6999,-6.67,-6.6011,-6.5323,-6.4485,-6.3528,-6.3228,-6.3079,-6.3079,-6.3079,-6.3079,-6.3079,-6.3079,-6.3079,-6.3079,-6.3079,-6.2701,-6.2145,-6.2145,-6.1762,-6.1197,-6.1197,-6.1197,-6.1017,-5.965,-5.878,-5.8151,-5.7414,-5.6704,-5.617,-5.617,-5.567,-5.5099,-5.5099,-5.4671,-5.4174,-5.4064,-5.3589,-5.3136,-5.2929,-5.2929,-5.2854,-5.2578,-5.2503,-5.2352,-5.18,-5.1674,-5.1599,-5.1322,-5.1021,-5.082,-5.082,-5.0594,-5.0393,-5.0393,-5.0393,-5.0393,-5.0393,-5.0393,-5.0393,-5.0393,-5.0393,-5.0393,-5.0393,-5.067,-5.082,-5.082,-5.1373,-5.1674,-5.1674,-5.1925,-5.2201,-5.2503,-5.2503,-5.2503,-5.2503,-5.2503,-5.2653,-5.2929,-5.2929,-5.2929,-5.2929,-5.2929,-5.2929,-5.2929,-5.2929,-5.2929,-5.2929,-5.2929,-5.2929,-5.2792,-5.205,-5.1327,-5.0741,-6.2442,-6.2442,-6.2773,-6.3952,-6.3235,-6.2906,-6.4339,-6.456,-6.3757,-6.1611,-6.421,-6.548,-6.3366,-6.3952,-6.4081,-6.2906,-6.2773,-6.3366,-6.4816,-6.4688,-6.529,-6.6937,-6.6785,-6.6485,-6.6191,-6.6071,-6.5413,-6.4186,-6.3647,-6.3408,-6.3408,-6.3288,-6.3228,-6.3228,-6.3139,-6.3079,-6.3079,-6.3079,-6.2321,-6.1106,-6.1106,-6.0323,-5.9127,-5.9127,-5.9127,-5.894,-5.7578,-5.6209,-5.5099,-5.5099,-5.5099,-5.5099,-5.5099,-5.5099,-5.5099,-5.5099,-5.4805,-5.4376,-5.4064,-5.3725,-5.3341,-5.2998,-5.2929,-5.2929,-5.2929,-5.2929,-5.2804,-5.2352,-5.2251,-5.2101,-5.1649,-5.1498,-5.1423,-5.1423,-5.1348,-5.1272,-5.1272,-5.1272,-5.1272,-5.1272,-5.1272,-5.1272,-5.1272,-5.1272,-5.1272,-5.1272,-5.1373,-5.1423,-5.1423,-5.195,-5.2251,-5.2251,-5.2678,-5.2929,-5.2929,-5.2929,-5.2929,-5.2929,-5.2929,-5.2929,-5.2929,-5.2929,-5.2929,-5.2929,-5.2929,-5.2929,-5.2861,-5.2629,-5.2491,-5.2491,-5.2189,-5.2119,-5.198,-5.0646,-4.9415,-4.8335,-6.1165,-6.0893,-6.0961,-6.1165,-6.1029,-6.1369,-6.284,-6.3103,-6.3366,-6.421,-6.3757,-6.3692,-6.456,-6.3692,-6.3037,-6.284,-6.2773,-6.3366,-6.4816,-6.3757,-6.4274,-6.6876,-6.5794,-6.5702,-6.6849,-6.6311,-6.5652,-6.4874,-6.4814,-6.4755,-6.4755,-6.4156,-6.3887,-6.3857,-6.3318,-6.3079,-6.3079,-6.3079,-6.2321,-6.1106,-6.1106,-6.0323,-5.9127,-5.9127,-5.9127,-5.894,-5.7578,-5.6209,-5.5099,-5.5099,-5.5099,-5.5099,-5.5099,-5.5099,-5.5099,-5.5099,-5.4604,-5.4064,-5.3997,-5.3521,-5.2998,-5.2929,-5.2929,-5.2929,-5.2929,-5.2929,-5.2904,-5.2829,-5.2804,-5.2804,-5.2729,-5.2327,-5.2,-5.2,-5.1599,-5.1272,-5.1272,-5.1272,-5.1272,-5.1272,-5.1272,-5.1272,-5.1272,-5.1272,-5.1272,-5.1272,-5.1724,-5.2,-5.2,-5.2528,-5.2804,-5.2804,-5.2879,-5.2929,-5.2929,-5.2929,-5.2929,-5.2929,-5.2929,-5.2929,-5.2929,-5.2929,-5.2929,-5.2929,-5.2929,-5.2929,-5.2792,-5.1443,-5.0928,-5.0787,-4.9415,-4.8912,-4.8912,-4.8696,-4.848,-4.8335,-5.9568,-5.9429,-5.9707,-6.0483,-5.9958,-5.9889,-6.1369,-6.1571,-6.1504,-6.1369,-6.2175,-6.2707,-6.248,-6.1947,-6.1233,-6.0441,-6.1097,-6.2148,-6.3627,-6.3887,-6.488,-6.6908,-6.6384,-6.6322,-6.6999,-6.67,-6.6034,-6.4941,-6.4993,-6.5024,-6.5024,-6.4725,-6.4575,-6.4575,-6.4306,-6.4156,-6.4156,-6.3767,-6.2409,-6.0532,-6.0161,-5.869,-5.6834,-5.6834,-5.6834,-5.6769,-5.6236,-5.5604,-5.5099,-5.5099,-5.5099,-5.5099,-5.5099,-5.5099,-5.5099,-5.5099,-5.4898,-5.4537,-5.4132,-5.3793,-5.3384,-5.2998,-5.2929,-5.2929,-5.2929,-5.2929,-5.2929,-5.2929,-5.2929,-5.2929,-5.2929,-5.2729,-5.2578,-5.2578,-5.2352,-5.2201,-5.2201,-5.2201,-5.2201,-5.2201,-5.2201,-5.2201,-5.2201,-5.2201,-5.2201,-5.2201,-5.2427,-5.2578,-5.2578,-5.2804,-5.2929,-5.2929,-5.2929,-5.2929,-5.2929,-5.2929,-5.2929,-5.2929,-5.2929,-5.2929,-5.2929,-5.2929,-5.2929,-5.2929,-5.2929,-5.2929,-5.2861,-5.2189,-5.1373,-5.0505,-4.9843,-4.8552,-4.6949,-4.6949,-4.6433,-4.5639]},{"header":{"parameterUnit":"m.s-1","parameterCategory":1,"la1":30.6,"la2":28.766,"lo1":-90.7593,"lo2":-88.6598,"dy":0.0162,"dx":0.0183,"nx":116,"ny":114,"refTime":"2024-06-12T18:00:00:Z","depth":0,"parameterNumber":3,"parameterNumberName":"V-component_of_WINDS"},"data":[0.0,0.0,0.0,0.0,0.0,0.0,0.0,0.0,0.0,0.0,0.0,0.0,0.0,0.0,0.0,0.0,0.0,0.0,0.0,0.0,0.0,0.0,0.0,0.0,0.0,0.0,0.0,0.0,0.0,0.0,0.0,0.0,0.0,0.0,0.0,0.0,0.0,0.0,0.0,0.0,0.0,0.0,0.0,0.0,0.0,0.0,0.0,0.0,0.0,0.0,0.0,0.0,0.0,0.0,0.0,0.0,0.0,0.0,0.0,0.0,0.0,0.0,0.0,0.0,0.0,0.0,0.0,0.0,0.0,0.0,0.0,0.0,0.0,0.0,0.0,0.0,0.0,0.0,0.0,0.0,0.0,0.0,0.0,0.0,0.0,0.0,0.0,0.0,0.0,0.0,0.0,0.0,0.0,0.0,0.0,0.0,0.0,0.0,0.0,0.0,0.0,0.0,0.0,0.0,0.0,0.0,0.0,0.0,0.0,0.0,0.0,0.0,0.0,0.0,0.0,0.0,0.0,0.0,0.0,0.0,0.0,0.0,0.0,0.0,0.0,0.0,0.0,0.0,0.0,0.0,0.0,0.0,0.0,0.0,0.0,0.0,0.0,0.0,0.0,0.0,0.0,0.0,0.0,0.0,0.0,0.0,0.0,0.0,0.0,0.0,0.0,0.0,0.0,0.0,0.0,0.0,0.0,0.0,0.0,0.0,0.0,0.0,0.0,0.0,0.0,0.0,0.0,0.0,0.0,0.0,0.0,0.0,0.0,0.0,0.0,0.0,0.0,0.0,0.0,0.0,0.0,0.0,0.0,0.0,0.0,0.0,0.0,0.0,0.0,0.0,0.0,0.0,0.0,0.0,0.0,0.0,0.0,0.0,0.0,0.0,0.0,0.0,0.0,0.0,0.0,0.0,0.0,0.0,0.0,0.0,0.0,0.0,0.0,0.0,0.0,0.0,0.0,0.0,0.0,0.0,0.0,0.0,0.0,0.0,0.0,0.0,0.0,0.0,0.0,0.0,0.0,0.0,0.0,0.0,0.0,0.0,0.0,0.0,0.0,0.0,0.0,0.0,0.0,0.0,0.0,0.0,0.0,0.0,0.0,0.0,0.0,0.0,0.0,0.0,0.0,0.0,0.0,0.0,0.0,0.0,0.0,0.0,0.0,0.0,0.0,0.0,0.0,0.0,0.0,0.0,0.0,0.0,0.0,0.0,0.0,0.0,0.0,0.0,0.0,0.0,0.0,0.0,0.0,0.0,0.0,0.0,0.0,0.0,0.0,0.0,0.0,0.0,0.0,0.0,0.0,0.0,0.0,0.0,0.0,0.0,0.0,0.0,0.0,0.0,0.0,0.0,0.0,0.0,0.0,0.0,0.0,0.0,0.0,0.0,0.0,0.0,0.0,0.0,0.0,0.0,0.0,0.0,0.0,0.0,0.0,0.0,0.0,0.0,0.0,0.0,0.0,0.0,0.0,0.0,0.0,0.0,0.0,0.0,0.0,0.0,0.0,0.0,0.0,0.0,0.0,0.0,0.0,0.0,0.0,0.0,0.0,0.0,0.0,0.0,0.0,0.0,0.0,0.0,0.0,0.0,0.0,0.0,0.0,0.0,0.0,0.0,0.0,0.0,0.0,0.0,0.0,0.0,0.0,0.0,0.0,0.0,0.0,0.0,0.0,0.0,0.0,0.0,0.0,0.0,0.0,0.0,0.0,0.0,0.0,0.0,0.0,0.0,0.0,0.0,0.0,0.0,0.0,0.0,0.0,0.0,0.0,0.0,0.0,0.0,0.0,0.0,0.0,0.0,0.0,0.0,0.0,0.0,0.0,0.0,0.0,0.0,0.0,0.0,0.0,0.0,0.0,0.0,0.0,0.0,0.0,0.0,0.0,0.0,0.0,0.0,0.0,0.0,0.0,0.0,0.0,0.0,0.0,0.0,0.0,0.0,0.0,0.0,0.0,0.0,0.0,0.0,0.0,0.0,0.0,0.0,0.0,0.0,0.0,0.0,0.0,0.0,0.0,0.0,0.0,0.0,0.0,0.0,0.0,0.0,0.0,0.0,0.0,0.0,0.0,0.0,0.0,0.0,0.0,0.0,0.0,0.0,0.0,0.0,0.0,0.0,0.0,0.0,0.0,0.0,0.0,0.0,0.0,0.0,0.0,0.0,0.0,0.0,0.0,0.0,0.0,0.0,0.0,0.0,0.0,0.0,0.0,0.0,0.0,0.0,0.0,0.0,0.0,0.0,0.0,0.0,0.0,0.0,0.0,0.0,0.0,0.0,0.0,0.0,0.0,0.0,0.0,0.0,0.0,0.0,0.0,0.0,0.0,0.0,0.0,0.0,0.0,0.0,0.0,0.0,0.0,0.0,0.0,0.0,0.0,0.0,0.0,0.0,0.0,0.0,0.0,0.0,0.0,0.0,0.0,0.0,0.0,0.0,0.0,0.0,0.0,0.0,0.0,0.0,0.0,0.0,0.0,0.0,0.0,0.0,0.0,0.0,0.0,0.0,0.0,0.0,0.0,0.0,0.0,0.0,0.0,0.0,0.0,0.0,0.0,0.0,0.0,0.0,0.0,0.0,0.0,0.0,0.0,0.0,0.0,0.0,0.0,0.0,0.0,0.0,0.0,0.0,0.0,0.0,0.0,0.0,0.0,0.0,0.0,0.0,0.0,0.0,0.0,0.0,0.0,0.0,0.0,0.0,0.0,0.0,0.0,0.0,0.0,0.0,0.0,0.0,0.0,0.0,0.0,0.0,0.0,0.0,0.0,0.0,0.0,0.0,0.0,0.0,0.0,0.0,0.0,0.0,0.0,0.0,0.0,0.0,0.0,0.0,0.0,0.0,0.0,0.0,0.0,0.0,0.0,0.0,0.0,0.0,0.0,0.0,0.0,0.0,0.0,0.0,0.0,0.0,0.0,0.0,0.0,0.0,0.0,0.0,0.0,0.0,0.0,0.0,0.0,0.0,0.0,0.0,0.0,0.0,0.0,0.0,0.0,0.0,0.0,0.0,0.0,0.0,0.0,0.0,0.0,0.0,0.0,0.0,0.0,0.0,0.0,0.0,0.0,0.0,0.0,0.0,0.0,0.0,0.0,0.0,0.0,0.0,0.0,0.0,0.0,0.0,0.0,0.0,0.0,0.0,0.0,0.0,0.0,0.0,0.0,0.0,0.0,0.0,0.0,0.0,0.0,0.0,0.0,0.0,0.0,0.0,0.0,0.0,0.0,0.0,0.0,0.0,0.0,0.0,0.0,0.0,0.0,0.0,0.0,0.0,0.0,0.0,0.0,0.0,0.0,0.0,0.0,0.0,0.0,0.0,0.0,0.0,0.0,0.0,0.0,0.0,0.0,0.0,0.0,0.0,0.0,0.0,0.0,0.0,0.0,0.0,0.0,0.0,0.0,0.0,0.0,0.0,0.0,0.0,0.0,0.0,0.0,0.0,0.0,0.0,0.0,0.0,0.0,0.0,0.0,0.0,0.0,0.0,0.0,0.0,0.0,0.0,0.0,0.0,0.0,0.0,0.0,0.0,0.0,0.0,0.0,0.0,0.0,0.0,0.0,0.0,0.0,0.0,0.0,0.0,0.0,0.0,0.0,0.0,0.0,0.0,0.0,0.0,0.0,0.0,0.0,0.0,0.0,0.0,0.0,0.0,0.0,0.0,0.0,0.0,0.0,0.0,0.0,0.0,0.0,0.0,0.0,0.0,0.0,0.0,0.0,0.0,0.0,0.0,0.0,0.0,0.0,0.0,0.0,0.0,0.0,0.0,0.0,0.0,0.0,0.0,0.0,0.0,0.0,0.0,0.0,0.0,0.0,0.0,0.0,0.0,0.0,0.0,0.0,0.0,0.0,0.0,0.0,0.0,0.0,0.0,0.0,0.0,0.0,0.0,0.0,0.0,0.0,0.0,0.0,0.0,0.0,0.0,0.0,0.0,0.0,0.0,0.0,0.0,0.0,0.0,0.0,0.0,0.0,0.0,0.0,0.0,0.0,0.0,0.0,0.0,0.0,0.0,0.0,0.0,0.0,0.0,0.0,0.0,0.0,0.0,0.0,0.0,0.0,0.0,0.0,0.0,0.0,0.0,0.0,0.0,0.0,0.0,0.0,0.0,0.0,0.0,0.0,0.0,0.0,0.0,0.0,0.0,0.0,0.0,0.0,0.0,0.0,0.0,0.0,0.0,0.0,0.0,0.0,0.0,0.0,0.0,0.0,0.0,0.0,0.0,0.0,0.0,0.0,0.0,0.0,0.0,0.0,0.0,0.0,0.0,0.0,0.0,0.0,0.0,0.0,0.0,0.0,0.0,0.0,0.0,0.0,0.0,0.0,0.0,0.0,0.0,0.0,0.0,0.0,0.0,0.0,0.0,0.0,0.0,0.0,0.0,0.0,0.0,0.0,0.0,0.0,0.0,0.0,0.0,0.0,0.0,0.0,0.0,0.0,0.0,0.0,0.0,0.0,0.0,0.0,0.0,0.0,0.0,0.0,0.0,0.0,0.0,0.0,0.0,0.0,0.0,0.0,0.0,0.0,0.0,0.0,0.0,0.0,0.0,0.0,0.0,0.0,0.0,0.0,0.0,0.0,0.0,0.0,0.0,0.0,0.0,0.0,0.0,0.0,0.0,0.0,0.0,0.0,0.0,0.0,0.0,0.0,0.0,0.0,0.0,0.0,0.0,0.0,0.0,0.0,0.0,0.0,0.0,0.0,0.0,0.0,0.0,0.0,0.0,0.0,0.0,0.0,0.0,0.0,0.0,0.0,0.0,0.0,0.0,0.0,0.0,0.0,0.0,0.0,0.0,0.0,0.0,0.0,0.0,0.0,0.0,0.0,0.0,0.0,0.0,0.0,0.0,0.0,0.0,0.0,0.0,0.0,0.0,0.0,0.0,0.0,0.0,0.0,0.0,0.0,0.0,0.0,0.0,0.0,0.0,0.0,0.0,0.0,0.0,0.0,0.0,0.0,0.0,0.0,0.0,0.0,0.0,0.0,0.0,0.0,0.0,0.0,0.0,0.0,0.0,0.0,0.0,0.0,0.0,0.0,0.0,0.0,0.0,0.0,0.0,0.0,0.0,0.0,0.0,0.0,0.0,0.0,0.0,0.0,0.0,0.0,0.0,0.0,0.0,0.0,0.0,0.0,0.0,0.0,0.0,0.0,0.0,0.0,0.0,0.0,0.0,0.0,0.0,0.0,0.0,0.0,0.0,0.0,0.0,0.0,0.0,0.0,0.0,0.0,0.0,0.0,0.0,0.0,0.0,0.0,0.0,0.0,0.0,0.0,0.0,0.0,0.0,0.0,0.0,0.0,0.0,0.0,0.0,0.0,0.0,0.0,0.0,0.0,0.0,0.0,0.0,0.0,0.0,0.0,0.0,0.0,0.0,0.0,0.0,0.0,0.0,0.0,0.0,0.0,0.0,0.0,0.0,0.0,0.0,0.0,0.0,0.0,0.0,0.0,0.0,0.0,0.0,0.0,0.0,0.0,0.0,0.0,0.0,0.0,0.0,0.0,0.0,0.0,0.0,0.0,0.0,0.0,0.0,0.0,0.0,0.0,0.0,0.0,0.0,0.0,0.0,0.0,0.0,0.0,0.0,0.0,0.0,0.0,0.0,0.0,0.0,0.0,0.0,0.0,0.0,0.0,0.0,0.0,0.0,0.0,0.0,0.0,0.0,0.0,0.0,0.0,0.0,0.0,0.0,0.0,0.0,0.0,0.0,0.0,0.0,0.0,0.0,0.0,0.0,0.0,0.0,0.0,0.0,0.0,0.0,0.0,0.0,0.0,0.0,0.0,0.0,0.0,0.0,0.0,0.0,0.0,0.0,0.0,0.0,0.0,0.0,0.0,0.0,0.0,0.0,0.0,0.0,0.0,0.0,0.0,0.0,0.0,0.0,0.0,0.0,0.0,0.0,0.0,0.0,0.0,0.0,0.0,0.0,0.0,0.0,0.0,0.0,0.0,0.0,0.0,0.0,0.0,0.0,0.0,0.0,0.0,0.0,0.0,0.0,0.0,0.0,0.0,0.0,0.0,0.0,0.0,0.0,0.0,0.0,0.0,0.0,0.0,0.0,0.0,0.0,0.0,0.0,2.669,0.0,0.0,0.0,0.0,0.0,0.0,0.0,0.0,0.0,0.0,0.0,0.0,0.0,0.0,0.0,0.0,0.0,0.0,0.0,0.0,0.0,0.0,0.0,0.0,1.6819,1.7311,1.8564,1.8681,1.8826,1.9165,0.0,0.0,0.0,0.0,0.0,1.7102,1.6372,1.6382,1.717,1.7215,1.7646,1.8461,1.8941,1.8461,1.7206,0.0,0.0,0.0,0.0,0.0,0.0,0.0,0.0,0.0,0.0,0.0,0.0,0.0,0.0,0.0,0.0,0.0,0.0,0.0,0.0,0.0,0.0,0.0,0.0,0.0,0.0,0.0,0.0,0.0,0.0,0.0,0.0,0.0,0.0,0.0,0.0,0.0,0.0,0.0,0.0,0.0,0.0,0.0,0.0,0.0,0.0,0.0,0.0,0.0,0.0,0.0,0.0,0.0,0.0,0.0,0.0,0.0,0.0,0.0,0.0,0.0,0.0,0.0,0.0,0.0,0.0,0.0,0.0,0.0,0.0,0.0,2.8839,0.0,0.0,0.0,0.0,0.0,0.0,0.0,0.0,0.0,0.0,0.0,0.0,0.0,0.0,0.0,0.0,0.0,0.0,0.0,0.0,0.0,1.5242,1.7078,1.7335,1.7847,1.9046,1.9046,1.8998,1.9037,1.8615,0.0,0.0,0.0,1.6979,1.7056,1.6487,1.673,1.7885,1.8552,1.9757,2.1453,2.1267,2.0043,1.804,1.7735,0.0,0.0,0.0,0.0,0.0,0.0,0.0,0.0,0.0,0.0,0.0,0.0,0.0,0.0,0.0,0.0,0.0,0.0,0.0,0.0,0.0,0.0,0.0,0.0,0.0,0.0,0.0,0.0,0.0,0.0,0.0,0.0,0.0,0.0,0.0,0.0,0.0,0.0,0.0,0.0,0.0,0.0,0.0,0.0,0.0,0.0,0.0,0.0,0.0,0.0,0.0,0.0,0.0,0.0,0.0,0.0,0.0,0.0,0.0,0.0,0.0,0.0,0.0,3.2705,3.3863,3.571,3.5587,3.6196,3.7244,3.4111,3.3237,3.3808,3.1662,0.0,0.0,0.0,0.0,0.0,0.0,0.0,0.0,0.0,0.0,0.0,0.0,0.0,0.0,0.0,0.0,0.0,0.0,0.0,1.5705,1.704,1.7737,1.8385,1.9204,1.8849,1.8627,1.8748,1.8228,0.0,0.0,1.7429,1.7315,1.7679,1.7385,1.7661,1.8666,1.9811,2.123,2.282,2.1863,2.1736,2.2246,2.1183,2.0626,2.0452,0.0,0.0,0.0,0.0,0.0,0.0,0.0,0.0,0.0,0.0,0.0,0.0,0.0,0.0,0.0,0.0,0.0,0.0,0.0,0.0,0.0,0.0,0.0,0.0,0.0,0.0,0.0,0.0,0.0,0.0,0.0,0.0,0.0,0.0,0.0,0.0,0.0,0.0,0.0,0.0,0.0,2.0025,2.1203,0.0,0.0,0.0,0.0,0.0,0.0,0.0,0.0,0.0,0.0,0.0,0.0,0.0,3.1615,3.2968,3.4073,3.4881,3.5462,3.6329,3.7359,3.8477,3.847,3.9226,4.0458,3.9462,0.0,3.5762,3.4752,0.0,0.0,0.0,0.0,0.0,0.0,0.0,0.0,0.0,0.0,0.0,0.0,0.0,0.0,0.0,0.0,0.0,0.0,0.0,0.0,0.0,1.8389,1.9039,1.9817,1.9915,1.9734,1.9195,1.8643,1.8089,1.7494,1.7052,1.7059,1.7562,1.7756,1.8955,2.1237,2.2711,2.3979,2.4983,2.4538,2.4563,2.4991,2.4448,2.3098,2.1141,2.0047,0.0,0.0,0.0,0.0,0.0,0.0,0.0,0.0,0.0,0.0,0.0,0.0,0.0,0.0,0.0,0.0,0.0,0.0,0.0,0.0,0.0,0.0,0.0,0.0,0.0,0.0,0.0,0.0,0.0,0.0,0.0,0.0,0.0,0.0,0.0,0.0,0.0,0.0,0.0,2.0579,2.2378,2.3487,2.3594,2.3545,0.0,0.0,0.0,0.0,0.0,0.0,0.0,0.0,0.0,3.1361,3.2714,3.398,3.5233,3.6015,3.6799,3.7564,3.8458,3.9549,4.0739,4.1188,4.2039,4.3118,4.2846,4.1692,3.983,3.7951,3.623,3.4697,0.0,0.0,0.0,0.0,3.5038,3.5938,0.0,0.0,0.0,0.0,0.0,0.0,0.0,0.0,0.0,0.0,0.0,0.0,1.8372,1.91,1.9811,2.0697,2.0997,2.0839,2.0051,1.9167,1.8283,1.7502,1.6845,1.6798,1.7398,1.8606,2.074,2.3722,2.5285,2.6389,2.7128,2.6977,2.6977,2.7128,2.6977,2.5337,2.2585,2.159,2.0458,0.0,0.0,0.0,0.0,0.0,0.0,0.0,0.0,0.0,0.0,0.0,0.0,0.0,0.0,0.0,0.0,0.0,0.0,0.0,0.0,0.0,0.0,0.0,0.0,0.0,0.0,0.0,0.0,0.0,0.0,0.0,0.0,0.0,0.0,0.0,0.0,0.0,0.0,2.2985,2.4743,2.5707,2.636,2.6505,0.0,0.0,0.0,0.0,0.0,0.0,3.0676,3.2087,3.3303,3.4246,3.5304,3.629,3.7228,3.7613,3.8214,3.9008,3.9634,4.0557,4.1813,4.2369,4.3282,4.4361,4.454,4.4176,4.336,4.1021,3.9222,3.7951,3.7781,3.7587,3.7539,3.8581,3.9363,4.0089,0.0,0.0,0.0,0.0,0.0,0.0,0.0,0.0,0.0,0.0,0.0,1.7226,1.8974,1.9811,2.0726,2.1926,2.1562,2.1326,2.1403,1.9409,1.8202,1.8152,1.7099,1.6798,1.7398,2.0489,2.3201,2.546,2.664,2.7745,2.8762,2.8273,2.8298,2.8737,2.8247,2.7379,2.6131,2.4494,2.2888,2.1255,0.0,0.0,0.0,0.0,0.0,0.0,0.0,0.0,0.0,0.0,0.0,0.0,0.0,0.0,0.0,0.0,0.0,0.0,0.0,0.0,0.0,0.0,0.0,0.0,0.0,0.0,0.0,0.0,0.0,0.0,0.0,0.0,0.0,0.0,0.0,0.0,0.0,0.0,0.0,2.777,2.9165,0.0,0.0,0.0,0.0,3.1052,3.1821,3.282,3.407,3.4969,3.5905,3.6964,3.8046,3.8888,3.9441,3.9465,3.9513,3.9561,3.9616,4.0056,4.0848,4.0902,4.1788,4.3385,4.395,4.466,4.5265,4.3761,4.2099,4.0448,4.0756,4.0485,3.9992,4.0699,4.1366,4.2034,0.0,0.0,0.0,0.0,0.0,1.5536,1.5373,1.5633,1.6016,1.64,1.7534,1.8576,1.9409,2.1033,2.2238,2.2709,2.2934,2.2748,2.2046,2.0263,1.9409,1.9786,1.8731,1.9233,2.1594,2.3477,2.5335,2.7218,2.7971,2.8725,2.9478,2.9277,2.9302,2.9478,2.9277,2.8775,2.7946,2.6289,2.4664,2.3004,2.1468,1.9635,0.0,0.0,0.0,0.0,0.0,0.0,0.0,0.0,0.0,0.0,0.0,0.0,0.0,0.0,0.0,0.0,0.0,0.0,0.0,0.0,0.0,0.0,0.0,0.0,0.0,0.0,0.0,0.0,0.0,0.0,0.0,0.0,0.0,0.0,0.0,0.0,0.0,3.0955,3.2043,0.0,3.1737,3.2002,3.2626,3.3542,3.4462,3.5522,3.6684,3.7641,3.8359,3.8743,3.9128,3.9585,4.0114,4.0114,4.0282,4.0619,4.0956,4.1558,4.2382,4.2382,4.3164,4.4481,4.5076,4.5378,4.5532,4.6083,4.5496,4.4246,4.431,4.4177,4.3991,4.4153,4.4327,4.456,0.0,0.0,0.0,0.0,1.5086,1.5374,1.5298,1.5805,1.6371,1.6814,1.8076,1.9358,2.0415,2.2021,2.3276,2.3879,2.4155,2.3954,2.317,2.1418,2.0539,2.0943,2.0439,2.1415,2.423,2.5511,2.6892,2.8373,2.895,2.9428,2.9804,2.9804,2.9804,2.9804,2.9804,2.9578,2.9151,2.8047,2.6549,2.4732,2.3602,2.2142,2.0487,0.0,0.0,0.0,0.0,0.0,0.0,0.0,0.0,0.0,0.0,0.0,0.0,0.0,0.0,0.0,0.0,0.0,0.0,0.0,0.0,0.0,0.0,0.0,0.0,0.0,0.0,0.0,0.0,0.0,0.0,0.0,0.0,0.0,0.0,0.0,3.1923,3.2974,3.4124,3.4559,3.3885,3.4463,3.516,3.5833,3.6867,3.7781,3.8503,3.9561,4.0138,4.0138,4.0475,4.0836,4.1196,4.1196,4.1365,4.1725,4.2179,4.2701,4.3259,4.3259,4.3951,4.5145,4.5566,4.5955,4.6438,4.769,4.7871,4.7421,4.6899,4.6649,4.6667,4.6587,4.6388,4.6156,0.0,0.0,0.0,1.3629,1.4554,1.5374,1.5298,1.5834,1.651,1.7283,1.8079,1.9462,2.1847,2.2731,2.3797,2.546,2.5134,2.48,2.48,2.2723,2.1518,2.1568,2.2146,2.3221,2.4876,2.6515,2.7871,2.8913,2.9528,2.9804,2.9804,2.9804,2.9829,2.9854,2.9829,2.9804,2.9804,2.9804,2.8549,2.6499,2.536,2.4582,2.3753,0.0,0.0,0.0,0.0,0.0,0.0,0.0,0.0,0.0,0.0,0.0,0.0,0.0,0.0,0.0,0.0,0.0,0.0,0.0,0.0,0.0,0.0,0.0,0.0,0.0,0.0,0.0,0.0,0.0,0.0,0.0,0.0,0.0,2.945,3.1834,3.3586,3.3706,3.5355,3.6074,3.5015,3.6819,3.8046,3.8046,3.9032,3.9657,3.9657,4.0667,4.122,4.122,4.2289,4.2819,4.2819,4.2819,4.2819,4.2819,4.3117,4.3211,4.3211,4.3211,4.3943,4.5106,4.5374,4.6391,4.8011,4.8666,4.9171,4.9533,4.8304,4.7811,4.7811,4.7782,4.7375,4.672,0.0,0.0,1.4343,1.4485,1.5003,1.5374,1.5298,1.6211,1.6924,1.69,1.893,2.0716,2.1568,2.3261,2.465,2.5536,2.5134,2.48,2.48,2.2723,2.202,2.3251,2.4983,2.6515,2.7734,2.8211,2.8825,2.9553,2.9704,3.0005,3.0382,3.0382,3.0583,3.0934,3.0557,3.0382,3.0357,2.9955,2.9428,2.8775,2.7645,2.6389,2.4983,0.0,0.0,0.0,0.0,0.0,0.0,0.0,0.0,0.0,0.0,0.0,0.0,0.0,0.0,0.0,0.0,0.0,0.0,0.0,0.0,0.0,0.0,0.0,0.0,0.0,0.0,0.0,0.0,0.0,0.0,0.0,0.0,3.2646,3.2646,3.4161,3.5502,3.6126,3.7376,3.8046,3.7757,3.8599,3.9152,3.9152,4.0138,4.0739,4.0739,4.1749,4.2386,4.2386,4.2675,4.2819,4.2819,4.2819,4.2819,4.2819,4.3241,4.353,4.377,4.377,4.4274,4.5103,4.6495,4.6988,4.6965,4.9728,5.0109,4.8991,4.8605,4.8449,4.842,4.7956,4.7666,4.7433,0.0,1.4341,1.4795,1.4932,1.5193,1.5374,1.5298,1.6385,1.7174,1.7079,1.9427,2.1272,2.1781,2.3427,2.4682,2.5234,2.4983,2.46,2.4123,2.3125,2.3276,2.4958,2.6691,2.8047,2.8863,2.9364,2.9765,3.0131,3.0357,3.0633,3.0934,3.0934,3.111,3.1386,3.106,3.0934,3.0909,3.0357,3.0131,3.0055,2.9176,2.8222,2.7193,2.5644,2.4757,2.4255,2.3251,2.2799,2.2569,2.2297,0.0,0.0,0.0,0.0,0.0,0.0,0.0,0.0,0.0,0.0,0.0,0.0,0.0,0.0,0.0,0.0,0.0,0.0,0.0,0.0,0.0,0.0,0.0,0.0,3.3454,3.5322,3.5867,3.6427,3.7043,3.7781,3.8623,3.9152,3.9152,3.9826,4.0258,4.0258,4.1244,4.1846,4.1846,4.2615,4.3072,4.3072,4.3313,4.3494,4.3675,4.3675,4.3735,4.3856,4.4269,4.4597,4.4779,4.4779,4.502,4.562,4.6508,4.7114,4.7577,4.9656,5.0271,0.0,0.0,0.0,0.0,0.0,4.8188,4.8101,0.0,1.4854,1.538,1.5137,1.5309,1.5433,1.5313,1.6401,1.7317,1.7652,1.9691,2.1403,2.2217,2.3306,2.4205,2.465,2.475,2.4399,2.3446,2.3954,2.5016,2.66,2.7645,2.8473,2.9063,3.0066,3.0633,3.0708,3.116,3.1411,3.1486,3.1486,3.1512,3.1587,3.1512,3.1486,3.1461,3.0934,3.0708,3.0658,3.0105,2.9854,2.9578,2.7555,2.7077,2.7268,2.5737,2.455,2.3747,2.3672,0.0,0.0,0.0,0.0,0.0,0.0,0.0,0.0,0.0,0.0,0.0,0.0,0.0,0.0,0.0,0.0,0.0,0.0,0.0,0.0,0.0,0.0,0.0,0.0,3.5705,3.7543,3.8718,3.8562,3.846,3.8918,3.9369,3.9705,3.9777,4.0691,4.1293,4.1365,4.2279,4.2916,4.2916,0.0,0.0,0.0,0.0,4.4591,4.4949,4.4949,4.5134,4.5503,4.5809,4.593,4.5991,4.5942,4.6099,4.6401,4.6145,4.7133,4.8892,4.9086,5.0041,5.1439,5.0896,5.0357,4.9698,4.9059,4.8827,4.874,0.0,1.5657,1.5781,1.573,1.5863,1.5797,1.5358,1.6434,1.7493,1.8079,1.9867,2.1423,2.2211,2.3318,2.4029,2.4155,2.4525,2.4876,2.5109,0.0,2.6549,2.7745,2.8423,2.9214,3.0281,3.0507,3.0809,3.1235,3.1336,3.1612,3.2064,3.2064,3.2315,3.2742,3.2265,3.2064,3.2014,3.1461,3.1235,3.1185,3.0658,3.0181,2.9704,2.88,2.8524,2.8499,2.7745,2.7584,2.7709,2.7293,2.6414,2.5418,2.4865,0.0,0.0,0.0,0.0,0.0,0.0,0.0,0.0,0.0,0.0,0.0,0.0,0.0,0.0,0.0,0.0,0.0,0.0,0.0,0.0,3.6185,3.7792,3.8956,3.9382,3.9916,4.0165,3.9795,4.0065,4.0403,4.0836,4.1461,4.199,4.2482,4.3024,4.3361,4.3361,4.389,4.4309,4.4804,4.4861,4.5315,4.6066,4.6066,4.6319,4.6672,0.0,0.0,4.7172,4.6687,4.6611,4.6954,4.7444,4.7925,4.8316,4.9344,5.0243,5.0922,5.0738,5.0598,5.0444,4.9727,4.9494,4.9407,1.66,1.6556,1.6396,1.6235,1.615,1.6032,1.5872,1.6686,1.7458,1.7923,1.9801,2.0973,2.0682,2.1882,2.2483,2.1948,2.2673,2.3853,0.0,2.6172,2.7102,2.8448,2.9051,2.9754,3.0608,3.0859,3.126,3.1813,3.2089,3.2365,3.2641,3.2641,3.2792,3.3111,3.2767,3.2641,3.2616,3.2039,3.1813,3.1763,3.121,3.0683,3.0156,2.9578,2.9352,2.9327,2.9051,2.895,2.8838,2.8562,2.7971,2.7193,2.6615,2.5485,2.4054,0.0,0.0,0.0,0.0,0.0,0.0,0.0,0.0,0.0,0.0,0.0,0.0,0.0,0.0,3.1863,0.0,0.0,3.6762,3.8066,3.939,4.0383,4.0607,4.1016,4.0985,4.0297,4.0805,4.1293,4.1557,4.2279,4.2856,4.312,4.3625,4.4058,4.4299,4.4525,4.4933,4.5438,4.5525,4.5773,4.6357,4.6357,4.6675,4.7181,4.7181,4.737,4.7658,4.7383,4.7345,4.7481,4.7571,4.7947,4.8603,5.0123,5.1316,5.2133,5.1786,5.1287,5.0676,5.0307,5.0008,4.964,1.737,1.7289,1.6984,1.6565,1.6435,1.6391,1.6419,1.7027,1.7637,1.793,1.9682,2.0466,1.9245,2.0372,2.0914,2.019,2.1167,0.0,0.0,2.6424,2.7469,2.9026,2.9654,3.0206,3.0758,3.1286,3.1813,3.2365,3.2842,3.3111,3.3111,3.3111,3.3111,3.3111,3.3111,3.3111,3.3086,3.2566,3.2365,3.234,3.1763,3.1235,3.0708,3.0156,2.988,2.9804,2.9804,2.9428,2.8913,2.9013,2.8725,2.8197,2.7871,2.7429,2.654,2.4531,2.4104,0.0,0.0,0.0,0.0,0.0,0.0,0.0,0.0,0.0,3.0231,3.2667,3.3721,3.4796,3.6556,3.7739,3.8768,3.9588,4.0693,4.1547,4.1698,4.1737,4.1478,4.0717,4.1504,4.2131,4.2169,4.2976,4.3601,4.3818,4.4189,4.4669,4.5197,4.5285,4.5525,4.6054,4.6143,4.6384,4.6801,4.6865,4.7248,4.7819,4.7819,4.7945,4.8234,4.8134,4.8083,4.8033,4.7626,4.787,4.8666,5.0597,5.192,5.2779,5.2502,5.1895,5.1033,5.0888,5.0423,4.9921,0.0,1.7479,1.7253,1.6591,1.7019,1.7202,1.6509,1.7474,1.8449,1.8873,1.9667,2.0031,1.9588,2.0191,2.0785,2.1272,2.2322,0.0,2.6248,2.7344,2.8448,2.9654,3.0231,3.0758,3.1286,3.1838,3.2416,3.2993,3.3086,3.3111,3.3111,3.3111,3.3111,3.3111,3.3111,3.3111,3.3111,3.3061,3.2993,3.2943,3.2365,3.1788,3.1235,3.0708,3.0206,2.9804,2.9804,2.9428,2.8963,2.9528,2.9302,2.8888,2.9377,2.9126,2.8398,2.7168,0.0,2.536,2.5109,2.5561,2.6725,2.9227,2.9654,3.0583,0.0,0.0,3.5031,3.6358,3.7487,3.8341,3.8592,3.9496,4.0398,4.1,4.1656,4.2028,4.1748,4.1917,4.1899,4.1509,4.1986,4.2428,4.2675,4.3168,4.3914,4.4813,4.4957,4.5221,4.5814,4.5838,4.6078,4.6607,4.6891,4.7434,4.8338,4.8639,4.9028,4.935,4.935,4.935,4.9389,4.8912,4.8686,4.8674,4.873,4.8146,4.742,4.9316,5.0182,5.0406,5.14,5.2027,5.2333,5.173,5.112,5.0618,0.0,1.7503,1.735,1.685,1.7246,1.7491,1.7155,1.7916,1.859,1.8788,1.9609,1.9765,1.8678,1.8565,1.8851,1.9535,2.1167,2.3125,2.536,2.7143,2.8624,2.9754,3.0306,3.0859,3.1386,3.1938,3.2491,3.3111,3.3111,3.3111,3.3111,3.3111,3.3111,3.3111,3.3111,3.3111,3.3111,3.3111,3.3111,3.3068,3.2817,3.219,3.1361,3.116,3.0331,2.9302,2.9302,2.9088,0.0,0.0,2.8875,2.8938,2.9227,2.89,2.8373,2.7896,2.7645,0.0,2.8699,2.9628,3.0622,0.0,3.2842,3.4173,3.6279,3.6609,3.681,3.7939,3.9044,3.9823,3.9823,4.0727,4.1555,0.0,4.2283,4.2524,4.2246,4.2276,4.2019,4.1225,4.207,4.2686,4.2771,4.3397,4.4268,4.5358,4.5619,4.5983,4.6601,4.6883,4.7126,4.7489,4.7841,4.8224,4.86,4.8706,4.8967,4.9332,4.9332,4.9396,4.959,4.9364,4.9088,4.88,4.844,4.8272,4.8215,4.9431,5.0294,5.1072,5.2272,5.2905,5.3036,5.2397,5.1788,5.1178,0.0,1.7503,1.7452,1.7331,1.7627,1.7846,1.7721,1.8378,1.8861,1.8836,1.9508,1.9479,1.8163,1.7523,1.7519,1.8314,2.014,2.2221,2.4424,2.6666,2.8373,2.9503,3.0231,3.0859,3.1386,3.1938,3.2491,3.3111,3.3111,3.3111,3.3111,3.3111,3.3111,3.3111,3.3111,3.3111,3.3111,3.3111,3.3111,3.3111,3.2893,3.2265,3.1361,3.106,3.0005,2.8662,2.8662,2.8499,0.0,0.0,2.7795,2.8247,2.8247,2.8172,2.8172,2.8473,2.9051,2.988,3.106,0.0,0.0,3.3916,3.5429,3.6885,3.7084,3.7487,3.8115,3.8919,3.9747,4.0325,4.0501,4.1304,4.2032,4.2389,4.278,4.3044,4.2849,4.2499,4.2026,4.1352,4.1834,4.2321,4.2649,4.3481,4.4524,4.5827,4.6026,4.6426,4.7394,4.7702,4.7938,4.8158,4.851,4.8706,4.8706,4.8837,4.9032,4.9267,4.9267,4.9396,4.959,4.959,4.9389,4.8962,4.8385,4.8303,4.8661,4.8975,4.9951,5.1292,5.2164,5.289,5.3471,5.3007,5.2426,5.1817,0.0,0.0,1.7617,1.7993,1.836,1.8452,1.8066,1.8873,1.9508,1.938,1.9391,1.9205,1.8644,1.7747,1.7648,1.8705,1.9965,2.1672,2.3879,2.6088,2.7795,2.8863,2.9991,3.0859,3.1386,3.1938,3.2491,3.3111,3.3111,3.3111,3.3111,3.3111,3.3111,3.3111,3.3111,3.3111,3.3111,3.3111,3.3111,3.3061,3.2466,3.1913,3.1286,3.0231,2.9126,2.8122,2.8122,0.0,0.0,0.0,2.6097,2.6575,2.6575,2.7304,0.0,2.9428,3.0482,0.0,0.0,0.0,3.4248,3.5902,3.7111,3.809,3.8668,3.922,3.9622,3.9672,3.9697,3.9873,4.0425,4.0924,4.1706,4.2785,4.313,4.3422,4.3733,4.2519,4.1834,4.2375,4.1281,4.1006,0.0,4.3406,4.4633,4.6299,4.6102,4.6496,4.7887,4.8002,4.8158,4.86,4.8902,4.9072,4.9072,4.9396,4.959,4.959,4.959,4.959,4.959,4.959,4.959,4.954,4.8987,4.8473,4.7894,4.7367,4.8262,4.9958,4.9958,5.1429,5.35,5.35,5.3094,5.2594,0.0,0.0,0.0,1.8983,1.924,1.9264,1.917,1.9432,1.9617,1.9538,1.9465,0.0,0.0,0.0,0.0,0.0,1.9723,2.1215,2.2749,2.5343,2.7253,2.8323,2.9829,3.0708,3.0884,3.1386,3.1763,3.1964,3.2315,3.2516,3.2516,3.2893,3.3111,3.3111,3.3111,3.3111,3.3043,3.2667,3.2717,3.3036,3.2039,3.1562,3.1311,3.0608,2.9176,2.7469,0.0,0.0,0.0,2.4732,2.4908,2.5511,2.6273,0.0,0.0,2.8222,3.0231,3.2114,3.2842,0.0,3.6307,3.7211,3.8291,3.917,3.9371,3.9572,3.9697,3.9697,3.9697,3.9848,4.0425,4.0676,4.1046,4.1983,4.2494,4.2797,4.2881,4.2928,4.2665,4.1785,4.2087,0.0,0.0,0.0,0.0,4.6116,4.6537,4.728,4.8673,4.8942,4.9007,4.8942,4.9267,4.9461,4.9461,4.9525,4.959,4.959,4.959,4.959,4.959,4.959,4.959,4.9565,4.9012,4.8661,4.8536,4.9229,4.9881,5.0558,5.1816,5.2783,5.35,5.35,5.3384,5.3123,0.0,0.0,0.0,0.0,0.0,0.0,0.0,0.0,0.0,0.0,0.0,0.0,0.0,0.0,0.0,0.0,0.0,0.0,2.1703,0.0,2.6131,2.7168,2.8448,2.9327,2.9704,2.9854,3.0206,3.0809,3.116,3.1537,3.1913,3.229,3.2466,3.2466,3.2466,3.2466,3.2441,3.2089,3.2139,3.2432,3.126,3.0708,3.0407,2.9478,2.7996,0.0,0.0,0.0,0.0,2.3276,2.3728,0.0,0.0,0.0,2.7645,2.89,3.0959,3.3144,3.4675,3.6107,3.7412,3.8366,3.9145,3.9697,3.9697,3.9697,3.9647,3.9446,3.9245,3.9145,3.9295,3.932,3.9771,4.106,4.1798,4.245,4.3078,4.3462,4.3379,4.2519,4.2914,4.3202,0.0,0.0,0.0,4.6155,4.6749,4.7545,4.8724,4.9232,4.9396,4.9267,4.9461,4.959,4.959,4.959,4.959,4.959,4.959,4.959,4.959,4.959,4.959,4.9565,4.9213,4.9254,4.9504,4.9871,5.0537,5.151,5.2208,5.293,5.35,5.35,5.35,5.3442,0.0,0.0,0.0,0.0,0.0,0.0,0.0,0.0,0.0,0.0,0.0,0.0,0.0,0.0,0.0,0.0,0.0,0.0,0.0,0.0,0.0,2.5468,2.6122,2.6927,2.7946,2.7494,2.8021,2.9628,2.9679,3.0231,3.121,3.1286,3.1311,3.1311,3.1311,3.1311,3.1311,3.1286,3.126,3.116,3.0105,2.9327,2.8637,2.7102,0.0,0.0,0.0,0.0,0.0,0.0,0.0,0.0,0.0,0.0,0.0,3.1336,3.2692,3.4525,3.6659,3.7287,3.7739,3.9346,3.9747,3.9722,3.9697,3.9647,3.9446,3.8894,3.8291,3.7688,0.0,0.0,3.7864,4.0022,4.116,4.237,4.4277,4.4169,4.4017,0.0,0.0,0.0,0.0,0.0,0.0,4.6563,0.0,4.7301,4.8302,4.8864,4.9267,4.959,4.959,4.959,4.959,4.959,4.959,4.959,4.959,4.959,4.959,4.959,4.959,4.959,4.959,5.0028,5.0549,4.9455,5.0424,5.2519,5.1338,5.196,5.35,5.35,5.35,5.35,0.0,0.0,0.0,0.0,0.0,0.0,0.0,0.0,0.0,0.0,0.0,0.0,0.0,0.0,0.0,0.0,0.0,0.0,0.0,0.0,0.0,0.0,0.0,2.5963,2.6239,2.6549,2.6927,2.7354,2.8122,2.8674,2.8976,2.9804,3.0206,3.0206,3.0206,3.0206,3.0181,2.9729,2.9553,2.9453,0.0,2.7846,2.762,0.0,0.0,0.0,0.0,0.0,0.0,0.0,0.0,0.0,0.0,2.998,3.2466,0.0,0.0,3.6558,3.7538,3.8718,3.9772,4.0199,4.03,4.0199,3.9798,3.9044,3.8291,3.7739,3.6508,3.5504,0.0,0.0,0.0,3.8638,4.0661,0.0,4.377,4.5041,0.0,4.5264,0.0,4.6024,4.593,4.6138,0.0,0.0,4.7047,4.7432,4.9185,4.9386,4.9525,4.959,4.959,4.959,4.959,4.959,4.959,4.959,4.959,4.959,4.959,4.959,4.959,4.959,4.959,4.9707,4.9952,5.1084,5.168,5.1969,5.3077,5.3518,5.35,5.35,5.35,5.35,0.0,0.0,0.0,0.0,0.0,0.0,0.0,0.0,0.0,0.0,0.0,0.0,0.0,0.0,0.0,0.0,0.0,0.0,0.0,0.0,0.0,0.0,2.3452,2.3966,2.4155,2.4481,2.4757,0.0,0.0,0.0,2.7017,2.7921,2.836,2.836,2.836,2.836,2.8334,2.7971,0.0,0.0,0.0,0.0,0.0,0.0,0.0,0.0,0.0,0.0,0.0,0.0,0.0,2.9765,3.0507,3.2315,3.4248,3.4751,0.0,3.809,3.8894,3.9973,4.0774,4.0576,4.0526,4.0174,3.8894,3.809,3.7211,3.568,3.465,0.0,3.3068,0.0,0.0,0.0,0.0,0.0,4.3896,4.5654,4.6736,0.0,4.7034,0.0,4.7109,4.7171,4.752,0.0,4.7758,4.8071,4.9188,4.9464,4.959,4.959,4.959,4.959,4.959,4.959,4.959,4.959,4.959,4.959,4.959,4.959,4.959,4.959,4.959,4.9886,5.0473,5.0992,5.1897,5.2862,5.3135,5.3485,5.3907,5.3617,5.35,5.35,0.0,0.0,0.0,0.0,0.0,0.0,0.0,0.0,0.0,0.0,0.0,0.0,0.0,0.0,0.0,0.0,0.0,0.0,0.0,0.0,0.0,0.0,2.1593,2.1762,2.2153,2.2171,2.2422,0.0,0.0,0.0,0.0,0.0,0.0,0.0,0.0,0.0,0.0,0.0,0.0,0.0,0.0,0.0,0.0,0.0,0.0,0.0,0.0,0.0,0.0,0.0,3.0532,3.1436,3.3018,3.465,3.6135,3.7211,3.8266,3.932,4.0425,4.1078,4.1304,4.0752,4.0576,3.9923,3.7688,3.696,3.6006,3.3395,0.0,3.2089,3.0658,3.2098,3.3978,3.5382,0.0,4.1877,4.4234,4.6015,4.733,4.7857,4.8033,4.8008,4.7782,4.7782,4.7981,4.8455,4.881,4.8962,4.8887,4.9414,4.9715,4.9715,4.964,4.959,4.959,4.959,4.959,4.959,4.959,4.959,4.959,4.959,4.959,4.959,4.959,5.0245,5.1205,5.0245,5.1487,5.3851,5.2513,5.2882,5.4215,5.3796,5.3588,5.35,0.0,0.0,0.0,0.0,0.0,0.0,0.0,0.0,0.0,0.0,2.0397,1.9708,0.0,0.0,0.0,0.0,0.0,0.0,0.0,0.0,0.0,0.0,2.1146,2.1109,2.1291,0.0,0.0,0.0,0.0,0.0,0.0,0.0,0.0,0.0,0.0,0.0,0.0,0.0,0.0,0.0,0.0,0.0,0.0,0.0,0.0,0.0,0.0,0.0,0.0,0.0,3.2416,3.4223,3.5454,3.696,3.8417,3.9069,3.9722,4.0475,4.1634,4.1986,4.1882,4.1329,4.0852,3.9923,3.7688,3.578,0.0,0.0,3.0608,2.9515,2.9239,3.0458,3.2561,3.5755,0.0,0.0,0.0,0.0,4.733,0.0,0.0,0.0,0.0,0.0,0.0,0.0,4.9801,4.9941,4.9464,4.9967,5.0268,5.0268,4.9841,4.959,4.959,4.959,4.959,4.959,4.959,4.959,4.959,4.959,4.959,4.959,4.959,0.0,5.0014,5.0853,5.1178,5.1448,5.3303,5.3528,5.2961,5.3967,5.3994,5.35,0.0,0.0,0.0,0.0,0.0,0.0,0.0,0.0,2.2232,2.3,2.2626,2.1994,2.1325,2.0917,0.0,0.0,0.0,0.0,0.0,0.0,0.0,0.0,0.0,0.0,0.0,0.0,0.0,0.0,0.0,0.0,0.0,0.0,0.0,0.0,0.0,0.0,0.0,0.0,0.0,0.0,0.0,0.0,0.0,0.0,0.0,0.0,0.0,0.0,0.0,0.0,3.1738,3.465,3.6609,3.8191,3.9346,3.9622,4.03,4.1053,4.158,4.2158,4.2384,4.1501,4.0701,3.9346,3.6533,0.0,0.0,0.0,2.9051,2.8323,2.7745,0.0,0.0,0.0,0.0,0.0,0.0,0.0,0.0,0.0,0.0,0.0,0.0,0.0,0.0,0.0,5.0544,5.0619,5.0067,5.0569,5.072,5.0419,5.0167,4.9891,4.959,4.959,4.959,4.959,4.959,4.959,4.959,4.959,4.959,4.959,4.959,4.959,4.9654,5.0245,5.1138,5.2204,5.3111,5.3667,5.4049,5.4389,5.4081,5.35,0.0,0.0,0.0,0.0,0.0,0.0,0.0,2.3376,2.3702,2.4864,2.5011,2.4611,2.3653,2.2203,2.1485,0.0,0.0,0.0,0.0,0.0,0.0,0.0,0.0,0.0,0.0,0.0,0.0,0.0,0.0,0.0,0.0,0.0,0.0,0.0,0.0,0.0,0.0,0.0,0.0,0.0,0.0,0.0,0.0,0.0,0.0,0.0,0.0,0.0,0.0,0.0,3.0407,3.347,3.6132,3.7965,3.9195,3.9446,4.03,4.1175,4.1455,4.2233,4.271,4.1551,4.0425,3.8668,3.5454,3.3244,0.0,0.0,2.7921,2.7519,2.6801,0.0,3.0733,0.0,0.0,0.0,0.0,0.0,0.0,0.0,0.0,0.0,0.0,0.0,0.0,0.0,5.1147,5.1247,5.0795,5.1096,5.1071,5.0619,5.0469,5.0142,4.9615,4.959,4.959,4.959,4.959,4.959,4.959,4.959,4.959,4.959,4.959,4.959,4.959,4.9886,5.1231,5.3066,5.312,5.3917,5.4947,5.4757,5.4197,5.35,0.0,0.0,0.0,0.0,0.0,0.0,0.0,2.4482,2.5667,2.6885,2.6601,2.6298,2.6255,2.4507,2.3131,0.0,0.0,0.0,0.0,0.0,0.0,0.0,0.0,0.0,0.0,0.0,0.0,0.0,0.0,0.0,0.0,0.0,0.0,0.0,0.0,0.0,0.0,0.0,0.0,0.0,0.0,0.0,0.0,0.0,0.0,0.0,0.0,0.0,0.0,0.0,0.0,3.0557,3.2817,3.5328,3.7613,3.8693,0.0,0.0,4.1861,4.2564,4.271,4.1551,4.0124,3.8216,3.5353,0.0,0.0,2.8473,2.7354,2.6776,2.7178,2.7444,0.0,0.0,0.0,3.5655,0.0,0.0,0.0,0.0,0.0,0.0,0.0,0.0,0.0,5.1172,5.1724,5.2,5.195,5.1523,5.1247,5.1197,5.0695,5.0142,4.9615,4.959,4.959,4.959,4.959,4.959,4.959,4.959,4.959,4.959,4.959,4.959,0.0,5.0853,5.1455,5.1927,5.424,5.4539,5.3782,5.4892,5.4575,5.35,0.0,0.0,0.0,0.0,0.0,0.0,2.4181,2.4315,2.5022,2.74,2.7218,2.6947,2.7185,2.5764,2.4238,0.0,0.0,0.0,0.0,0.0,0.0,0.0,0.0,0.0,0.0,0.0,0.0,0.0,0.0,0.0,0.0,0.0,0.0,0.0,0.0,0.0,0.0,0.0,0.0,0.0,0.0,0.0,0.0,0.0,0.0,0.0,0.0,0.0,0.0,0.0,0.0,0.0,2.9528,3.1486,0.0,0.0,3.8391,3.932,4.0777,4.158,4.1806,4.0974,3.9346,3.7312,3.5203,0.0,2.9729,2.8373,2.7253,2.6575,2.6776,2.7102,2.7921,2.993,3.0568,3.2466,3.6862,0.0,0.0,0.0,0.0,0.0,0.0,0.0,5.1322,5.2201,5.2477,5.2452,5.2126,5.19,5.1473,5.077,5.0544,5.0142,4.9615,4.959,4.959,4.959,4.959,4.959,4.959,4.959,4.959,4.959,4.959,4.959,0.0,5.0954,5.1989,5.2876,5.4679,5.5111,5.473,5.5224,5.4604,5.35,0.0,0.0,0.0,0.0,0.0,2.246,2.4481,2.432,2.4855,2.7367,2.7387,2.7296,2.7575,2.6213,2.4747,2.337,0.0,0.0,0.0,0.0,0.0,0.0,0.0,0.0,0.0,0.0,0.0,0.0,0.0,0.0,0.0,0.0,0.0,0.0,0.0,0.0,0.0,0.0,0.0,0.0,0.0,0.0,0.0,0.0,0.0,0.0,0.0,0.0,0.0,0.0,0.0,0.0,0.0,0.0,0.0,0.0,3.681,3.809,3.9622,4.0676,4.115,4.0651,3.8718,3.6558,0.0,3.2039,2.9277,2.8298,2.7253,2.6499,2.6499,2.6952,2.7595,2.8487,2.9189,3.0994,3.4956,3.691,0.0,0.0,0.0,0.0,0.0,5.0645,5.1749,5.2854,5.2628,5.2277,5.1875,5.1699,5.1247,5.0444,5.0419,5.0142,4.9615,4.959,4.959,4.959,4.959,4.959,4.959,4.959,4.959,4.959,4.959,4.959,0.0,5.0954,5.2324,5.3631,5.4915,5.5424,5.5416,5.5416,5.4604,5.35,0.0,0.0,0.0,0.0,0.0,0.0,0.0,2.4845,2.5812,2.6766,2.7198,2.7462,2.76,2.5824,2.4605,2.4575,0.0,0.0,0.0,0.0,0.0,0.0,0.0,0.0,0.0,0.0,2.4387,2.4992,2.4992,0.0,0.0,0.0,0.0,0.0,0.0,0.0,0.0,0.0,0.0,0.0,0.0,0.0,0.0,0.0,0.0,0.0,0.0,0.0,0.0,0.0,0.0,0.0,0.0,0.0,0.0,0.0,3.5052,3.7437,3.8617,4.0099,4.115,4.0651,3.8417,3.6128,0.0,3.1696,2.8737,2.8222,2.7253,2.6499,2.6499,2.6952,2.7469,2.8021,2.9955,3.234,3.5107,3.7914,0.0,0.0,0.0,0.0,0.0,4.9967,5.1749,5.2854,5.1925,0.0,5.1297,5.0745,5.0419,5.0419,5.0419,5.0142,4.9615,4.959,4.959,4.959,4.959,4.959,4.959,4.959,4.959,4.959,4.959,4.959,0.0,5.0954,5.2324,5.3631,5.4915,5.5424,5.5416,5.5416,5.4604,5.35,0.0,0.0,0.0,0.0,0.0,0.0,0.0,2.29,2.3304,2.521,2.4916,2.5146,2.6765,2.5525,2.4784,2.5232,0.0,0.0,0.0,0.0,0.0,0.0,0.0,0.0,0.0,0.0,2.6165,2.6711,2.6696,2.6968,2.7509,2.715,0.0,0.0,0.0,0.0,0.0,0.0,0.0,0.0,0.0,0.0,0.0,0.0,0.0,0.0,0.0,0.0,0.0,0.0,0.0,0.0,0.0,0.0,0.0,0.0,0.0,0.0,3.5052,3.6132,3.6636,3.6132,3.5052,3.3866,3.2692,3.0633,2.8637,2.7745,2.7002,2.6499,2.6499,2.6952,2.7846,2.9553,3.0708,0.0,0.0,0.0,0.0,0.0,0.0,0.0,0.0,0.0,5.1423,5.1774,5.1473,5.1096,5.072,5.0519,5.0243,4.9866,4.9866,4.9766,4.959,4.959,4.959,4.959,4.959,4.959,4.959,4.959,4.959,4.959,4.959,4.959,4.9719,5.0954,5.2324,5.3577,5.4469,5.5025,5.5358,5.4952,5.4255,5.35,0.0,0.0,0.0,0.0,0.0,0.0,0.0,2.1843,2.1928,2.3255,2.2974,2.3443,2.5608,2.4687,2.4448,2.5854,0.0,0.0,0.0,0.0,0.0,0.0,0.0,0.0,0.0,2.5967,2.6536,2.753,2.7293,2.7732,2.8734,2.836,2.7758,2.6974,0.0,0.0,0.0,0.0,0.0,0.0,0.0,0.0,0.0,0.0,0.0,0.0,0.0,0.0,0.0,0.0,0.0,0.0,0.0,0.0,0.0,0.0,2.7846,0.0,0.0,3.3822,3.4374,3.4248,3.3319,3.2265,3.1537,2.9779,2.8122,2.7419,2.6876,2.6499,2.6499,2.7102,2.8047,2.9453,3.0633,0.0,0.0,0.0,0.0,0.0,0.0,0.0,0.0,5.0193,5.082,5.1247,5.0896,5.0569,5.0419,5.0218,4.9941,4.9615,4.959,4.959,4.959,4.959,4.959,4.959,4.959,4.959,4.959,4.959,4.959,4.959,4.959,4.959,0.0,5.0436,5.1829,5.3516,5.3968,5.4658,5.5358,5.4981,5.4284,5.35,0.0,0.0,0.0,0.0,0.0,0.0,0.0,0.0,0.0,2.1227,2.1496,2.2413,2.4276,2.346,2.3751,2.6243,0.0,0.0,0.0,0.0,0.0,0.0,0.0,0.0,2.5932,2.5438,2.6025,2.7732,2.7173,2.7766,2.9441,2.9388,2.8726,2.762,2.7542,0.0,0.0,0.0,0.0,0.0,0.0,0.0,0.0,0.0,0.0,0.0,0.0,0.0,0.0,0.0,0.0,0.0,0.0,0.0,0.0,0.0,0.0,0.0,0.0,3.2591,0.0,3.4073,3.2667,3.116,3.111,2.9126,0.0,2.7243,2.6851,2.6524,2.665,2.7444,2.8197,2.8473,3.0256,0.0,0.0,3.6985,0.0,0.0,4.5999,0.0,4.7983,4.8987,5.0042,5.1071,5.0193,4.9816,5.0343,4.9866,4.959,4.959,4.959,4.959,4.959,4.959,4.959,4.959,4.959,4.959,4.959,4.959,4.959,0.0,4.959,4.959,4.959,4.959,5.1131,5.3483,5.3402,5.4222,5.5387,5.53,5.4517,5.35,0.0,0.0,0.0,0.0,0.0,0.0,0.0,0.0,0.0,0.0,2.1496,2.2054,2.3062,2.3281,2.3849,0.0,0.0,0.0,0.0,0.0,0.0,0.0,0.0,0.0,2.7174,2.7031,2.7603,2.8899,2.8745,2.9327,3.0581,3.0137,2.9562,2.883,2.7915,2.7131,0.0,0.0,0.0,0.0,0.0,0.0,0.0,0.0,0.0,0.0,0.0,2.4876,0.0,0.0,0.0,0.0,0.0,0.0,0.0,0.0,2.4381,2.4958,2.6691,0.0,2.9402,2.9101,2.895,2.8775,0.0,2.7745,2.7203,2.6776,0.0,2.6876,2.8122,2.8222,2.9076,3.2064,0.0,0.0,3.691,0.0,0.0,4.6627,4.8184,4.9063,4.9188,4.9439,4.9715,4.9967,4.9741,4.9665,4.9791,4.9665,4.959,4.959,4.959,4.959,4.959,4.959,4.959,4.959,4.959,4.959,4.959,4.959,4.959,4.959,4.959,4.959,4.959,4.959,5.1131,5.3402,5.2447,5.3412,5.53,5.4313,5.3762,5.35,0.0,0.0,0.0,0.0,0.0,0.0,0.0,0.0,0.0,0.0,0.0,0.0,0.0,0.0,0.0,0.0,0.0,0.0,0.0,0.0,0.0,0.0,0.0,2.6542,2.7585,2.7639,2.819,2.931,2.9335,2.9909,3.0973,3.0686,3.0085,2.9258,2.8046,2.7333,0.0,0.0,0.0,0.0,0.0,0.0,0.0,0.0,0.0,0.0,2.4078,2.4293,0.0,2.47,2.5159,2.546,0.0,0.0,0.0,0.0,2.3778,2.418,2.5008,2.664,2.8097,2.8047,2.8273,2.8398,2.8097,0.0,0.0,0.0,0.0,0.0,0.0,0.0,0.0,0.0,3.3872,0.0,0.0,0.0,4.5723,4.7682,4.8912,4.959,0.0,4.959,4.959,4.959,4.959,4.959,4.959,4.959,4.959,4.959,4.959,4.959,4.959,4.959,4.959,4.959,4.959,4.959,4.959,4.959,4.959,4.959,4.959,4.959,4.959,4.959,5.1131,5.3429,5.2745,5.3663,5.5329,5.4633,5.4023,5.35,0.0,0.0,0.0,0.0,0.0,0.0,0.0,0.0,0.0,0.0,0.0,0.0,0.0,0.0,0.0,0.0,0.0,0.0,0.0,0.0,0.0,0.0,0.0,2.7016,2.7884,2.7844,2.8398,2.9481,2.9591,3.0084,3.0869,3.1026,3.0451,2.9222,2.815,2.7568,0.0,0.0,0.0,0.0,0.0,0.0,0.0,0.0,0.0,0.0,0.0,0.0,0.0,2.4399,2.5034,2.5485,2.475,0.0,0.0,0.0,0.0,0.0,2.4732,2.654,2.8298,2.8562,2.8762,2.8863,2.8787,0.0,0.0,0.0,0.0,0.0,0.0,2.9453,0.0,0.0,0.0,0.0,4.11,4.3966,4.6175,4.7732,4.8912,0.0,4.959,4.959,4.959,4.959,4.959,4.959,4.959,4.959,4.959,4.959,4.959,4.959,4.959,4.959,4.959,4.959,4.959,4.959,4.959,4.959,4.959,4.959,4.959,4.9719,4.9886,4.9654,5.1231,5.3784,5.3353,5.4139,5.5387,5.5184,5.4429,5.35,0.0,0.0,0.0,0.0,0.0,0.0,0.0,0.0,0.0,0.0,0.0,0.0,0.0,0.0,0.0,0.0,0.0,0.0,0.0,0.0,0.0,2.6602,2.6602,2.7465,2.9262,2.8754,2.9028,3.0223,3.0631,3.0637,3.0257,3.1223,3.0843,2.9284,2.8543,2.7994,2.749,0.0,0.0,0.0,0.0,0.0,0.0,0.0,0.0,0.0,0.0,0.0,0.0,2.3496,2.4381,2.5335,2.3822,0.0,0.0,0.0,0.0,0.0,2.5084,2.7092,2.8562,2.7745,2.8247,2.8762,2.8348,0.0,0.0,0.0,0.0,0.0,0.0,3.1035,3.2215,0.0,0.0,4.0526,0.0,0.0,4.6627,4.7782,0.0,4.959,4.959,4.959,4.959,4.959,4.959,4.959,4.959,4.959,4.959,4.959,4.959,4.959,4.959,4.959,4.959,4.959,4.959,4.959,4.959,4.959,4.959,4.959,4.959,5.0181,5.1142,5.0014,5.1767,5.489,5.2752,5.3328,5.5271,5.4197,5.3675,5.35,0.0,0.0,0.0,0.0,0.0,0.0,0.0,0.0,0.0,0.0,0.0,0.0,0.0,0.0,0.0,0.0,0.0,0.0,0.0,0.0,0.0,2.7136,2.7854,2.8663,2.9592,2.9974,3.0805,3.2029,3.2131,3.2036,3.1696,3.0856,3.0032,2.9284,2.8333,2.7785,2.749,2.749,0.0,0.0,0.0,0.0,0.0,0.0,0.0,0.0,0.0,0.0,0.0,0.0,2.4305,2.4983,2.3898,0.0,0.0,0.0,0.0,0.0,2.4808,2.6565,2.8122,2.8549,2.9905,3.1009,3.0457,0.0,0.0,0.0,0.0,0.0,0.0,0.0,3.4726,3.8065,0.0,4.2409,4.4016,4.5698,4.7054,0.0,0.0,4.959,4.959,4.959,4.959,4.959,4.959,4.959,4.959,4.959,4.959,4.959,4.959,4.959,4.959,4.959,4.959,4.959,4.959,4.959,4.959,4.959,4.959,4.959,4.959,4.995,5.041,4.9519,5.1011,5.3685,5.2221,5.3022,5.4807,5.3849,5.35,5.35,0.0,0.0,0.0,0.0,0.0,0.0,0.0,0.0,0.0,0.0,0.0,0.0,0.0,0.0,0.0,0.0,0.0,0.0,0.0,0.0,2.7076,2.7585,2.9022,3.0041,3.052,3.148,3.2401,3.335,3.3681,3.3637,3.3234,3.0669,2.9405,2.9222,2.8203,2.762,2.749,2.749,2.749,0.0,0.0,0.0,0.0,0.0,0.0,0.0,0.0,0.0,0.0,0.0,0.0,0.0,0.0,0.0,0.0,2.3747,2.3421,2.3572,2.4858,2.6314,2.7846,2.9402,0.0,3.2516,3.2591,3.2064,0.0,0.0,0.0,0.0,0.0,3.465,0.0,4.0425,4.2283,4.3714,4.4694,4.615,4.733,4.7857,4.8786,4.9464,4.959,4.959,4.959,4.959,4.959,4.959,4.959,4.959,4.959,4.959,4.959,4.959,4.959,4.959,4.959,4.959,4.959,4.959,4.959,4.959,4.959,4.959,4.9886,5.0206,5.0473,4.991,5.1144,5.3358,5.2435,5.3079,5.4429,5.3762,5.35,5.35,0.0,0.0,0.0,0.0,0.0,0.0,0.0,0.0,0.0,0.0,0.0,0.0,0.0,0.0,0.0,0.0,0.0,0.0,0.0,0.0,2.7555,2.7585,2.9415,3.13,3.3185,3.3305,3.3331,3.3227,3.5081,3.5249,3.3794,3.1214,2.9797,2.9284,2.8629,2.802,2.749,2.749,2.749,2.749,0.0,0.0,0.0,0.0,0.0,0.0,0.0,0.0,0.0,0.0,0.0,0.0,0.0,0.0,2.4775,2.47,2.433,2.428,2.5946,2.7168,2.8323,2.9503,3.0306,0.0,3.3319,3.2943,0.0,3.4123,0.0,0.0,0.0,3.7513,3.9973,4.181,4.3438,4.4719,4.5347,0.0,4.733,4.7857,4.846,4.9038,4.954,4.959,4.959,4.959,4.959,4.959,4.959,4.959,4.959,4.959,4.959,4.959,4.959,4.959,4.959,4.959,4.959,4.959,4.959,4.959,4.959,4.9654,5.0853,5.2077,5.3153,5.2533,5.3763,5.5927,5.4092,5.3833,5.4429,5.3762,5.35,5.35,0.0,0.0,0.0,0.0,0.0,0.0,0.0,0.0,0.0,0.0,0.0,0.0,0.0,0.0,0.0,0.0,0.0,0.0,0.0,2.6243,2.7375,2.8188,2.9684,3.124,3.2856,3.4113,3.485,3.5074,3.4851,3.4015,3.2561,3.0545,2.9483,2.9284,2.8281,2.7915,2.8046,2.7646,2.7699,2.802,2.7646,0.0,0.0,0.0,0.0,0.0,0.0,0.0,0.0,0.0,2.3898,2.4431,2.3898,2.4449,2.5184,2.4506,2.4155,2.4205,2.5184,2.6992,2.88,2.9603,3.1235,0.0,0.0,3.4876,3.5579,3.6558,3.7337,0.0,0.0,0.0,4.0752,4.2464,4.3765,4.4945,4.5874,4.6652,4.7205,4.7405,4.7908,4.846,4.9038,4.9088,4.9213,4.9565,4.959,4.959,4.959,4.959,4.959,4.959,4.959,4.959,4.959,4.959,4.959,4.959,4.959,4.959,4.959,4.959,4.959,4.9654,5.0979,5.1557,5.1705,5.1907,5.3035,5.4571,5.4249,5.4259,5.4429,5.3762,5.35,5.35,0.0,0.0,0.0,0.0,0.0,0.0,0.0,0.0,0.0,0.0,0.0,0.0,0.0,0.0,0.0,0.0,0.0,0.0,2.4903,2.5974,2.72,2.8547,2.9654,3.0736,3.1842,3.4049,3.5204,3.5224,3.3898,3.2871,3.2167,3.0377,2.9562,2.951,2.8516,2.8203,2.8394,2.7968,2.7915,2.8072,2.7646,2.6915,0.0,0.0,0.0,0.0,0.0,0.0,0.0,0.0,2.3772,2.4224,2.3948,2.4582,2.5234,2.4682,2.4632,2.4808,2.5008,2.6806,2.8863,2.9829,0.0,0.0,3.5429,3.6508,3.7487,3.8567,3.9421,0.0,4.0174,0.0,0.0,0.0,4.4016,4.502,4.615,4.6627,4.6928,4.7043,4.7431,4.7883,4.8435,4.851,4.8661,4.9038,4.9063,4.9138,4.9314,4.9339,4.9414,4.959,4.959,4.959,4.959,4.959,4.9515,4.9339,4.9339,4.9439,4.959,4.959,4.959,4.9719,5.1148,5.1575,5.1274,5.2212,5.3051,5.3861,5.4108,5.4313,5.4429,5.3762,5.35,5.35,0.0,0.0,0.0,0.0,0.0,0.0,0.0,0.0,0.0,0.0,0.0,0.0,0.0,0.0,0.0,0.0,0.0,0.0,2.5555,2.6213,2.7171,2.8517,2.9235,2.9885,3.048,3.3117,3.4032,3.3108,3.2214,3.2231,3.3043,3.1003,3.01,3.0048,2.9536,2.8935,2.842,2.842,2.8046,2.7516,2.749,2.7183,0.0,0.0,0.0,0.0,0.0,0.0,0.0,0.0,2.3602,2.3396,2.5059,2.5234,2.4933,2.5435,2.6047,2.6373,2.5762,2.6841,2.8524,0.0,0.0,0.0,3.7262,3.7588,3.7839,4.0074,4.0526,4.0701,4.12,4.13,0.0,4.3539,4.4267,4.502,4.615,4.6301,4.6527,4.7054,4.7068,4.733,4.7857,4.7908,4.7908,4.7908,4.7908,4.8159,4.8736,4.8761,4.9012,4.9565,4.9565,4.9565,4.9565,4.9565,4.9314,4.8761,4.8761,4.9063,4.9565,4.9565,4.9565,4.9668,5.1626,5.2501,5.257,5.3915,5.4517,5.4458,5.3791,5.3936,5.4429,5.3762,5.35,5.35,0.0,0.0,0.0,0.0,0.0,0.0,0.0,0.0,0.0,0.0,0.0,0.0,0.0,0.0,0.0,0.0,0.0,0.0,2.4844,2.5501,2.6273,2.7141,2.8727,2.9662,2.9855,3.1029,3.2151,3.3248,3.1887,3.0966,3.0404,2.9836,2.9301,2.8908,2.917,2.8935,2.842,2.842,2.8281,2.8098,2.7646,2.7183,0.0,0.0,0.0,0.0,0.0,0.0,0.0,0.0,0.0,0.0,2.433,2.5159,2.5862,2.5234,2.5711,2.6373,2.5762,2.7695,0.0,3.0934,0.0,0.0,0.0,3.8793,0.0,0.0,4.1932,4.1731,4.1882,4.2233,0.0,4.3664,4.4618,4.5472,4.62,4.6301,4.6376,4.6527,4.6552,4.6778,4.7305,4.7355,4.7506,4.7883,4.7908,4.7983,4.8159,4.8159,4.8234,4.841,4.841,4.841,4.841,4.841,4.8335,4.8159,4.8159,4.8259,4.841,4.841,4.841,4.851,5.089,5.1661,5.1401,5.3628,5.4517,5.4487,5.4284,5.4342,5.4429,5.3762,5.35,5.35,0.0,0.0,0.0,0.0,0.0,0.0,0.0,0.0,0.0,0.0,2.361,2.361,0.0,0.0,0.0,0.0,0.0,0.0,0.0,2.5382,2.6004,2.6956,2.8397,2.9426,2.9949,2.9947,3.0464,3.1449,3.0708,2.9954,2.9274,2.951,2.9431,2.9091,2.9693,2.951,2.8786,2.8786,2.8629,2.8394,2.7994,2.7654,2.7295,0.0,0.0,0.0,0.0,0.0,0.0,0.0,0.0,0.0,2.3653,0.0,2.5084,2.4883,2.5611,2.66,2.7118,2.9227,0.0,3.3018,3.5454,3.799,3.9824,0.0,0.0,0.0,0.0,4.2288,4.2489,4.264,0.0,4.3966,4.4694,4.5422,4.62,4.6301,4.6301,4.6301,4.6301,4.6451,4.6778,4.6803,4.6928,4.7255,4.728,4.738,4.7581,4.7606,4.7682,4.7908,4.7908,4.7908,4.7908,4.7908,4.7807,4.7606,4.7606,4.7481,4.728,4.7707,4.8156,4.881,5.1013,5.1957,5.1933,5.3493,5.411,5.411,5.411,5.411,5.4052,5.3675,5.35,5.35,0.0,0.0,0.0,0.0,0.0,0.0,0.0,0.0,0.0,0.0,2.361,2.361,0.0,0.0,0.0,0.0,0.0,0.0,0.0,0.0,2.6243,2.7555,2.8345,2.933,3.0564,2.9692,2.9069,2.8692,2.9027,2.9205,2.9144,2.9771,3.0022,3.0048,3.066,3.0241,2.9118,2.9118,2.8752,2.8185,2.8237,2.8237,2.8046,2.7033,0.0,0.0,0.0,0.0,0.0,0.0,0.0,0.0,2.3201,2.317,2.3396,2.4399,2.5561,2.6952,2.9051,0.0,0.0,3.5726,3.7337,0.0,4.1505,4.2213,4.2414,4.2861,0.0,4.2439,4.2886,4.2665,4.2785,4.4292,4.4644,4.507,4.61,4.6276,4.6301,4.6301,4.6301,4.6301,4.6301,4.6301,4.6301,4.6301,4.6301,4.6527,4.6968,4.7054,4.728,4.7757,4.7757,4.7757,4.7757,4.7757,4.7531,4.7054,4.7054,4.6864,4.6506,4.7489,4.8656,5.0055,5.1675,5.2838,5.35,5.35,5.35,5.35,5.35,5.35,5.35,5.35,5.35,5.35,0.0,0.0,0.0,0.0,0.0,0.0,0.0,0.0,0.0,0.0,0.0,0.0,0.0,0.0,0.0,0.0,0.0,0.0,0.0,0.0,2.6776,2.7555,2.9132,3.0387,3.1193,2.9542,2.8605,2.8449,2.8541,2.8333,2.7915,2.8961,2.9457,2.9483,3.0059,2.9396,2.7881,2.7881,2.7314,2.6399,2.687,2.6765,2.6347,2.6112,2.5641,0.0,0.0,0.0,0.0,0.0,0.0,0.0,2.3806,2.3896,2.3853,2.4104,2.5292,2.6801,2.8097,3.0306,0.0,0.0,3.8517,4.0724,4.1379,4.2183,4.2836,4.2961,4.2886,4.2836,4.2961,4.3237,4.3564,4.3915,4.4719,4.5397,4.5623,4.6024,4.6301,4.6301,4.6301,4.6301,4.6301,4.6301,4.6301,4.6301,4.6301,4.6351,4.6476,4.6502,4.6527,4.6652,4.6652,4.6652,4.6652,4.6652,4.6602,4.6502,4.6502,4.6916,4.771,4.7944,4.9249,5.1294,5.1708,5.2494,5.35,5.35,5.35,5.35,5.35,5.35,5.35,5.35,5.35,5.35,0.0,0.0,0.0,0.0,0.0,0.0,0.0,0.0,0.0,0.0,0.0,0.0,0.0,0.0,0.0,0.0,0.0,0.0,0.0,2.6213,2.7046,2.8033,2.9578,3.0168,2.9651,2.8546,2.7723,2.7157,2.7419,2.768,2.7968,2.9405,3.0085,3.0147,3.0398,2.9719,2.8333,2.7725,2.715,2.6602,2.6661,2.6661,2.6524,2.572,2.5254,2.4887,2.3907,0.0,0.0,0.0,0.0,0.0,0.0,0.0,2.2949,2.3753,2.4782,2.6214,2.8649,0.0,0.0,3.7513,0.0,4.1078,4.1605,4.2158,4.2715,4.2911,4.2986,4.2986,4.2986,4.3212,4.3489,4.3765,4.4292,4.4869,4.5422,4.5723,4.6024,4.6276,4.6301,4.6301,4.6301,4.6301,4.6301,4.6301,4.6301,4.6301,4.6301,4.6301,4.6301,4.6301,4.6301,4.6301,4.6301,4.6301,4.6301,4.6301,4.6301,4.7205,4.8992,4.9562,5.0518,5.1729,5.2298,5.2943,5.35,5.35,5.35,5.35,5.35,5.35,5.35,5.35,5.35,5.35,0.0,0.0,0.0,0.0,0.0,0.0,0.0,0.0,0.0,0.0,0.0,0.0,0.0,0.0,0.0,0.0,0.0,0.0,0.0,2.6512,2.7454,2.8593,2.9555,2.9382,2.7876,2.7438,2.6837,2.608,2.6472,2.7438,2.8952,3.0241,3.0947,3.113,3.1026,3.0241,2.8908,2.7803,2.7177,2.6863,2.6498,2.6466,2.657,2.5297,2.47,2.4357,2.3277,2.316,2.3504,2.3386,0.0,0.0,0.0,0.0,2.1798,2.3276,2.4104,2.5252,2.88,0.0,3.5533,3.9195,4.03,0.0,4.1656,4.2011,4.2187,4.261,4.2836,4.2986,4.2986,4.2986,4.3137,4.3589,4.374,4.4141,4.507,4.5271,4.5497,4.5974,4.6024,4.605,4.615,4.6175,4.62,4.6301,4.6301,4.6301,4.6301,4.6301,4.6301,4.6301,4.6301,4.6301,4.6301,4.6301,4.6301,4.6326,4.6695,4.7945,4.9958,5.1375,5.2028,5.2082,5.3049,5.35,5.35,5.35,5.35,5.35,5.35,5.35,5.35,5.35,5.35,5.35,0.0,0.0,0.0,0.0,0.0,0.0,0.0,0.0,0.0,0.0,2.361,2.361,2.361,2.367,0.0,0.0,0.0,0.0,2.6393,0.0,0.0,2.8678,2.8734,2.8688,2.857,2.6887,2.6419,2.7281,2.6733,2.8006,3.0996,3.0459,3.0753,3.1667,3.1209,2.9797,2.7673,2.6888,2.5777,2.4592,2.474,2.4322,2.3635,2.392,2.343,2.2576,2.2502,2.2815,2.3256,2.3228,2.3479,0.0,0.0,0.0,2.1787,2.2351,2.2895,2.3747,0.0,0.0,3.5303,0.0,3.9446,4.0551,0.0,0.0,4.1426,0.0,4.2308,4.2986,4.2986,4.2986,4.3011,4.3087,4.3489,4.384,4.4016,4.4443,4.4769,4.4844,4.4844,4.5045,4.5547,4.5598,4.5799,4.6276,4.6301,4.6301,4.6301,4.6301,4.6301,4.6301,4.6301,4.6301,4.6301,4.6301,4.6301,4.6301,4.8384,4.9562,4.9985,5.2218,5.329,5.329,5.3395,5.35,5.35,5.35,5.35,5.35,5.35,5.35,5.35,5.35,5.35,5.35,0.0,0.0,0.0,0.0,0.0,0.0,0.0,0.0,0.0,0.0,0.0,2.361,2.361,2.361,0.0,0.0,0.0,0.0,2.5974,2.6988,0.0,2.7028,2.7361,2.7261,2.6649,2.5458,2.5188,2.5927,2.5319,2.7007,3.0843,3.0739,3.1836,3.3772,3.2745,3.1085,2.8934,2.7043,2.5653,2.4735,2.4201,2.4684,2.5486,2.3511,2.3434,2.4129,2.2334,2.2232,2.2982,2.2982,2.3312,2.3717,2.3628,0.0,0.0,0.0,2.2556,0.0,2.772,3.126,3.455,0.0,3.9044,3.9747,4.0375,0.0,4.0924,4.1225,4.1731,4.2158,4.2514,4.2816,4.2986,4.2986,4.3187,4.3438,4.3765,4.4016,4.4267,4.4593,4.4618,4.4719,4.497,4.4995,4.5095,4.5347,4.5372,4.5497,4.5824,4.5849,4.5999,4.6301,4.6301,4.6301,4.6301,4.6301,4.6301,4.6301,4.8731,4.9901,4.9958,5.238,5.35,5.35,5.35,5.35,5.35,5.35,5.35,5.35,5.35,5.35,5.35,5.35,5.35,5.35,0.0,0.0,0.0,0.0,0.0,0.0,0.0,0.0,0.0,0.0,0.0,0.0,2.361,0.0,0.0,0.0,0.0,0.0,2.5292,0.0,0.0,0.0,0.0,2.5867,2.4783,2.4148,2.4112,2.4693,2.4215,2.6308,3.0727,3.1289,3.3164,3.5984,3.4495,3.2529,3.0139,2.7854,2.6534,2.5851,2.4912,2.5753,2.7267,2.4892,2.5065,2.6297,2.339,2.2908,2.3551,2.2988,2.3167,2.3573,2.339,2.2588,0.0,0.0,0.0,0.0,0.0,0.0,3.2667,3.6282,3.7762,3.8567,0.0,0.0,4.0249,0.0,4.0974,4.1254,4.1656,4.2363,4.2816,4.2816,4.2886,4.3112,4.3539,4.3589,4.374,4.4166,4.4192,4.4267,4.4392,4.4418,4.4468,4.4618,4.4618,4.4819,4.5246,4.5422,4.5673,4.6075,4.6225,4.6301,4.6301,4.6301,4.6301,4.6301,4.8731,4.9901,4.9958,5.238,5.35,5.35,5.35,5.35,5.35,5.35,5.35,5.35,5.35,5.35,5.35,5.35,5.35,5.35,0.0,0.0,0.0,0.0,0.0,0.0,0.0,0.0,0.0,0.0,0.0,0.0,2.361,2.361,2.361,2.361,0.0,0.0,0.0,0.0,0.0,0.0,0.0,0.0,2.4151,2.3433,2.358,2.4693,2.4356,2.6739,3.1661,3.226,3.4439,3.7788,3.606,3.3427,3.0241,2.9401,2.8486,2.7659,2.7268,2.6981,2.6967,2.8884,2.8999,2.7972,2.6324,2.5804,2.5614,2.3526,2.3167,2.3496,2.2869,2.2226,2.1561,0.0,0.0,0.0,0.0,2.6741,0.0,3.1863,0.0,0.0,0.0,0.0,3.917,3.9672,4.0199,4.0576,4.0601,4.148,4.2263,4.2263,4.269,4.2986,4.3011,4.3011,4.3037,4.3062,4.3062,4.3263,4.379,4.384,4.4066,4.4593,4.4618,4.4644,4.4669,4.5196,4.5497,4.5522,4.6024,4.6301,4.6301,4.6301,4.6301,4.6301,4.8731,4.9901,4.9958,5.238,5.35,5.35,5.35,5.35,5.35,5.35,5.35,5.35,5.35,5.35,5.35,5.35,5.35,5.35,0.0,0.0,0.0,0.0,0.0,0.0,0.0,0.0,0.0,0.0,0.0,0.0,0.0,2.4246,2.4246,2.4246,2.3563,0.0,0.0,0.0,0.0,0.0,0.0,0.0,0.0,2.3324,2.3257,2.3876,2.3344,2.5246,2.9416,2.9971,3.1694,3.4274,3.4553,3.3911,3.2449,2.9643,2.8318,2.8001,2.7857,2.8787,3.0159,2.9529,3.0385,3.1543,2.8948,2.7779,0.0,2.6697,2.5665,2.4602,2.4094,2.2988,2.1623,2.0547,2.0945,0.0,0.0,0.0,0.0,3.1436,3.3495,3.5152,3.6609,3.7989,3.8919,3.912,3.9597,3.9998,3.9998,4.0877,4.1756,4.2162,4.2363,4.264,4.2936,4.2986,4.2986,4.2986,4.2986,4.3062,4.3263,4.3263,4.3363,4.3564,4.3564,4.3714,4.4091,4.4292,4.4744,4.5472,4.5673,4.5949,4.6301,4.6301,4.6695,4.7475,4.9133,5.0294,5.1127,5.2783,5.35,5.35,5.35,5.35,5.35,5.35,5.35,5.35,5.35,5.35,5.35,5.35,5.3605,5.371,0.0,0.0,0.0,0.0,0.0,0.0,0.0,0.0,2.3939,2.3939,0.0,0.0,0.0,0.0,2.4933,2.4933,2.4007,2.3444,2.349,2.3389,0.0,0.0,0.0,0.0,0.0,2.3206,2.3036,2.339,2.2921,2.4375,2.757,2.8323,2.993,3.2215,3.2424,3.2786,3.3169,3.0583,2.9377,2.9252,2.9829,3.1035,3.2491,3.2315,3.3395,3.4675,3.2147,0.0,0.0,0.0,2.7982,2.6324,2.5333,2.3386,2.1288,2.0243,2.092,0.0,2.3401,0.0,0.0,0.0,0.0,3.2918,3.5504,0.0,3.7688,3.8417,3.9019,3.9471,3.9672,4.03,4.0953,4.1505,4.1756,4.2057,4.2665,4.2766,4.2816,4.2961,4.2986,4.2986,4.2986,4.2986,4.2986,4.2986,4.2986,4.3137,4.3514,4.3689,4.4317,4.5447,4.5497,4.5748,4.6301,4.6695,4.7324,4.8152,4.9732,5.0906,5.1729,5.2943,5.35,5.35,5.35,5.35,5.35,5.35,5.35,5.35,5.35,5.3553,5.3605,5.3605,5.3815,5.3993,0.0,0.0,0.0,0.0,0.0,0.0,0.0,0.0,2.4634,2.4664,0.0,0.0,0.0,0.0,0.0,2.5634,2.4922,2.455,2.4644,2.4034,0.0,0.0,0.0,0.0,2.3624,2.297,2.2912,2.3441,2.321,2.4255,2.6474,2.7519,2.9453,3.1964,2.979,3.0041,3.2089,3.2064,3.1813,3.1587,3.3169,3.3571,3.3639,3.741,3.814,3.7111,3.5984,3.5232,0.0,3.1671,0.0,2.8562,2.6314,2.3382,2.0641,2.0063,2.069,2.1568,0.0,0.0,0.0,0.0,0.0,0.0,3.4329,0.0,3.5253,3.7487,3.8391,3.8969,3.9572,3.9672,3.9848,4.04,4.0953,4.1505,4.2112,4.2187,4.2389,4.2886,4.2961,4.2961,4.2986,4.2986,4.2986,4.2986,4.2986,4.2986,4.2986,4.3514,4.4317,4.5397,4.5447,4.5723,4.6276,4.7449,4.8126,4.821,5.0573,5.1729,5.1811,5.2943,5.35,5.35,5.35,5.35,5.35,5.35,5.35,5.35,5.35,5.3658,5.3919,5.3919,5.4097,5.4304,0.0,0.0,0.0,0.0,0.0,2.5322,2.5322,2.5322,2.5525,0.0,0.0,0.0,2.6444,2.6222,2.6155,2.6238,2.5108,2.4231,2.3985,2.3386,2.3041,2.3041,2.3824,2.4182,2.403,2.3847,2.3786,2.384,2.3351,2.3847,2.5285,2.5553,2.6766,2.8624,2.8021,2.8298,2.9227,2.8825,3.0181,3.2541,3.1813,3.3345,3.6081,3.6358,3.7513,3.8919,3.8191,3.7337,3.6383,0.0,3.3294,3.0105,2.6795,2.4337,2.2521,2.1911,2.2757,2.3728,2.2869,0.0,0.0,0.0,0.0,0.0,0.0,0.0,3.3068,3.5633,3.631,3.701,3.8768,3.9094,3.927,3.9823,4.0375,4.0927,4.148,4.1555,4.1781,4.2363,4.2439,4.259,4.2936,4.2986,4.2986,0.0,4.2986,4.2986,4.2986,4.3514,4.394,4.4267,4.4644,4.5146,4.5723,4.6914,4.8136,4.9392,5.0962,5.2136,5.2996,5.3343,5.35,5.35,5.35,5.3605,5.3762,5.3553,5.35,5.353,5.371,5.3867,5.389,5.4097,5.4385,5.4619,0.0,0.0,0.0,0.0,0.0,2.716,2.6828,2.703,2.7242,0.0,0.0,0.0,2.757,2.7797,2.7827,2.7451,2.5918,2.4892,2.4696,2.3664,2.3054,2.3054,2.3866,2.4258,2.4103,2.4356,2.4293,2.4004,2.3653,2.3672,2.4098,2.4356,2.5109,2.6239,2.6013,2.6615,2.7695,2.6691,2.8373,3.1788,3.2667,3.4424,3.6609,3.7539,3.8818,4.0023,3.9923,3.9471,3.8843,3.8391,3.5504,3.1578,2.8447,2.635,2.481,2.3775,2.4595,2.5611,2.4456,2.5209,0.0,0.0,0.0,0.0,2.9804,3.0407,3.116,0.0,3.4831,3.5633,3.7211,3.7864,3.8341,3.8894,3.9471,4.0099,4.0824,4.1003,4.1204,4.1756,4.1806,4.1932,4.2258,4.2509,4.269,4.269,4.2836,4.2986,4.2986,4.3288,4.3564,4.379,4.4116,4.4543,4.5121,4.7069,4.8581,4.9605,5.1536,5.2837,5.35,5.35,5.35,5.35,5.3605,5.3762,5.3919,5.3867,5.3867,5.3867,5.3993,5.4178,5.4282,5.4436,5.4722,5.4926,0.0,0.0,2.8611,2.876,2.9215,2.9328,2.8769,2.9137,2.92,0.0,2.8853,2.9246,2.9253,2.9855,2.9895,2.9056,2.7184,2.6049,2.6074,2.4442,2.3436,2.3386,2.3938,2.4204,2.4079,2.4632,2.4632,2.4079,2.4029,2.3703,2.312,2.3653,2.4155,2.4575,2.413,2.5059,2.6917,2.5636,2.6942,3.0231,3.4248,3.5881,3.6235,3.9696,4.0824,4.0676,4.1125,4.1275,4.11,3.9998,3.6935,3.3262,3.0884,2.9076,2.7494,2.5753,2.6414,0.0,2.6264,2.6791,0.0,2.8612,2.7469,0.0,3.0206,2.988,2.9654,0.0,3.3495,3.4354,3.5082,3.6107,3.701,3.7563,3.8241,3.9094,4.0249,4.0425,4.0626,4.1125,4.12,4.1225,4.1275,4.1781,4.2137,4.2213,4.2715,4.2986,4.2986,4.2986,4.3212,4.3689,4.3714,4.3966,4.4518,4.7516,4.9007,4.9144,5.2095,5.35,5.35,5.35,5.353,5.3553,5.3815,5.3971,5.4023,5.4252,5.4355,5.4304,5.4355,5.4539,5.4803,5.4854,5.5006,5.5179,0.0,2.7931,2.869,2.979,2.9463,2.9348,3.0338,2.9563,2.9209,3.0139,3.0184,3.0833,3.2638,3.1135,3.0251,3.0672,2.8451,2.6697,2.6005,2.4653,2.3658,2.318,2.4136,2.4657,2.4625,2.5184,2.5184,2.4625,2.4205,2.3703,2.3095,2.3221,2.3321,2.3421,2.3321,2.4023,2.536,2.6364,2.8222,3.0557,3.1863,3.4726,3.8316,3.9069,4.0124,4.115,4.125,4.1275,4.105,3.9546,3.814,3.6508,3.342,3.1888,3.0834,2.8712,2.8963,2.9729,2.8574,2.9101,2.9679,2.8549,2.895,0.0,2.8323,2.8524,2.9164,0.0,3.0608,3.1336,3.3219,3.4098,3.4726,3.5278,3.6558,3.8065,3.9647,3.9848,4.0049,4.0601,4.0676,4.0852,4.125,4.1376,4.1681,4.2162,4.2715,4.2986,4.2986,4.2986,4.3037,4.3137,4.3137,4.3413,4.3966,4.6988,4.8654,4.9144,5.2095,5.35,5.35,5.35,5.3605,5.3815,5.3867,5.4178,5.4619,5.4671,5.4539,5.4304,5.4619,5.4751,5.4854,5.5057,5.5158,5.5179,2.7004,2.7622,2.8454,2.9398,2.9716,3.0051,3.0667,3.0422,3.0535,3.1531,3.2411,3.2978,3.3019,3.2148,3.1372,3.0936,2.8937,2.7379,2.6653,2.5224,2.4155,2.3572,2.4349,2.4933,2.5209,2.5737,2.5762,2.5209,2.4682,2.3948,2.3095,2.3095,2.3547,2.4299,2.3803,2.4632,2.649,2.6766,2.8323,3.0834,3.3294,3.6132,3.907,4.04,4.143,4.2158,4.2158,4.1982,4.1505,3.9848,3.8894,0.0,3.5177,3.4299,3.3847,0.0,3.1587,3.1938,3.0532,3.0557,3.0859,3.0306,0.0,0.0,0.0,2.89,2.8925,3.0306,3.0156,3.0281,3.1938,3.2466,3.2918,3.3771,3.5278,3.6659,3.7513,3.8818,3.9798,4.0074,4.0099,4.0224,4.0501,4.0724,4.1153,4.1706,4.2258,4.2615,4.2615,4.2836,4.2986,4.2986,4.2986,4.3112,4.3388,4.6323,4.811,4.8763,5.1799,5.3419,5.371,5.3867,5.3942,5.4097,5.4282,5.4517,5.4803,5.4955,5.4926,5.4743,5.4926,5.5006,5.5006,5.5128,5.5179,5.5179,2.6607,2.7288,2.8157,2.8844,2.9789,3.0507,3.0646,3.1011,3.1612,3.2657,3.4243,3.4806,3.347,3.3545,3.3219,3.1989,3.0156,2.8775,2.8122,2.6515,2.5277,2.4657,2.4958,2.5335,2.5762,2.6147,2.5996,2.5285,2.4883,2.4098,2.3095,2.3221,2.4048,2.541,2.4757,2.5887,2.8222,2.7454,2.8938,3.2039,3.5705,3.7613,3.8542,4.1404,4.2509,4.2534,4.2861,4.274,4.2137,4.0526,3.9722,3.8969,3.6686,3.6408,0.0,0.0,3.4098,3.4223,3.2742,3.2416,3.2491,3.2416,0.0,3.0457,0.0,0.0,0.0,3.0482,3.0156,0.0,0.0,0.0,0.0,0.0,0.0,0.0,0.0,3.7111,0.0,3.8894,3.917,3.9371,3.9371,3.9772,4.035,4.1075,4.1404,4.176,4.2187,4.264,4.2861,4.2986,4.2986,4.3098,4.3351,4.5953,4.7755,4.8732,5.1603,5.3334,5.3993,5.42,5.4355,5.4406,5.4671,5.4854,5.4905,5.5078,5.5179,5.5179,5.5179,5.5179,5.5179,5.5179,5.5179,5.5179,2.6868,2.7498,2.8201,2.9388,2.9415,2.9733,3.1026,3.0503,3.0871,3.3413,3.4349,3.5454,3.7161,3.6533,3.6153,3.6408,3.4022,3.2064,3.0984,2.9377,2.7996,2.6967,2.6524,2.6348,2.6399,2.5912,2.5184,2.418,2.413,2.3753,2.312,2.3653,2.4255,2.4926,2.5845,2.7168,2.8838,2.9252,3.1838,3.5852,3.6784,3.6684,3.6235,3.9546,4.0802,4.1003,4.2459,4.2936,4.271,4.1555,4.105,4.0623,0.0,3.8115,3.829,3.6556,0.0,0.0,0.0,0.0,0.0,0.0,3.4248,3.4399,3.0181,0.0,3.0532,2.8825,0.0,0.0,0.0,0.0,0.0,0.0,0.0,0.0,3.2591,3.4148,3.5433,3.5909,3.7312,3.8191,3.8191,3.8266,3.8944,4.0501,3.9772,4.0151,4.2112,4.2263,4.2539,4.2961,4.2986,4.3517,4.4533,4.6384,4.8234,5.0081,5.2069,5.3407,5.4252,5.4304,5.4487,5.4751,5.4803,5.4955,5.5128,5.5209,5.5179,5.5179,5.5179,5.5179,5.5179,5.5179,5.5179,5.5179,2.5787,2.6248,2.6909,2.809,2.8444,2.8831,2.9762,3.1731,3.342,3.4274,3.6257,3.7839,3.8442,3.7789,3.7412,3.7638,3.6031,3.4293,3.2491,3.111,2.9729,2.8298,2.772,2.7419,2.7419,2.6575,2.5711,2.4933,2.4305,2.3703,2.312,2.3728,2.4808,2.6289,2.7394,2.9176,3.1361,3.1587,3.281,3.4595,3.5755,3.5755,3.5533,4.0199,4.1932,4.2032,4.2735,4.2986,4.276,4.1329,4.1025,4.0949,3.9094,3.8894,0.0,3.7713,0.0,0.0,0.0,0.0,0.0,0.0,0.0,0.0,3.1386,3.0633,3.0382,0.0,0.0,0.0,0.0,0.0,0.0,0.0,3.0884,0.0,0.0,0.0,3.3677,0.0,0.0,0.0,3.6985,3.7061,3.7613,3.8969,3.8642,3.9069,4.0651,4.1685,4.2313,4.2539,4.3504,4.4206,4.467,4.6853,4.8761,5.0342,5.2071,5.3461,5.4619,5.4743,5.4926,5.5057,5.5057,5.5108,5.5179,5.5179,5.5179,5.5179,5.5179,5.5179,5.5179,5.5179,5.5179,5.5179,2.5322,2.566,2.6138,2.7118,2.7745,2.8499,2.9615,3.2649,3.4956,3.5353,3.7638,3.9371,3.9774,3.9396,3.932,3.9772,3.8818,3.7285,3.5027,3.3545,3.2139,3.0768,2.9439,2.885,2.9001,2.7505,2.6373,2.5586,2.4682,2.4079,2.3797,2.423,2.546,2.7379,2.89,3.0984,3.3345,0.0,3.45,3.5429,3.6307,3.6837,3.7588,4.1003,4.2585,4.2986,4.2986,4.2986,4.276,4.143,4.1229,4.1329,3.9973,3.9722,3.9747,0.0,0.0,0.0,3.7536,3.7335,3.696,3.5608,3.4424,3.3194,3.1863,3.1025,3.0662,0.0,0.0,0.0,0.0,0.0,0.0,0.0,0.0,3.0859,0.0,3.0658,0.0,0.0,0.0,0.0,0.0,3.5449,3.5881,3.7462,3.7136,3.7713,3.9597,4.0978,4.1911,4.2213,4.3868,4.4886,4.5235,4.7355,4.9272,5.0989,5.2209,5.3545,5.4905,5.5078,5.5179,5.5179,5.5179,5.5179,5.5179,5.5179,5.5179,5.5179,5.5179,5.5179,5.5179,5.5179,5.5179,5.5209,2.6223,2.6449,2.665,2.7193,2.7745,2.9001,3.1712,3.2692,3.4098,3.6759,3.7663,3.9094,4.181,4.2087,4.266,4.4267,4.3413,4.1831,3.9622,3.7486,3.5931,3.5307,3.2223,3.0758,3.126,2.8649,2.6716,2.5586,2.5059,2.5034,2.5511,2.5536,2.6163,2.7429,3.0105,3.2265,3.3972,3.5625,3.8115,4.0924,3.9973,4.1153,4.3288,4.1354,4.158,4.2986,4.2986,4.2986,4.2886,4.2363,4.2162,4.2087,4.1455,4.0902,4.0475,4.045,4.0049,3.9647,3.9597,3.9597,3.8818,3.5554,3.47,3.3822,3.0608,3.1261,3.2152,3.0899,3.2095,0.0,0.0,0.0,0.0,0.0,0.0,0.0,0.0,0.0,0.0,0.0,0.0,0.0,0.0,3.2993,3.3495,3.6257,3.4951,3.568,3.9496,4.0249,4.1053,4.2187,4.3868,4.5289,4.6632,4.7813,4.9853,5.2684,5.2763,5.3645,5.5209,5.5179,5.5179,5.5179,5.5179,5.5179,5.5179,5.5179,5.5179,5.5179,5.5179,5.5179,5.5179,5.5179,5.5179,5.5269,2.6901,2.7329,2.762,2.7795,2.7971,2.9176,3.229,3.45,3.6659,3.9069,4.0501,4.2208,4.4644,4.4895,4.5271,4.62,4.5598,4.4242,4.2007,4.0124,3.8693,3.7789,3.5253,3.3753,3.3596,3.0909,2.8925,2.7759,2.654,2.6021,2.6197,2.6197,2.6766,2.7946,3.0708,3.3068,0.0,0.0,0.0,0.0,0.0,4.2208,4.4267,4.3514,4.3363,4.3514,4.3514,4.3288,4.2961,4.276,4.2514,4.2162,4.1932,4.1505,4.1,4.1,4.0874,4.0777,4.0777,4.0777,4.0149,3.7538,3.6081,3.453,3.1989,3.1854,3.1996,3.0834,3.2021,3.2912,0.0,0.0,0.0,0.0,0.0,0.0,0.0,0.0,0.0,0.0,0.0,0.0,0.0,0.0,3.2667,3.5102,3.4776,3.5655,3.8442,4.0149,4.1229,4.1605,4.3823,4.5502,4.6684,4.8167,5.02,5.2812,5.3009,5.3794,5.5179,5.5179,5.5179,5.5179,5.5179,5.5179,5.5179,5.5179,5.5179,5.5179,5.5179,5.5179,5.5179,5.5179,5.5478,5.5987,2.7795,2.7996,2.8172,2.8373,2.9051,3.0557,3.3495,3.6307,3.8793,4.0827,4.271,4.4568,4.6401,4.6778,4.7104,4.7682,4.738,4.6075,4.3438,4.2459,4.1304,3.9823,3.799,3.6759,3.6207,3.3627,3.1496,2.9804,2.8549,2.7756,2.7344,2.7178,0.0,0.0,3.1286,3.3545,3.5382,3.8266,3.9998,0.0,0.0,4.3664,4.4945,4.5146,4.4744,4.4091,4.4091,4.374,4.3263,4.3263,4.2911,4.2514,4.2514,4.2082,4.163,4.163,4.1505,4.1354,4.1462,4.1515,4.1011,3.912,3.7779,3.6311,3.3568,3.3485,3.3579,3.2205,3.2937,3.3806,0.0,0.0,0.0,0.0,0.0,0.0,0.0,2.8044,0.0,0.0,0.0,0.0,0.0,0.0,3.1518,3.3671,3.3891,0.0,0.0,3.9471,4.0779,4.1436,4.4018,4.5894,4.6995,4.8844,5.0818,5.293,5.3125,5.3892,5.5179,5.5179,5.5179,5.5179,5.5179,5.5179,5.5179,5.5179,5.5179,5.5179,5.5179,5.5179,5.5179,5.5179,5.5748,5.6645,2.8938,2.8624,2.8524,2.9088,3.0909,3.3018,3.5232,3.7965,4.035,4.2137,4.4267,4.6075,4.7205,4.7782,4.8284,4.8837,4.8887,4.7531,4.4292,4.4518,4.3783,4.1652,4.0526,3.9647,3.9094,3.681,3.4279,3.1637,3.0959,3.008,2.8988,0.0,0.0,0.0,3.1788,0.0,3.4981,3.8818,4.1455,4.3212,4.4869,4.5522,4.5598,4.6125,4.5648,4.4694,4.4669,4.4317,4.384,4.384,4.3463,4.3011,4.3011,4.269,4.2263,4.2263,4.1831,4.1483,4.1752,4.1859,4.1559,4.0209,3.9772,3.8848,3.5392,3.6012,3.6796,3.4812,3.4921,3.5678,3.6898,0.0,0.0,0.0,0.0,0.0,0.0,0.0,0.0,0.0,0.0,0.0,0.0,0.0,2.9997,3.2014,3.2382,0.0,0.0,3.8265,3.9802,4.1788,4.4458,4.644,4.7661,4.9757,5.1572,5.3174,5.3174,5.3892,5.5179,5.5179,5.5179,5.5179,5.5179,5.5179,5.5179,5.5179,5.5179,5.5179,5.5179,5.5209,5.5239,5.5269,5.6077,5.7244,2.9578,3.0783,3.2089,3.3068,3.3018,3.3746,3.6358,3.8768,4.1354,4.4242,4.6552,4.851,5.0042,5.0343,5.0469,5.0619,5.0645,4.9916,4.8209,4.7456,4.6652,4.5639,4.379,4.2484,4.1932,3.8542,3.6207,3.5123,3.2089,3.0658,3.0733,0.0,0.0,0.0,0.0,3.3119,3.5458,3.8165,4.1204,4.4317,4.5573,4.61,4.6125,4.625,4.6125,4.5824,4.5422,4.4895,4.4418,4.4418,4.4041,4.3589,4.3589,4.3212,4.276,4.276,4.266,4.2559,4.267,4.2835,4.2827,4.2067,4.1105,4.0027,3.862,3.8694,3.854,3.6801,3.7548,3.8053,3.6457,3.5396,0.0,0.0,0.0,0.0,0.0,0.0,0.0,2.9277,0.0,0.0,0.0,2.9038,2.9717,3.1461,3.2155,0.0,3.6458,3.798,3.9873,4.229,4.4296,4.644,4.8766,4.9533,5.1012,5.3174,5.3174,5.3892,5.5179,5.5179,5.5179,5.5179,5.5179,5.5179,5.5179,5.5179,5.5179,5.5179,5.5179,5.5478,5.5987,5.6436,5.7124,5.7962,3.1235,3.3194,3.5152,3.6006,3.6458,3.7211,3.8768,4.0275,4.2258,4.5121,4.7405,4.9038,4.9741,5.0896,5.1548,5.1297,5.1272,5.0695,4.9314,4.9088,4.8435,4.7179,4.615,4.5121,4.4091,4.1204,3.8718,3.6782,3.3822,0.0,3.1035,0.0,0.0,0.0,0.0,3.2893,3.5031,3.8743,4.1831,4.4392,4.5748,4.6301,0.0,4.6301,4.6301,4.6276,4.5949,4.5472,4.4995,4.4995,4.4468,4.379,4.379,4.3413,4.2986,4.2986,4.2986,4.3042,4.3129,4.3295,4.3386,4.3355,4.2802,4.1957,4.0848,4.0616,4.028,3.9094,3.892,3.8868,3.8631,3.6755,0.0,0.0,0.0,0.0,0.0,0.0,0.0,0.0,2.9315,0.0,0.0,2.9001,2.9454,3.0491,3.1569,0.0,0.0,3.7159,3.9576,4.2488,4.442,4.6718,4.9337,4.9999,5.1283,5.3174,5.3174,5.3892,5.5179,5.5179,5.5179,5.5179,5.5179,5.5179,5.5179,5.5179,5.5179,5.5209,5.5508,5.6196,5.7064,5.7423,5.7782,5.8231,3.3495,3.573,3.7739,3.8165,4.0124,4.1702,4.2003,4.2559,4.3721,4.5748,4.7958,4.9113,4.8611,5.0745,5.2026,5.1548,5.1498,5.0845,4.9314,5.0117,4.9741,4.7757,4.7958,4.7405,4.5849,4.394,4.1153,3.7412,3.5529,0.0,0.0,0.0,0.0,0.0,0.0,0.0,0.0,4.0,4.2891,4.4041,4.5673,4.6301,4.6301,4.6301,4.6301,4.6301,4.6301,4.5999,4.5598,4.5598,4.4895,4.4016,4.4016,4.3589,4.3087,4.3087,4.3037,4.3017,4.3295,4.3406,4.3572,4.4148,4.4313,4.3978,4.2502,4.2164,4.206,4.1667,4.0039,3.9372,4.1736,3.8303,0.0,0.0,0.0,0.0,0.0,0.0,0.0,0.0,0.0,0.0,0.0,0.0,0.0,0.0,3.0775,0.0,0.0,0.0,3.8969,4.2457,4.4789,4.7141,4.964,5.0668,5.1887,5.3174,5.3174,5.3892,5.5179,5.5179,5.5179,5.5179,5.5179,5.5179,5.5179,5.5179,5.5239,5.5388,5.6137,5.7124,5.8141,5.8231,5.8261,5.8321,3.573,3.804,3.9823,3.9471,4.1605,4.3991,4.5849,4.6552,4.738,4.8711,5.082,5.2151,5.2051,5.2477,5.2754,5.2653,5.2628,5.2327,5.1574,5.1699,5.1423,5.0594,4.9741,4.8736,4.7506,4.4518,4.153,3.8617,3.5529,3.3093,0.0,0.0,0.0,0.0,0.0,0.0,3.7487,4.083,4.3062,4.4593,4.5824,4.6301,4.6301,4.6301,4.6301,4.6301,4.6301,4.625,4.6175,4.6175,4.5723,4.5196,4.5196,4.4493,4.3664,4.3664,4.3338,4.3042,4.3073,4.3432,4.3844,4.3955,4.4313,4.4535,4.4222,4.417,4.4308,4.464,4.3355,4.2128,4.2151,3.8965,3.6209,0.0,0.0,0.0,0.0,0.0,0.0,0.0,0.0,3.2155,0.0,0.0,0.0,0.0,0.0,3.1658,3.4081,3.541,3.8243,4.2907,4.5116,4.7473,5.0067,5.0837,5.1887,5.3174,5.3174,5.3892,5.5179,5.5179,5.5179,5.5179,5.5179,5.5179,5.5179,5.5179,5.5508,5.6107,5.7304,5.7932,5.8201,5.874,5.8919,5.8949,3.9647,4.0877,4.1982,4.2585,4.4493,4.6476,4.8159,4.9615,5.0293,4.9665,5.0519,5.1197,5.1197,5.2226,5.2929,5.2929,5.2929,5.2804,5.2553,5.2251,5.1975,5.1724,5.0619,4.964,4.8812,4.61,4.3212,4.0149,3.6835,3.4048,3.1788,0.0,0.0,0.0,0.0,3.4675,0.0,4.0978,4.2936,4.4317,4.5748,4.6301,4.6301,4.6301,4.6301,4.6301,4.6301,4.6301,4.6301,4.6301,4.5949,4.5497,4.5497,4.492,4.4217,4.4217,4.4041,4.3765,4.3489,4.3639,4.3868,4.3921,4.4119,4.4367,4.4613,4.4668,4.4967,4.5813,4.4824,4.351,4.2518,3.957,3.7527,3.82,3.6346,0.0,0.0,0.0,0.0,0.0,0.0,0.0,0.0,0.0,0.0,0.0,0.0,3.1601,3.3354,3.544,3.8492,4.2767,4.5313,4.7742,5.0196,5.1229,5.2217,5.3174,5.3533,5.4221,5.5179,5.5179,5.5179,5.5179,5.5179,5.5179,5.5209,5.5568,5.6286,5.7244,5.7872,5.8321,5.868,5.8979,5.9099,5.9099,4.3162,4.3614,4.4267,4.5598,4.728,4.8736,4.964,5.1574,5.2302,5.0544,5.0293,5.0293,5.0293,5.1875,5.2929,5.2929,5.2929,5.2929,5.2929,5.2528,5.2277,5.2277,5.1322,5.0469,4.9791,4.7832,4.5095,4.1505,3.8542,3.5554,3.2541,0.0,0.0,0.0,0.0,3.6056,3.8693,4.1307,4.3112,4.4468,4.5899,4.6476,4.6476,4.6476,4.6401,4.6301,4.6301,4.6301,4.6301,4.6301,4.6024,4.5673,4.5673,4.5271,4.4794,4.4794,4.4719,4.4518,4.4148,4.4004,4.3916,4.4126,4.4087,4.4148,4.4884,4.5046,4.5449,4.6791,4.6059,4.4657,4.2935,4.0759,3.9519,4.0322,3.8839,0.0,0.0,0.0,0.0,0.0,0.0,0.0,3.2461,0.0,0.0,0.0,0.0,3.1811,3.3409,3.5731,3.8843,4.2833,4.5479,4.7796,4.9777,5.1409,5.2546,5.3204,5.3892,5.4551,5.5179,5.5179,5.5179,5.5179,5.5179,5.5269,5.5448,5.6107,5.7064,5.8141,5.8291,5.865,5.9099,5.9099,5.9099,5.9099,4.4443,4.5698,4.6803,4.6892,4.8761,5.0218,5.0318,5.1825,5.2854,5.2653,5.2628,5.2628,5.2628,5.2804,5.2929,5.2929,5.2929,5.2929,5.2929,5.2879,5.2854,5.2854,5.2277,5.1448,5.0368,4.9163,4.6426,4.2137,4.0275,3.7437,3.3721,3.3068,3.3294,3.4349,3.6081,3.814,4.04,4.2158,4.4116,4.6125,4.6803,4.7054,4.7054,4.7054,4.6753,4.6301,4.6301,4.6301,4.6301,4.6301,4.6276,4.6225,4.6225,4.5849,4.5422,4.5422,4.5045,4.4676,4.4915,4.4649,4.4356,4.4922,4.4701,4.4613,4.5953,4.6216,4.6843,4.8873,4.8355,4.6523,4.3206,4.3209,4.3307,4.2129,4.1525,0.0,0.0,0.0,3.9679,3.8642,0.0,0.0,0.0,3.2176,0.0,0.0,3.1386,3.2319,3.5939,3.629,3.8671,4.3632,4.575,4.7356,4.8476,5.096,5.2546,5.3204,5.3892,5.4551,5.5179,5.5179,5.5179,5.5179,5.5179,5.5538,5.6137,5.6735,5.7453,5.8171,5.877,5.9039,5.9099,5.9099,5.9099,5.9099,4.7606,4.7606,4.8033,4.9389,4.9791,5.0368,5.1724,5.2503,5.2929,5.2929,5.2929,5.2929,5.2929,5.2929,5.2929,5.2929,5.2929,5.2929,5.2929,5.2929,5.2929,5.2929,5.2402,5.19,5.1448,5.0017,4.7757,4.4644,4.1982,3.9195,3.6332,3.5127,3.5504,3.7262,3.8241,4.0099,4.2585,4.3915,4.5372,4.6853,4.738,4.7606,4.7606,4.7606,4.7456,4.723,4.6928,4.6803,4.6753,4.6426,4.6301,4.6301,4.6301,4.615,4.5974,4.5974,4.5824,4.5573,4.5422,4.5145,4.5016,4.4899,4.4733,4.4672,4.526,4.59,4.6843,4.8346,4.8211,4.7311,4.5712,4.4244,4.3718,4.5004,4.4078,4.3545,0.0,0.0,0.0,4.1155,0.0,3.7709,0.0,3.4554,0.0,0.0,0.0,3.1645,3.4538,3.6438,3.8883,4.2051,4.5741,4.809,4.8865,5.1468,5.3144,5.3803,5.4491,5.494,5.5179,5.5179,5.5179,5.5209,5.5598,5.6137,5.6765,5.7423,5.8112,5.874,5.9009,5.9099,5.9099,5.9099,5.9099,5.9099,5.0017,4.9439,4.9515,5.1423,5.1096,5.1096,5.2678,5.2929,5.2929,5.2929,5.2929,5.2929,5.2929,5.2929,5.2929,5.2929,5.2929,5.2929,5.2929,5.2929,5.2929,5.2929,5.2553,5.2277,5.2101,5.0946,4.9339,4.728,4.4443,4.1852,3.9672,3.8191,3.8492,4.035,4.1078,4.2559,4.4593,4.5573,4.6602,4.7657,4.8008,4.8159,4.8159,4.8159,4.8058,4.7857,4.7481,4.7355,4.7305,4.6903,4.6677,4.6527,4.6351,4.6301,4.6301,4.6301,4.6301,4.6285,4.6061,4.5834,4.559,4.5494,4.5145,4.4952,4.5334,4.6193,4.7225,4.8389,4.8402,4.8126,4.7656,4.5625,4.4603,4.6407,4.5763,4.5266,0.0,4.5035,0.0,4.283,4.0576,3.8716,3.7745,3.6237,0.0,0.0,0.0,3.3284,3.5648,3.7512,3.9783,4.2491,4.6291,4.8686,4.9553,5.1947,5.3533,5.4221,5.488,5.5179,5.5209,5.5388,5.5478,5.5508,5.6166,5.6795,5.7423,5.7932,5.853,5.9099,5.9099,5.9099,5.9099,5.9099,5.9099,5.9099,5.1046,5.1247,5.1599,5.2703,5.2904,5.2904,5.2929,5.2929,5.2929,5.2929,5.2929,5.2929,5.2929,5.2929,5.2929,5.2929,5.2929,5.2929,5.2929,5.2929,5.2929,5.2929,5.2929,5.2653,5.2126,5.2076,5.1247,4.9565,4.7883,4.5924,4.3714,4.2585,4.2715,4.379,4.492,4.5748,4.6326,4.6878,4.7757,4.8761,4.8825,4.8761,4.8761,4.8761,4.841,4.7908,4.7908,4.7908,4.7908,4.7883,4.7556,4.7029,4.6476,4.6301,4.6301,4.6301,4.6301,4.6421,4.7027,4.656,4.6094,4.7022,4.6221,4.5529,4.6894,4.7591,4.8397,4.9897,4.9687,4.9075,4.8386,4.7728,4.6817,4.5544,4.6411,4.68,4.5484,4.4736,0.0,4.3449,4.0427,3.8392,3.8392,3.6615,0.0,0.0,3.751,3.8349,4.0964,3.9955,4.142,4.61,4.7578,4.8895,5.0166,5.2187,5.3533,5.4221,5.488,5.5179,5.5209,5.5867,5.6218,5.6248,5.6825,5.7483,5.8112,5.8112,5.853,5.9099,5.9099,5.9099,5.9099,5.9099,5.9099,5.9099,5.2327,5.2402,5.2528,5.2879,5.2929,5.2929,5.2929,5.2929,5.2929,5.2929,5.2929,5.2929,5.2929,5.2929,5.2929,5.2929,5.2929,5.2929,5.2929,5.2929,5.2929,5.2929,5.2929,5.2854,5.2678,5.2302,5.1649,5.0745,4.9063,4.7305,4.5497,4.4769,4.502,4.61,4.6451,4.7129,4.8008,4.8184,4.8661,4.9339,4.9339,4.9339,4.9339,4.9339,4.9213,4.9012,4.8636,4.8485,4.8435,4.8033,4.7807,4.7631,4.7456,4.6903,4.6301,4.6301,4.6301,4.6361,4.6541,4.6534,4.6544,4.6688,4.6559,4.6295,4.6154,4.7097,4.8397,4.9868,5.0016,4.9583,4.8476,4.8117,4.7698,4.68,4.701,4.701,4.6112,0.0,4.4257,4.4047,4.2282,4.1123,4.1123,4.0576,0.0,0.0,3.907,3.922,4.0303,4.1383,4.2901,4.4874,4.7997,4.9986,5.0853,5.2875,5.4221,5.488,5.5089,5.5418,5.5867,5.6128,5.6406,5.6825,5.7513,5.7932,5.8171,5.859,5.8919,5.9099,5.9099,5.9099,5.9099,5.9099,5.9099,5.9099,5.2929,5.2929,5.2929,5.2929,5.2929,5.2929,5.2929,5.2929,5.2929,5.2929,5.2929,5.2929,5.2929,5.2929,5.2929,5.2929,5.2929,5.2929,5.2929,5.2929,5.2929,5.2929,5.2929,5.2929,5.2929,5.2578,5.2251,5.19,5.0444,4.9188,4.8159,4.7606,4.7832,4.8686,4.8686,4.9063,4.969,4.949,4.959,4.9891,4.9665,4.959,4.959,4.959,4.959,4.9565,4.9213,4.9088,4.9012,4.8661,4.841,4.8234,4.8234,4.7631,4.6878,4.6677,4.6627,4.6577,4.6496,4.6721,4.6917,4.6913,4.7294,4.7675,4.7487,4.8252,4.9264,5.0347,5.0375,4.9867,4.8835,4.8446,4.8057,4.7429,4.7309,4.707,4.6369,4.5364,4.4586,0.0,4.3389,4.2641,4.241,4.286,4.2761,4.1923,4.2192,4.2495,4.2713,4.3048,4.4045,4.5753,4.8925,5.105,5.1947,5.3443,5.4551,5.5179,5.5448,5.5777,5.6248,5.6675,5.7124,5.7513,5.8201,5.8501,5.853,5.8949,5.9099,5.9099,5.9099,5.9099,5.9099,5.9099,5.9099,5.9099,5.2929,5.2929,5.2929,5.2929,5.2955,5.298,5.2929,5.3005,5.3005,5.2929,5.3005,5.3005,5.2929,5.2955,5.298,5.2929,5.2929,5.2929,5.2929,5.2929,5.2929,5.2929,5.2929,5.2929,5.2929,5.2929,5.2929,5.2929,5.185,5.1348,5.1322,5.0745,5.077,5.1272,5.1272,5.1272,5.1247,5.0695,5.0469,5.0419,4.9916,4.9715,4.9715,4.9665,4.9665,4.964,4.9615,4.959,4.959,4.959,4.9264,4.8837,4.8837,4.846,4.7908,4.7355,4.7179,4.714,4.6889,4.701,4.7316,4.7586,4.8391,4.9364,5.0471,5.0705,5.0749,5.1173,5.0764,5.0106,4.9464,4.8805,4.8147,4.7489,4.7339,4.707,4.6309,4.5753,4.5095,4.4407,4.3828,4.3299,4.268,4.3748,4.4466,4.4317,4.6142,4.7249,4.7249,4.5005,4.5185,4.8327,5.0272,5.1917,5.3234,5.3922,5.461,5.5269,5.5867,5.6278,5.6346,5.7573,5.8141,5.8231,5.883,5.9099,5.9099,5.9099,5.9099,5.9099,5.9099,5.9099,5.9099,5.9099,5.9099,5.9099,5.2929,5.2929,5.2929,5.2929,5.3256,5.3381,5.298,5.3632,5.3884,5.303,5.3658,5.3858,5.303,5.3281,5.3356,5.2955,5.2929,5.2929,5.2929,5.2929,5.2929,5.2929,5.2929,5.2929,5.2929,5.2929,5.2929,5.2929,5.2251,5.19,5.19,5.1348,5.1147,5.1272,5.1272,5.1272,5.1272,5.1147,5.1071,5.1071,5.0946,5.0896,5.0845,5.0393,5.0218,5.0167,4.9741,4.959,4.959,4.959,4.9515,4.9389,4.9389,4.9314,4.9012,4.8008,4.7732,4.7606,4.714,4.7268,4.7469,4.7367,4.8219,4.9584,5.1563,5.1643,5.147,5.1906,5.1858,5.1379,5.0212,4.9464,4.8805,4.8147,4.7638,4.689,4.5693,4.5843,4.5633,4.4466,4.5053,4.5334,4.4676,4.5813,4.5963,4.4436,4.5693,4.6561,4.6561,4.7399,4.8446,4.9687,5.1199,5.2606,5.3952,5.461,5.5299,5.6008,5.6107,5.6705,5.7663,5.7992,5.8411,5.889,5.9039,5.9099,5.9099,5.9099,5.9099,5.9099,5.9099,5.9099,5.9099,5.9099,5.9099,5.9099,5.2929,5.313,5.3281,5.3281,5.3733,5.4009,5.3708,5.4185,5.4361,5.3758,5.4185,5.4235,5.3381,5.3532,5.3482,5.298,5.2929,5.2929,5.2929,5.2929,5.2929,5.2929,5.2929,5.2929,5.2929,5.2929,5.2929,5.2929,5.2628,5.2477,5.2477,5.2176,5.2026,5.2026,5.2026,5.2026,5.2026,5.1774,5.1649,5.1624,5.1373,5.1272,5.1247,5.0946,5.082,5.0745,5.0167,4.9967,4.9941,4.9665,4.959,4.959,4.959,4.959,4.9464,4.8862,4.851,4.8184,4.7631,4.8156,4.8945,4.9377,4.9761,5.0462,5.2047,5.2581,5.2773,5.2688,5.2396,5.1887,5.0823,4.9912,4.909,4.8386,4.7728,4.695,4.5903,4.6082,4.613,4.5723,4.6322,4.686,4.707,4.7788,4.7758,4.6651,4.7519,4.8073,4.8073,4.9703,5.0631,5.0644,5.2276,5.3473,5.4192,5.5149,5.5807,5.6248,5.6765,5.7423,5.8141,5.8441,5.877,5.9099,5.9099,5.9099,5.9099,5.9099,5.9099,5.9099,5.9099,5.9099,5.9099,5.9099,5.9099,5.9099,5.3055,5.3457,5.3833,5.3833,5.431,5.4662,5.4587,5.4712,5.4762,5.4587,5.4712,5.4561,5.3909,5.3833,5.3607,5.308,5.298,5.2929,5.2929,5.2929,5.2929,5.2929,5.2929,5.2929,5.2929,5.2929,5.2929,5.2929,5.2929,5.2929,5.2929,5.2929,5.2929,5.2929,5.2929,5.2929,5.2904,5.2427,5.2226,5.2176,5.1724,5.1523,5.1523,5.1448,5.1398,5.1322,5.0745,5.0544,5.0469,5.0017,4.9791,4.9715,4.9715,4.9665,4.959,4.959,4.9366,4.9078,4.8246,4.9193,5.0697,5.1956,5.1905,5.1863,5.2758,5.3719,5.4162,5.3473,5.2905,5.2276,5.1498,5.0301,4.9194,4.8536,4.7788,4.707,4.6369,4.6459,4.68,4.7249,4.7489,4.8027,4.9209,4.9299,4.9359,4.9449,5.0002,5.0375,5.0495,5.1798,5.2247,5.1678,5.3324,5.4311,5.4491,5.5598,5.6286,5.6466,5.7603,5.8171,5.8291,5.886,5.9099,5.9099,5.9099,5.9099,5.9099,5.9099,5.9099,5.9099,5.9099,5.9099,5.9099,5.9099,5.9159,5.9249,5.3582,5.4034,5.4436,5.4436,5.4888,5.5089,5.4637,5.5365,5.5616,5.4687,5.539,5.5566,5.4536,5.4436,5.421,5.3632,5.3181,5.2929,5.2929,5.2929,5.2929,5.2929,5.2929,5.2929,5.2929,5.2929,5.2929,5.2929,5.2929,5.2929,5.2929,5.2929,5.2929,5.2929,5.2929,5.2929,5.2929,5.2829,5.2804,5.2804,5.2703,5.2678,5.2628,5.2151,5.1975,5.19,5.1348,5.1147,5.1147,5.1046,5.0695,5.0293,5.0293,4.9967,4.959,4.959,5.0295,5.0721,4.9078,4.9502,5.0717,5.2139,5.3049,5.393,5.5271,5.5317,5.485,5.4192,5.3952,5.3533,5.2276,5.096,4.9883,4.9269,4.8087,4.707,4.6369,4.7279,4.7818,4.7369,4.8297,4.909,4.9299,4.9299,4.9494,4.9986,5.0644,5.1319,5.1858,5.3174,5.3862,5.3743,5.4042,5.473,5.5867,5.6128,5.6735,5.7812,5.8022,5.8411,5.8949,5.9069,5.9099,5.9099,5.9099,5.9099,5.9099,5.9099,5.9099,5.9099,5.9099,5.9099,5.9099,5.9099,5.9458,5.9937,5.411,5.4536,5.4888,5.4988,5.5465,5.5742,5.5491,5.5892,5.6018,5.5516,5.5892,5.5917,5.5089,5.5013,5.4787,5.421,5.3658,5.3331,5.3331,5.308,5.2929,5.2929,5.2929,5.2929,5.2929,5.2929,5.2929,5.2929,5.2929,5.2929,5.2929,5.2929,5.2929,5.2929,5.2929,5.2929,5.2929,5.2929,5.2929,5.2929,5.2929,5.2929,5.2904,5.2653,5.2553,5.2477,5.1925,5.1724,5.1674,5.1373,5.1096,5.087,5.087,5.072,5.0444,5.0117,5.0242,5.0612,5.1168,5.1101,5.117,5.2712,5.381,5.4616,5.5125,5.5486,5.5538,5.488,5.4461,5.4012,5.3384,5.1917,5.078,5.084,4.9164,4.7967,4.8342,4.8356,4.8566,4.9314,4.9942,5.0601,5.1366,5.1426,5.1498,5.1798,5.2097,5.2576,5.3234,5.3862,5.4521,5.5239,5.5269,5.5568,5.6166,5.6885,5.7513,5.8112,5.8471,5.88,5.9099,5.9099,5.9099,5.9099,5.9099,5.9099,5.9099,5.9099,5.9099,5.9099,5.9099,5.9099,5.9159,5.9488,5.9817,6.0146,5.4662,5.5089,5.5415,5.5566,5.5942,5.6219,5.6219,5.6219,5.6219,5.6219,5.6219,5.6043,5.5616,5.5465,5.5214,5.4787,5.4235,5.3858,5.3708,5.3331,5.3055,5.2929,5.2929,5.2929,5.2929,5.2929,5.2929,5.2929,5.2929,5.2929,5.2929,5.2929,5.2929,5.2929,5.2929,5.2929,5.2929,5.2929,5.2929,5.2929,5.2929,5.2929,5.2929,5.2929,5.2929,5.2879,5.2452,5.2302,5.2226,5.18,5.1574,5.1473,5.1473,5.1398,5.1197,5.0745,5.0453,5.0843,5.2964,5.301,5.2691,5.4016,5.494,5.5525,5.5299,5.5864,5.6226,5.5748,5.5119,5.461,5.4461,5.2935,5.1738,5.1947,5.0152,4.9075,5.0046,4.9494,4.9583,5.1259,5.1588,5.2067,5.3084,5.3174,5.3174,5.3174,5.3324,5.3653,5.4192,5.4491,5.5209,5.6346,5.6376,5.6466,5.6615,5.7633,5.8201,5.8351,5.886,5.9099,5.9099,5.9099,5.9099,5.9099,5.9099,5.9099,5.9129,5.9279,5.9338,5.9338,5.9518,5.9578,5.9638,6.0146,6.0416,6.0625,5.5315,5.5767,5.6143,5.6143,5.6194,5.6219,5.6219,5.6219,5.6219,5.6219,5.6219,5.6194,5.6168,5.5691,5.5365,5.534,5.4813,5.4285,5.3733,5.3658,5.3432,5.2955,5.2929,5.2929,5.2929,5.2929,5.2929,5.2929,5.2929,5.2929,5.2929,5.2929,5.2929,5.2929,5.2929,5.2929,5.2929,5.2929,5.2929,5.2929,5.2929,5.2929,5.2929,5.2929,5.2929,5.2929,5.2879,5.2879,5.2854,5.2829,5.2477,5.2051,5.2051,5.1699,5.1272,5.1222,5.1858,5.28,5.3652,5.489,5.5993,5.6365,5.6971,5.7541,5.7779,5.743,5.7004,5.6974,5.6466,5.5837,5.5239,5.3982,5.2665,5.1468,5.0584,5.0076,5.0196,5.0644,5.1289,5.2037,5.2665,5.3084,5.3174,5.3174,5.3174,5.3174,5.3773,5.4162,5.4221,5.5359,5.6346,5.7004,5.7034,5.7334,5.7962,5.8082,5.8441,5.9039,5.9069,5.9099,5.9099,5.9099,5.9099,5.9099,5.9099,5.9099,5.9159,5.9757,6.0027,6.0086,6.0715,6.0954,6.0984,6.1014,6.1433,6.1942,5.5842,5.6068,5.6219,5.6219,5.6219,5.6219,5.6219,5.6219,5.6219,5.6219,5.6219,5.6219,5.6219,5.6018,5.5892,5.5892,5.539,5.4988,5.4762,5.4436,5.3858,5.2955,5.2929,5.2929,5.2929,5.2929,5.2929,5.2929,5.2929,5.2929,5.2929,5.2929,5.2929,5.2929,5.2929,5.2929,5.2929,5.2929,5.2929,5.2929,5.2929,5.2929,5.2929,5.2929,5.2929,5.2929,5.2929,5.2929,5.2929,5.2929,5.2779,5.2628,5.2628,5.3064,5.3826,5.5162,5.5854,5.64,5.7478,5.7197,5.6565,5.665,5.7628,5.8459,5.8148,5.7932,5.7603,5.7184,5.6915,5.6675,5.6406,5.5299,5.4401,5.4311,5.2695,5.1738,5.2576,5.2187,5.2217,5.3324,5.3653,5.3982,5.4401,5.4431,5.4431,5.4431,5.5059,5.5418,5.5418,5.6675,5.7483,5.7723,5.8112,5.8261,5.8112,5.853,5.886,5.9099,5.9099,5.9099,5.9129,5.9518,5.9727,5.9727,6.0176,6.0356,6.0356,6.0625,6.0715,6.0745,6.1014,6.1104,6.1164,6.1583,6.1882,6.2151,5.6143,5.6219,5.6219,5.6219,5.6219,5.6219,5.6219,5.6219,5.6219,5.6219,5.6219,5.6219,5.6219,5.6219,5.6219,5.6219,5.5867,5.5566,5.539,5.4863,5.416,5.3206,5.3181,5.308,5.2929,5.2929,5.2929,5.2929,5.2929,5.2929,5.2929,5.2929,5.2929,5.2929,5.2929,5.2929,5.2929,5.2929,5.2929,5.2929,5.2929,5.2929,5.2929,5.2929,5.2929,5.2929,5.2929,5.2929,5.2929,5.2929,5.2929,5.2998,5.3452,5.4485,5.601,5.7876,5.8362,5.8658,6.009,5.9213,5.7881,5.779,5.8423,5.8979,5.853,5.8441,5.8291,5.7812,5.7573,5.7423,5.7423,5.6526,5.5867,5.6188,5.464,5.3773,5.47,5.4042,5.3803,5.473,5.482,5.4999,5.5448,5.5508,5.5568,5.5777,5.6196,5.6555,5.6765,5.7633,5.8231,5.8441,5.886,5.889,5.8441,5.889,5.9099,5.9099,5.9308,5.9398,5.9428,6.0116,6.0416,6.0446,6.0894,6.1104,6.1134,6.1343,6.1433,6.1433,6.1642,6.1732,6.1792,6.2241,6.2391,6.248,5.6219,5.6219,5.6219,5.6219,5.6219,5.6219,5.6219,5.6219,5.6219,5.6219,5.6219,5.6219,5.6219,5.6219,5.6219,5.6219,5.6219,5.5968,5.544,5.4888,5.431,5.3733,5.3708,5.3457,5.2955,5.2929,5.2929,5.2929,5.2929,5.2929,5.2929,5.2929,5.2929,5.2929,5.2929,5.2929,5.2929,5.2929,5.2929,5.2929,5.2929,5.2929,5.2929,5.2929,5.2929,5.2929,5.2929,5.2929,5.2929,5.2929,5.2929,5.311,5.4552,5.5959,5.7295,5.8718,5.8918,5.8956,6.0648,6.0844,6.0532,6.0211,5.9608,5.9129,5.9129,5.9129,5.9129,5.9099,5.859,5.8141,5.8141,5.7573,5.6885,5.6286,5.6248,5.6248,5.6248,5.6248,5.6248,5.6248,5.6248,5.6248,5.6248,5.6248,5.6436,5.7034,5.7094,5.7393,5.8082,5.8141,5.8441,5.9069,5.9099,5.9099,5.9129,5.9099,5.9099,5.9129,5.9787,6.0086,6.0116,6.0805,6.1134,6.1134,6.1134,6.1134,6.1194,6.1822,6.2121,6.2181,6.281,6.3079,6.3079,6.3079,6.3079,6.3079,5.6219,5.6219,5.6219,5.6219,5.6219,5.6219,5.6219,5.6219,5.6219,5.6219,5.6219,5.6219,5.6219,5.6219,5.6219,5.6219,5.6219,5.6143,5.5968,5.5817,5.5465,5.4913,5.4135,5.3632,5.3482,5.3105,5.2929,5.2929,5.2929,5.2929,5.2929,5.2929,5.2929,5.2929,5.2929,5.2929,5.2929,5.2929,5.2929,5.2929,5.2929,5.2929,5.2929,5.2929,5.2929,5.2929,5.2929,5.2929,5.2929,5.2929,5.2929,5.3316,5.5631,5.7386,5.8718,6.0165,6.081,6.1202,6.1704,6.1697,6.153,6.0928,6.0655,6.0386,5.9907,5.9787,5.9668,5.9189,5.8949,5.88,5.88,5.8261,5.7752,5.7573,5.7124,5.6825,5.6825,5.6825,5.6825,5.6825,5.6825,5.6825,5.6825,5.6825,5.6885,5.7094,5.7543,5.8112,5.877,5.88,5.889,5.9099,5.9099,5.9338,5.9787,5.9338,5.9338,5.9787,5.9997,6.0326,6.0835,6.1493,6.1792,6.1822,6.2301,6.248,6.251,6.272,6.278,6.281,6.2989,6.3079,6.3079,6.3079,6.3079,6.3079,5.6219,5.6219,5.6219,5.6219,5.6219,5.6219,5.6219,5.6219,5.6412,5.6968,5.6558,5.6412,5.704,5.6558,5.6219,5.6219,5.6219,5.6219,5.6219,5.6219,5.6068,5.5717,5.4838,5.416,5.3708,5.3381,5.313,5.2929,5.2929,5.2929,5.2929,5.2929,5.2929,5.2929,5.2929,5.2929,5.2929,5.2929,5.2929,5.2929,5.2929,5.2929,5.2929,5.2929,5.2929,5.2998,5.3521,5.37,5.3835,5.435,5.4861,5.5631,5.7295,5.878,6.0104,6.0952,6.1523,6.191,6.2057,6.2201,6.2219,6.1945,6.1493,6.1014,6.0595,6.0505,6.0296,5.9638,5.9488,5.9398,5.9159,5.877,5.853,5.853,5.8171,5.7902,5.7902,5.7902,5.7782,5.7543,5.7513,5.7513,5.7513,5.7513,5.7603,5.7872,5.8291,5.868,5.9069,5.9338,5.9488,5.9488,5.9757,6.0086,6.0475,6.0086,6.0086,6.0505,6.0745,6.1104,6.1523,6.2181,6.248,6.251,6.2899,6.3079,6.3079,6.3079,6.3079,6.3079,6.3079,6.3079,6.3079,6.3079,6.3079,6.3079,5.634,5.6412,5.6412,5.6412,5.6412,5.634,5.6219,5.6219,5.6703,5.8018,5.704,5.675,5.8205,5.7112,5.6292,5.6412,5.6292,5.6219,5.6219,5.6219,5.6219,5.6219,5.5742,5.4963,5.3884,5.3758,5.3457,5.2929,5.2929,5.2929,5.2929,5.2929,5.2929,5.2929,5.2929,5.2929,5.2929,5.2929,5.2929,5.2929,5.2929,5.2929,5.2929,5.2929,5.2929,5.3042,5.4485,5.502,5.5194,5.652,5.7961,5.9121,5.9121,6.0104,6.1193,6.1193,6.1404,6.1732,6.2057,6.2351,6.2731,6.3021,6.2181,6.1283,6.1224,6.1194,6.1014,6.0326,6.0176,5.9997,5.9398,5.9249,5.9189,5.9189,5.9129,5.9099,5.9099,5.9099,5.889,5.8291,5.8201,5.8201,5.8201,5.8201,5.8471,5.9069,5.9159,5.9189,5.9189,5.9817,6.0176,6.0176,6.0775,6.1134,6.1194,6.1194,6.1194,6.1224,6.1822,6.2121,6.2211,6.281,6.3079,6.3079,6.3079,6.3079,6.3079,6.3079,6.3079,6.3079,6.3079,6.3079,6.3079,6.3079,6.3079,6.3079,5.7733,5.7947,5.7947,5.7947,5.7947,5.7518,5.634,5.6219,5.6267,5.6631,5.6412,5.675,5.8205,5.7112,5.6703,5.7804,5.6895,5.6219,5.6219,5.6219,5.6219,5.6219,5.6093,5.5717,5.5039,5.416,5.3457,5.2929,5.2929,5.2929,5.2929,5.2929,5.2929,5.2929,5.2929,5.2929,5.2929,5.2929,5.2929,5.2929,5.2929,5.2929,5.2929,5.2929,5.2929,5.3042,5.4485,5.502,5.5194,5.652,5.7961,5.9121,5.9121,6.0104,6.1193,6.1193,6.1583,6.1998,6.2116,6.2526,6.3021,6.3079,6.2869,6.251,6.2002,6.1882,6.1702,6.1014,6.0894,6.0835,6.0715,6.0236,5.9877,5.9877,5.9428,5.9099,5.9099,5.9099,5.9069,5.8919,5.889,5.889,5.889,5.889,5.8949,5.9099,5.9578,5.9877,5.9877,6.0505,6.0894,6.0894,6.1044,6.1373,6.1882,6.1882,6.1882,6.1882,6.2032,6.2361,6.2869,6.3019,6.3079,6.3079,6.3079,6.3079,6.3079,6.3079,6.3079,6.3079,6.3079,6.3079,6.3079,6.3079,6.3079,6.3079,5.9306,5.9445,5.9236,5.8489,5.8956,5.8956,5.7446,5.7256,5.7707,5.9166,5.7518,5.704,5.9166,5.8134,5.7876,5.9306,5.8771,5.7992,5.7328,5.7256,5.6968,5.6219,5.6219,5.5968,5.539,5.4813,5.411,5.3306,5.3055,5.2929,5.2929,5.2929,5.2929,5.2929,5.2929,5.2929,5.2929,5.2929,5.3316,5.3903,5.3903,5.4283,5.4861,5.4861,5.4861,5.5061,5.6482,5.7386,5.8024,5.8808,5.9493,6.0104,6.0104,6.0621,6.1193,6.1193,6.1523,6.191,6.2057,6.2468,6.2905,6.3079,6.3079,6.2989,6.266,6.257,6.2391,6.1732,6.1583,6.1493,6.1164,6.0805,6.0565,6.0565,6.0296,6.0057,6.0057,6.0057,6.0057,6.0057,6.0057,6.0057,6.0057,6.0057,6.0057,6.0057,6.0386,6.0565,6.0565,6.1224,6.1583,6.1583,6.1882,6.2211,6.257,6.257,6.257,6.257,6.257,6.275,6.3079,6.3079,6.3079,6.3079,6.3079,6.3079,6.3079,6.3079,6.3079,6.3079,6.3079,6.3079,6.3194,6.3706,6.4239,6.4654,6.0961,6.0961,6.062,5.9375,6.0139,6.0483,5.8956,5.8771,5.9584,6.1746,5.9096,5.7804,6.0,5.9375,5.9236,6.0483,6.062,6.0,5.8489,5.863,5.8018,5.6292,5.6412,5.6283,5.5541,5.544,5.4888,5.3858,5.3406,5.3206,5.3206,5.3105,5.3055,5.3055,5.298,5.2929,5.2929,5.2929,5.37,5.502,5.502,5.5762,5.6973,5.6973,5.6973,5.7167,5.8592,6.0014,6.1193,6.1193,6.1193,6.1193,6.1193,6.1193,6.1193,6.1193,6.1404,6.1732,6.2057,6.2351,6.2731,6.3021,6.3079,6.3079,6.3079,6.3079,6.2929,6.2391,6.2271,6.2091,6.1553,6.1373,6.1283,6.1283,6.1194,6.1104,6.1104,6.1104,6.1104,6.1104,6.1104,6.1104,6.1104,6.1104,6.1104,6.1104,6.1224,6.1283,6.1283,6.1912,6.2271,6.2271,6.278,6.3079,6.3079,6.3079,6.3079,6.3079,6.3079,6.3079,6.3079,6.3079,6.3079,6.3079,6.3079,6.3079,6.3137,6.3279,6.3394,6.3394,6.3592,6.3649,6.3762,6.4678,6.5575,6.6375,6.2242,6.2508,6.2442,6.2242,6.2375,6.2042,6.0551,6.0276,6.0,5.9096,5.9584,5.9654,5.8771,5.9654,6.0345,6.0551,6.062,6.0,5.8489,5.9584,5.9026,5.6365,5.7446,5.7492,5.6093,5.5641,5.5089,5.4436,5.4386,5.4336,5.4336,5.3833,5.3607,5.3582,5.313,5.2929,5.2929,5.2929,5.37,5.502,5.502,5.5762,5.6973,5.6973,5.6973,5.7167,5.8592,6.0014,6.1193,6.1193,6.1193,6.1193,6.1193,6.1193,6.1193,6.1193,6.1583,6.2057,6.2116,6.2526,6.3021,6.3079,6.3079,6.3079,6.3079,6.3079,6.3049,6.2959,6.2929,6.2929,6.2839,6.2361,6.1972,6.1972,6.1493,6.1104,6.1104,6.1104,6.1104,6.1104,6.1104,6.1104,6.1104,6.1104,6.1104,6.1104,6.1642,6.1972,6.1972,6.26,6.2929,6.2929,6.3019,6.3079,6.3079,6.3079,6.3079,6.3079,6.3079,6.3079,6.3079,6.3079,6.3079,6.3079,6.3079,6.3079,6.3194,6.4097,6.4457,6.4568,6.5575,6.5951,6.5951,6.611,6.6269,6.6375,6.3879,6.4009,6.3749,6.2906,6.3459,6.3525,6.2042,6.184,6.1908,6.2042,6.1233,6.0688,6.0866,6.1409,6.2175,6.3,6.2309,6.1206,5.9723,5.9445,5.8418,5.6267,5.6823,5.6895,5.6219,5.5968,5.615,5.6701,5.5264,5.4561,5.4561,5.431,5.4185,5.4185,5.3959,5.3833,5.3833,5.3507,5.4611,5.6571,5.6224,5.7423,5.9369,5.9369,5.9369,5.9431,6.0043,6.0681,6.1193,6.1193,6.1193,6.1193,6.1193,6.1193,6.1193,6.1193,6.1373,6.1642,6.1998,6.2292,6.2643,6.3021,6.3079,6.3079,6.3079,6.3079,6.3079,6.3079,6.3079,6.3079,6.3079,6.2839,6.266,6.266,6.2391,6.2211,6.2211,6.2211,6.2211,6.2211,6.2211,6.2211,6.2211,6.2211,6.2211,6.2211,6.248,6.266,6.266,6.2929,6.3079,6.3079,6.3079,6.3079,6.3079,6.3079,6.3079,6.3079,6.3079,6.3079,6.3079,6.3079,6.3079,6.3079,6.3079,6.3079,6.3137,6.3592,6.4153,6.4789,6.525,6.6217,6.7362,6.7362,6.7719,6.8304]}]]